[[{"header":{"parameterUnit":"m.s-1","parameterCategory":1,"la1":30.6,"la2":28.766,"lo1":-90.7593,"lo2":-88.6598,"dy":0.0162,"dx":0.0183,"nx":116,"ny":114,"refTime":"2024-03-12T06:00:00:Z","depth":0,"parameterNumber":2,"parameterNumberName":"U-component_of_WINDS"},"data":[0.0,0.0,0.0,0.0,0.0,0.0,0.0,0.0,0.0,0.0,0.0,0.0,0.0,0.0,0.0,0.0,0.0,0.0,0.0,0.0,0.0,0.0,0.0,0.0,0.0,0.0,0.0,0.0,0.0,0.0,0.0,0.0,0.0,0.0,0.0,0.0,0.0,0.0,0.0,0.0,0.0,0.0,0.0,0.0,0.0,0.0,0.0,0.0,0.0,0.0,0.0,0.0,0.0,0.0,0.0,0.0,0.0,0.0,0.0,0.0,0.0,0.0,0.0,0.0,0.0,0.0,0.0,0.0,0.0,0.0,0.0,0.0,0.0,0.0,0.0,0.0,0.0,0.0,0.0,0.0,0.0,0.0,0.0,0.0,0.0,0.0,0.0,0.0,0.0,0.0,0.0,0.0,0.0,0.0,0.0,0.0,0.0,0.0,0.0,0.0,0.0,0.0,0.0,0.0,0.0,0.0,0.0,0.0,0.0,0.0,0.0,0.0,0.0,0.0,0.0,0.0,0.0,0.0,0.0,0.0,0.0,0.0,0.0,0.0,0.0,0.0,0.0,0.0,0.0,0.0,0.0,0.0,0.0,0.0,0.0,0.0,0.0,0.0,0.0,0.0,0.0,0.0,0.0,0.0,0.0,0.0,0.0,0.0,0.0,0.0,0.0,0.0,0.0,0.0,0.0,0.0,0.0,0.0,0.0,0.0,0.0,0.0,0.0,0.0,0.0,0.0,0.0,0.0,0.0,0.0,0.0,0.0,0.0,0.0,0.0,0.0,0.0,0.0,0.0,0.0,0.0,0.0,0.0,0.0,0.0,0.0,0.0,0.0,0.0,0.0,0.0,0.0,0.0,0.0,0.0,0.0,0.0,0.0,0.0,0.0,0.0,0.0,0.0,0.0,0.0,0.0,0.0,0.0,0.0,0.0,0.0,0.0,0.0,0.0,0.0,0.0,0.0,0.0,0.0,0.0,0.0,0.0,0.0,0.0,0.0,0.0,0.0,0.0,0.0,0.0,0.0,0.0,0.0,0.0,0.0,0.0,0.0,0.0,0.0,0.0,0.0,0.0,0.0,0.0,0.0,0.0,0.0,0.0,0.0,0.0,0.0,0.0,0.0,0.0,0.0,0.0,0.0,0.0,0.0,0.0,0.0,0.0,0.0,0.0,0.0,0.0,0.0,0.0,0.0,0.0,0.0,0.0,0.0,0.0,0.0,0.0,0.0,0.0,0.0,0.0,0.0,0.0,0.0,0.0,0.0,0.0,0.0,0.0,0.0,0.0,0.0,0.0,0.0,0.0,0.0,0.0,0.0,0.0,0.0,0.0,0.0,0.0,0.0,0.0,0.0,0.0,0.0,0.0,0.0,0.0,0.0,0.0,0.0,0.0,0.0,0.0,0.0,0.0,0.0,0.0,0.0,0.0,0.0,0.0,0.0,0.0,0.0,0.0,0.0,0.0,0.0,0.0,0.0,0.0,0.0,0.0,0.0,0.0,0.0,0.0,0.0,0.0,0.0,0.0,0.0,0.0,0.0,0.0,0.0,0.0,0.0,0.0,0.0,0.0,0.0,0.0,0.0,0.0,0.0,0.0,0.0,0.0,0.0,0.0,0.0,0.0,0.0,0.0,0.0,0.0,0.0,0.0,0.0,0.0,0.0,0.0,0.0,0.0,0.0,0.0,0.0,0.0,0.0,0.0,0.0,0.0,0.0,0.0,0.0,0.0,0.0,0.0,0.0,0.0,0.0,0.0,0.0,0.0,0.0,0.0,0.0,0.0,0.0,0.0,0.0,0.0,0.0,0.0,0.0,0.0,0.0,0.0,0.0,0.0,0.0,0.0,0.0,0.0,0.0,0.0,0.0,0.0,0.0,0.0,0.0,0.0,0.0,0.0,0.0,0.0,0.0,0.0,0.0,0.0,0.0,0.0,0.0,0.0,0.0,0.0,0.0,0.0,0.0,0.0,0.0,0.0,0.0,0.0,0.0,0.0,0.0,0.0,0.0,0.0,0.0,0.0,0.0,0.0,0.0,0.0,0.0,0.0,0.0,0.0,0.0,0.0,0.0,0.0,0.0,0.0,0.0,0.0,0.0,0.0,0.0,0.0,0.0,0.0,0.0,0.0,0.0,0.0,0.0,0.0,0.0,0.0,0.0,0.0,0.0,0.0,0.0,0.0,0.0,0.0,0.0,0.0,0.0,0.0,0.0,0.0,0.0,0.0,0.0,0.0,0.0,0.0,0.0,0.0,0.0,0.0,0.0,0.0,0.0,0.0,0.0,0.0,0.0,0.0,0.0,0.0,0.0,0.0,0.0,0.0,0.0,0.0,0.0,0.0,0.0,0.0,0.0,0.0,0.0,0.0,0.0,0.0,0.0,0.0,0.0,0.0,0.0,0.0,0.0,0.0,0.0,0.0,0.0,0.0,0.0,0.0,0.0,0.0,0.0,0.0,0.0,0.0,0.0,0.0,0.0,0.0,0.0,0.0,0.0,0.0,0.0,0.0,0.0,0.0,0.0,0.0,0.0,0.0,0.0,0.0,0.0,0.0,0.0,0.0,0.0,0.0,0.0,0.0,0.0,0.0,0.0,0.0,0.0,0.0,0.0,0.0,0.0,0.0,0.0,0.0,0.0,0.0,0.0,0.0,0.0,0.0,0.0,0.0,0.0,0.0,0.0,0.0,0.0,0.0,0.0,0.0,0.0,0.0,0.0,0.0,0.0,0.0,0.0,0.0,0.0,0.0,0.0,0.0,0.0,0.0,0.0,0.0,0.0,0.0,0.0,0.0,0.0,0.0,0.0,0.0,0.0,0.0,0.0,0.0,0.0,0.0,0.0,0.0,0.0,0.0,0.0,0.0,0.0,0.0,0.0,0.0,0.0,0.0,0.0,0.0,0.0,0.0,0.0,0.0,0.0,0.0,0.0,0.0,0.0,0.0,0.0,0.0,0.0,0.0,0.0,0.0,0.0,0.0,0.0,0.0,0.0,0.0,0.0,0.0,0.0,0.0,0.0,0.0,0.0,0.0,0.0,0.0,0.0,0.0,0.0,0.0,0.0,0.0,0.0,0.0,0.0,0.0,0.0,0.0,0.0,0.0,0.0,0.0,0.0,0.0,0.0,0.0,0.0,0.0,0.0,0.0,0.0,0.0,0.0,0.0,0.0,0.0,0.0,0.0,0.0,0.0,0.0,0.0,0.0,0.0,0.0,0.0,0.0,0.0,0.0,0.0,0.0,0.0,0.0,0.0,0.0,0.0,0.0,0.0,0.0,0.0,0.0,0.0,0.0,0.0,0.0,0.0,0.0,0.0,0.0,0.0,0.0,0.0,0.0,0.0,0.0,0.0,0.0,0.0,0.0,0.0,0.0,0.0,0.0,0.0,0.0,0.0,0.0,0.0,0.0,0.0,0.0,0.0,0.0,0.0,0.0,0.0,0.0,0.0,0.0,0.0,0.0,0.0,0.0,0.0,0.0,0.0,0.0,0.0,0.0,0.0,0.0,0.0,0.0,0.0,0.0,0.0,0.0,0.0,0.0,0.0,0.0,0.0,0.0,0.0,0.0,0.0,0.0,0.0,0.0,0.0,0.0,0.0,0.0,0.0,0.0,0.0,0.0,0.0,0.0,0.0,0.0,0.0,0.0,0.0,0.0,0.0,0.0,0.0,0.0,0.0,0.0,0.0,0.0,0.0,0.0,0.0,0.0,0.0,0.0,0.0,0.0,0.0,0.0,0.0,0.0,0.0,0.0,0.0,0.0,0.0,0.0,0.0,0.0,0.0,0.0,0.0,0.0,0.0,0.0,0.0,0.0,0.0,0.0,0.0,0.0,0.0,0.0,0.0,0.0,0.0,0.0,0.0,0.0,0.0,0.0,0.0,0.0,0.0,0.0,0.0,0.0,0.0,0.0,0.0,0.0,0.0,0.0,0.0,0.0,0.0,0.0,0.0,0.0,0.0,0.0,0.0,0.0,0.0,0.0,0.0,0.0,0.0,0.0,0.0,0.0,0.0,0.0,0.0,0.0,0.0,0.0,0.0,0.0,0.0,0.0,0.0,0.0,0.0,0.0,0.0,0.0,0.0,0.0,0.0,0.0,0.0,0.0,0.0,0.0,0.0,0.0,0.0,0.0,0.0,0.0,0.0,0.0,0.0,0.0,0.0,0.0,0.0,0.0,0.0,0.0,0.0,0.0,0.0,0.0,0.0,0.0,0.0,0.0,0.0,0.0,0.0,0.0,0.0,0.0,0.0,0.0,0.0,0.0,0.0,0.0,0.0,0.0,0.0,0.0,0.0,0.0,0.0,0.0,0.0,0.0,0.0,0.0,0.0,0.0,0.0,0.0,0.0,0.0,0.0,0.0,0.0,0.0,0.0,0.0,0.0,0.0,0.0,0.0,0.0,0.0,0.0,0.0,0.0,0.0,0.0,0.0,0.0,0.0,0.0,0.0,0.0,0.0,0.0,0.0,0.0,0.0,0.0,0.0,0.0,0.0,0.0,0.0,0.0,0.0,0.0,0.0,0.0,0.0,0.0,0.0,0.0,0.0,0.0,0.0,0.0,0.0,0.0,0.0,0.0,0.0,0.0,0.0,0.0,0.0,0.0,0.0,0.0,0.0,0.0,0.0,0.0,0.0,0.0,0.0,0.0,0.0,0.0,0.0,0.0,0.0,0.0,0.0,0.0,0.0,0.0,0.0,0.0,0.0,0.0,0.0,0.0,0.0,0.0,0.0,0.0,0.0,0.0,0.0,0.0,0.0,0.0,0.0,0.0,0.0,0.0,0.0,0.0,0.0,0.0,0.0,0.0,0.0,0.0,0.0,0.0,0.0,0.0,0.0,0.0,0.0,0.0,0.0,0.0,0.0,0.0,0.0,0.0,0.0,0.0,0.0,0.0,0.0,0.0,0.0,0.0,0.0,0.0,0.0,0.0,0.0,0.0,0.0,0.0,0.0,0.0,0.0,0.0,0.0,0.0,0.0,0.0,0.0,0.0,0.0,0.0,0.0,0.0,0.0,0.0,0.0,0.0,0.0,0.0,0.0,0.0,0.0,0.0,0.0,0.0,0.0,0.0,0.0,0.0,0.0,0.0,0.0,0.0,0.0,0.0,0.0,0.0,0.0,0.0,0.0,0.0,0.0,0.0,0.0,0.0,0.0,0.0,0.0,0.0,0.0,0.0,0.0,0.0,0.0,0.0,0.0,0.0,0.0,0.0,0.0,0.0,0.0,0.0,0.0,0.0,0.0,0.0,0.0,0.0,0.0,0.0,0.0,0.0,0.0,0.0,0.0,0.0,0.0,0.0,0.0,0.0,0.0,0.0,0.0,0.0,0.0,0.0,0.0,0.0,0.0,0.0,0.0,0.0,0.0,0.0,0.0,0.0,0.0,0.0,0.0,0.0,0.0,0.0,0.0,0.0,0.0,0.0,0.0,0.0,0.0,0.0,0.0,0.0,0.0,0.0,0.0,0.0,0.0,0.0,0.0,0.0,0.0,0.0,0.0,0.0,0.0,0.0,0.0,0.0,0.0,0.0,0.0,0.0,0.0,0.0,0.0,0.0,0.0,0.0,0.0,0.0,0.0,0.0,0.0,0.0,0.0,0.0,0.0,0.0,0.0,0.0,0.0,0.0,0.0,0.0,0.0,0.0,0.0,0.0,0.0,0.0,0.0,0.0,0.0,0.0,0.0,0.0,0.0,0.0,0.0,0.0,0.0,0.0,0.0,0.0,0.0,0.0,0.0,0.0,0.0,0.0,0.0,0.0,0.0,0.0,0.0,0.0,0.0,0.0,0.0,0.0,0.0,0.0,0.0,0.0,0.0,0.0,0.0,0.0,0.0,0.0,0.0,0.0,0.0,0.0,0.0,0.0,0.0,0.0,0.0,0.0,0.0,0.0,0.0,0.0,0.0,0.0,0.0,0.0,0.0,0.0,0.0,0.0,0.0,0.0,0.0,0.0,0.0,0.0,0.0,0.0,0.0,0.0,0.0,0.0,0.0,0.0,0.0,0.0,0.0,0.0,0.0,0.0,0.0,0.0,0.0,0.0,0.0,0.0,0.0,0.0,0.0,0.0,0.0,0.0,0.0,0.0,0.0,0.0,0.0,0.0,1.5762,1.9092,0.0,0.0,0.0,0.0,0.0,0.0,0.0,0.0,0.0,0.0,0.0,0.0,0.0,0.0,0.0,0.0,0.0,0.0,0.0,0.0,0.0,0.0,0.0,0.0,0.0,0.0,4.6196,4.6196,4.6196,4.6196,4.6162,4.6102,4.6027,4.5956,4.5859,4.5744,4.5675,4.56,4.56,4.5378,4.495,4.4973,4.5011,4.5087,0.0,0.0,0.0,0.0,0.0,0.0,0.0,0.0,0.0,0.0,0.0,0.0,0.0,0.0,0.0,0.0,0.0,0.0,0.0,0.0,0.0,0.0,0.0,0.0,0.0,0.0,0.0,0.0,0.0,0.0,0.0,0.0,0.0,0.0,0.0,0.0,0.0,0.0,0.0,0.0,0.0,0.0,0.0,0.0,0.0,0.0,0.0,0.0,0.0,0.0,0.0,0.0,0.0,0.0,0.0,0.0,0.0,0.0,0.0,0.0,0.0,0.0,0.0,0.0,0.0,0.0,0.0,0.0,0.0,0.0,1.112,1.3165,0.0,0.0,0.0,0.0,0.0,0.0,0.0,0.0,0.0,0.0,0.0,0.0,0.0,0.0,0.0,0.0,0.0,0.0,0.0,0.0,0.0,0.0,0.0,4.6091,4.6091,4.6119,4.6119,4.6119,4.6119,4.6119,4.6065,4.5956,4.5933,4.5854,4.5675,4.5645,4.5536,4.538,4.5285,4.5039,4.4669,4.4411,4.4457,4.4676,4.5,0.0,0.0,0.0,0.0,0.0,0.0,0.0,0.0,0.0,0.0,0.0,0.0,0.0,0.0,0.0,0.0,0.0,0.0,0.0,0.0,0.0,0.0,0.0,0.0,0.0,0.0,0.0,0.0,0.0,0.0,0.0,0.0,0.0,0.0,0.0,0.0,0.0,0.0,0.0,0.0,0.0,0.0,0.0,0.0,0.0,0.0,0.0,0.0,0.0,0.0,0.0,0.0,0.0,0.0,0.0,0.0,0.0,0.0,0.0,0.0,0.0,0.0,0.0,0.8754,0.7869,0.7672,0.6697,0.5521,0.4176,0.6337,0.6311,0.5033,0.8688,0.0,0.0,0.0,0.0,0.0,0.0,0.0,0.0,0.0,0.0,0.0,0.0,0.0,0.0,0.0,0.0,0.0,0.0,0.0,0.0,0.0,4.5678,4.5692,4.5757,4.5757,4.5757,4.5757,4.5757,4.5757,4.5731,4.5619,4.5558,4.5524,4.54,4.5199,4.4896,4.4411,4.4162,4.4091,4.4079,4.4079,4.4121,4.4402,4.4493,4.4438,0.0,0.0,0.0,0.0,0.0,0.0,0.0,0.0,0.0,0.0,0.0,0.0,0.0,0.0,0.0,0.0,0.0,0.0,0.0,0.0,0.0,0.0,0.0,0.0,0.0,0.0,0.0,0.0,0.0,0.0,0.0,0.0,0.0,0.0,0.0,0.0,0.0,0.0,0.0,0.0,0.0,2.8459,2.8176,0.0,0.0,0.0,0.0,0.0,0.0,0.0,0.0,0.0,0.0,0.0,0.0,0.0,1.163,0.9379,0.772,0.6303,0.53,0.3667,0.2315,0.1158,0.0739,-0.0212,-0.1487,-0.1182,0.0,0.3466,0.4405,0.0,0.0,0.0,0.0,0.0,0.0,0.0,0.0,0.0,0.0,0.0,0.0,0.0,0.0,0.0,0.0,0.0,0.0,0.0,0.0,0.0,4.5607,4.5621,4.5684,4.5703,4.5703,4.5703,4.5703,4.5675,4.5587,4.5541,4.5455,4.5381,4.5156,4.4868,4.4572,4.4114,4.3905,4.3873,4.3664,4.3389,4.3159,4.3575,4.3868,4.4065,4.4065,0.0,0.0,0.0,0.0,0.0,0.0,0.0,0.0,0.0,0.0,0.0,0.0,0.0,0.0,0.0,0.0,0.0,0.0,0.0,0.0,0.0,0.0,0.0,0.0,0.0,0.0,0.0,0.0,0.0,0.0,0.0,0.0,0.0,0.0,0.0,0.0,0.0,0.0,0.0,2.72,2.4886,2.3853,2.4577,2.5273,0.0,0.0,0.0,0.0,0.0,0.0,0.0,0.0,0.0,1.0145,0.8382,0.6292,0.3836,0.3118,0.1989,0.0635,-0.075,-0.1401,-0.1513,-0.2396,-0.2736,-0.2635,-0.2986,-0.2313,-0.0762,0.1087,0.2283,0.3045,0.0,0.0,0.0,0.0,0.2887,0.2108,0.0,0.0,0.0,0.0,0.0,0.0,0.0,0.0,0.0,0.0,0.0,0.0,4.5447,4.5447,4.55,4.5568,4.5603,4.5603,4.5603,4.5568,4.5522,4.5419,4.54,4.5303,4.5109,4.4745,4.4419,4.4213,4.404,4.3889,4.3768,4.3652,4.3367,4.2915,4.3231,4.3378,4.3316,4.3403,4.334,4.3134,0.0,0.0,0.0,0.0,0.0,0.0,0.0,0.0,0.0,0.0,0.0,0.0,0.0,0.0,0.0,0.0,0.0,0.0,0.0,0.0,0.0,0.0,0.0,0.0,0.0,0.0,0.0,0.0,0.0,0.0,0.0,0.0,0.0,0.0,0.0,0.0,0.0,2.3314,2.057,1.8904,1.8564,1.858,0.0,0.0,0.0,0.0,0.0,0.0,1.0183,0.7069,0.4669,0.3172,0.1981,0.0423,-0.1603,-0.1389,-0.2035,-0.3341,-0.4147,-0.4173,-0.3519,-0.4339,-0.4252,-0.3363,-0.381,-0.4143,-0.414,-0.1897,-0.0781,-0.0334,0.1223,0.1776,0.1442,0.0555,-0.0222,-0.1,0.0,0.0,0.0,0.0,0.0,0.0,0.0,0.0,0.0,0.0,0.0,4.5165,4.5042,4.5084,4.5151,4.5216,4.5277,4.5319,4.5319,4.5256,4.5216,4.5213,4.5151,4.4953,4.465,4.4046,4.374,4.3758,4.4161,4.412,4.3634,4.4389,4.4436,4.3961,4.3943,4.3173,4.1919,4.2386,4.2673,4.2856,4.3364,0.0,0.0,0.0,0.0,0.0,0.0,0.0,0.0,0.0,0.0,0.0,0.0,0.0,0.0,0.0,0.0,0.0,0.0,0.0,0.0,0.0,0.0,0.0,0.0,0.0,0.0,0.0,0.0,0.0,0.0,0.0,0.0,0.0,0.0,0.0,0.0,0.0,0.0,1.3578,1.1967,0.0,0.0,0.0,0.0,0.5932,0.4307,0.1931,-0.1451,0.0725,-0.0104,-0.4968,-0.6044,-0.664,-0.6756,-0.6199,-0.6023,-0.645,-0.5908,-0.5802,-0.6021,-0.5588,-0.5371,-0.526,-0.526,-0.5371,-0.526,-0.4815,-0.3914,-0.2902,-0.279,-0.223,-0.1672,-0.2566,-0.3239,-0.3916,0.0,0.0,0.0,0.0,0.0,0.0,0.0,0.0,4.509,4.5014,4.5019,4.5,4.4991,4.5057,4.5125,4.5192,4.5275,4.5194,4.4934,4.5087,4.5065,4.4838,4.53,4.5388,4.506,4.5137,4.4766,4.3881,4.434,4.4295,4.3802,4.4023,4.381,4.3353,4.367,4.3184,4.2184,4.3047,4.3403,4.3377,4.3605,4.4263,0.0,0.0,0.0,0.0,0.0,0.0,0.0,0.0,0.0,0.0,0.0,0.0,0.0,0.0,0.0,0.0,0.0,0.0,0.0,0.0,0.0,0.0,0.0,0.0,0.0,0.0,0.0,0.0,0.0,0.0,0.0,0.0,0.0,0.0,0.0,0.0,0.0,0.86,0.5954,0.0,0.4225,0.3432,0.1824,-0.0611,-0.1444,-0.3655,-0.7725,-0.5322,-0.482,-0.691,-0.6869,-0.6816,-0.6858,-0.6193,-0.6097,-0.6357,-0.6364,-0.6146,-0.5701,-0.626,-0.6151,-0.5371,-0.5817,-0.5929,-0.604,-0.6262,-0.5701,-0.4583,-0.4583,-0.458,-0.4803,-0.5252,-0.5699,-0.6149,0.0,0.0,0.0,0.0,0.0,0.0,0.0,0.0,4.4895,4.4895,4.4895,4.4919,4.4943,4.528,4.554,4.5563,4.575,4.5813,4.5691,4.5759,4.5691,4.5421,4.5659,4.5616,4.5212,4.5383,4.4971,4.3885,4.4458,4.4509,4.3965,4.416,4.4004,4.3545,4.387,4.3683,4.3119,4.3769,4.3848,4.3556,4.3753,4.4401,4.5326,0.0,0.0,0.0,0.0,0.0,0.0,0.0,0.0,0.0,0.0,0.0,0.0,0.0,0.0,0.0,0.0,0.0,0.0,0.0,0.0,0.0,0.0,0.0,0.0,0.0,0.0,0.0,0.0,0.0,0.0,0.0,0.0,0.0,0.0,1.4589,1.0574,0.5583,0.1872,-0.0209,0.0104,-0.1674,-0.3581,-0.5584,-0.6603,-0.8385,-1.1056,-0.9815,-0.9089,-0.9099,-0.842,-0.8131,-0.8128,-0.7575,-0.7467,-0.7692,-0.7365,-0.6927,-0.6482,-0.693,-0.671,-0.604,-0.6374,-0.6596,-0.6596,-0.7043,-0.6707,-0.604,-0.604,-0.6265,-0.6712,-0.6937,-0.716,-0.7379,0.0,0.0,0.0,0.0,0.0,0.0,0.0,4.4914,4.4933,4.4933,4.4952,4.4946,4.4946,4.5778,4.6296,4.6296,4.6717,4.7133,4.7528,4.7181,4.7005,4.6995,4.6234,4.5568,4.5025,4.4724,4.428,4.371,4.4511,4.4634,4.4113,4.4906,4.5035,4.457,4.457,4.457,4.457,4.4367,4.3833,4.3177,4.378,4.4367,4.4947,0.0,0.0,0.0,0.0,0.0,0.0,0.0,0.0,0.0,0.0,0.0,0.0,0.0,0.0,0.0,0.0,0.0,0.0,0.0,0.0,0.0,0.0,0.0,0.0,0.0,0.0,0.0,0.0,0.0,0.0,0.0,0.0,0.0,1.7883,1.4168,0.9391,0.4528,-0.0317,-0.3075,-0.2646,-0.5813,-0.8173,-0.8828,-1.1,-1.2073,-1.1542,-1.2635,-1.2856,-1.1982,-1.1122,-1.0802,-1.1126,-1.0468,-1.0363,-1.0582,-0.8816,-0.8156,-0.8484,-0.7598,-0.7265,-0.7265,-0.7265,-0.7265,-0.7265,-0.7265,-0.7265,-0.7265,-0.7265,-0.7379,-0.7607,-0.7607,-0.7607,-0.7607,0.0,0.0,0.0,0.0,0.0,0.0,0.0,4.5445,4.5843,4.5843,4.6135,4.6356,4.6356,4.6363,4.6387,4.6387,4.6525,4.6545,4.6392,4.6488,4.6703,4.6997,4.641,4.6002,4.5793,4.5688,4.5239,4.4329,4.4906,4.4957,4.4453,4.4712,4.4648,4.4367,4.4367,4.4047,4.3453,4.3948,4.337,4.2213,4.3539,4.4333,4.4729,0.0,0.0,0.0,0.0,0.0,0.0,0.0,0.0,0.0,0.0,0.0,0.0,0.0,0.0,0.0,0.0,0.0,0.0,0.0,0.0,0.0,0.0,0.0,0.0,0.0,0.0,0.0,0.0,0.0,0.0,0.0,1.2759,0.9472,1.0416,0.9985,0.6496,-0.1753,-0.3952,-0.5599,-0.7777,-0.8825,-0.9632,-1.0385,-1.0323,-1.0355,-1.0578,-1.1122,-1.1341,-1.1341,-1.0907,-1.0692,-1.0802,-0.9588,-0.9037,-0.9037,-0.7931,-0.7601,-0.7826,-0.7604,-0.7601,-0.7823,-0.7823,-0.7712,-0.7493,-0.7712,-0.7712,-0.7493,-0.7493,-0.7493,-0.7607,-0.8045,-0.8266,-0.8279,0.0,0.0,0.0,0.0,0.0,0.0,0.0,4.6252,4.6493,4.6493,4.6569,4.6638,4.6638,4.6792,4.6899,4.6899,4.7114,4.7196,4.711,4.718,4.7205,4.7211,4.6765,4.6247,4.58,4.5749,4.5372,4.4587,4.4852,4.4835,4.444,4.444,4.4236,4.3781,4.3781,4.3333,4.2613,4.297,4.2583,4.1804,4.2661,4.3152,4.3284,4.2872,4.3158,4.3531,4.2361,4.2172,4.2298,4.1119,0.0,0.0,0.0,0.0,0.0,0.0,0.0,0.0,0.0,0.0,0.0,0.0,0.0,0.0,0.0,0.0,0.0,0.0,0.0,0.0,0.0,0.0,0.0,0.0,0.8517,0.4666,0.397,0.4448,0.2456,-0.4132,-0.6035,-0.7479,-0.8913,-0.9478,-0.9923,-1.068,-1.0574,-1.0794,-1.1341,-1.1118,-1.1227,-1.1664,-1.0684,-1.0245,-1.0355,-0.9144,-0.8484,-0.8484,-0.7712,-0.7493,-0.7607,-0.7715,-0.7826,-0.8045,-0.8045,-0.7934,-0.7715,-0.7379,-0.7157,-0.7157,0.0,0.0,0.0,0.0,-0.8745,-0.9032,0.0,0.0,0.0,0.0,0.0,0.0,0.0,4.7109,4.699,4.699,4.6717,4.6542,4.6542,4.7104,4.7566,4.762,4.7923,4.8269,4.8586,4.8233,4.7838,4.7373,4.6945,4.6244,4.5303,4.5267,4.5035,4.4587,4.457,4.444,4.431,4.4179,4.3706,4.2998,4.286,4.2488,4.1804,4.1739,4.1593,4.1396,4.1377,4.1393,4.1459,4.1393,4.1393,4.1377,4.108,4.093,4.0748,3.9576,0.0,0.0,0.0,0.0,0.0,0.0,0.0,0.0,0.0,0.0,0.0,0.0,0.0,0.0,0.0,0.0,0.0,0.0,0.0,0.0,0.0,0.0,0.0,0.0,0.4666,0.1007,-0.1004,-0.1115,-0.1897,-0.4475,-0.7057,-0.8399,-0.7706,-0.8484,-0.9261,-0.9812,-1.1004,-1.1869,-1.2309,-1.176,0.0,0.0,0.0,-0.9361,-0.9688,-0.8813,-0.8374,-0.8374,-0.7715,-0.7496,-0.7607,-0.7823,-0.7934,-0.8045,-0.8045,-0.8045,-0.7934,-0.6818,-0.6262,-0.6262,-0.7376,-0.8156,-0.8595,-0.8595,-0.9022,-0.9603,0.0,0.0,0.0,0.0,0.0,0.0,0.0,4.7052,4.7467,4.7467,4.7718,4.7923,4.7923,4.7389,4.7186,4.7634,4.7367,4.7204,4.7255,4.6791,4.6466,4.6371,4.5883,4.5511,4.5303,4.4944,4.4665,4.4587,4.444,4.4367,4.4293,4.3588,4.3075,4.2831,4.2252,4.1543,4.0789,4.1311,4.0774,3.9621,4.02,4.0789,4.1213,4.0653,4.0706,4.0847,3.9718,3.9173,3.8852,3.7268,3.6147,3.517,3.3578,3.2921,0.0,0.0,0.0,0.0,0.0,0.0,0.0,0.0,0.0,0.0,0.0,0.0,0.0,0.0,0.0,0.0,0.0,0.0,0.0,0.4888,0.2452,0.0112,-0.1457,-0.2462,-0.4249,-0.7619,-0.739,-0.7157,-0.7593,-0.6924,-0.67,-0.7368,-0.8692,-0.9354,-0.902,-1.0127,-1.0574,-1.0017,-0.9144,-0.8706,-0.8702,-0.7931,-0.7487,-0.7487,-0.6601,0.0,-0.7934,-0.726,-0.7595,-0.8716,-0.8716,-0.8602,-0.8374,-0.7374,-0.6369,-0.5697,-0.6589,-0.7706,-0.8826,-0.9158,-0.936,-0.9734,0.0,0.0,0.0,0.0,0.0,0.0,0.0,4.7789,4.7959,4.7959,4.7761,4.7609,4.7609,4.6918,4.6613,4.6863,4.666,4.6501,4.6501,4.6213,4.585,4.5614,4.525,4.4947,4.4708,4.448,4.4344,4.4344,4.427,4.4006,4.3545,4.3075,4.2442,4.1625,4.1229,4.0653,3.9793,4.0185,3.9535,3.8308,3.8723,3.8737,3.8576,3.8752,3.8708,3.8414,3.762,3.7315,3.7013,3.513,3.3791,3.2498,3.0108,2.9307,2.9216,0.0,0.0,0.0,0.0,0.0,0.0,0.0,0.0,0.0,0.0,0.0,0.0,0.0,0.0,0.9716,0.7795,0.0,0.3549,0.1144,-0.0229,-0.1493,-0.2757,-0.3672,-0.4672,-0.6281,-0.6265,-0.6482,-0.7035,-0.6589,-0.6589,-0.7254,-0.8033,-0.8475,-0.8696,-0.9144,-0.9258,-0.8923,-0.8273,-0.7835,-0.7835,-0.7396,-0.6948,-0.627,-0.5819,-0.5929,-0.648,-0.6144,-0.6475,-0.7146,-0.7146,-0.7035,-0.6811,-0.5808,-0.5477,-0.5697,-0.6033,-0.7038,-0.8383,-0.9238,-0.9814,-1.0315,0.0,0.0,0.0,0.0,0.0,0.0,0.0,4.8345,4.8151,4.8035,4.7439,4.7017,4.6908,4.6501,4.6196,4.6098,4.6098,4.6067,4.595,4.5699,4.5407,4.4947,4.4801,4.4558,4.4097,4.4097,4.4097,4.4097,4.3906,4.3502,4.2785,4.2458,4.1706,4.0424,4.027,3.9793,3.9017,3.887,3.8308,3.7434,3.7281,3.6568,3.5709,3.6582,3.6554,3.5974,3.5842,3.5507,3.4899,3.283,3.1233,2.9704,2.6876,2.5905,2.5868,2.6051,2.6104,0.0,0.0,0.0,0.0,0.0,0.0,0.0,0.0,1.0421,1.006,0.6299,0.5845,0.5383,0.2819,0.1997,0.0823,-0.1649,-0.224,-0.2827,-0.3764,-0.4231,-0.419,-0.3856,-0.4843,-0.5721,-0.626,-0.6258,-0.6478,-0.7254,-0.7697,-0.814,-0.8806,-0.8371,-0.8156,-0.8269,-0.7619,-0.6956,-0.6502,-0.6396,-0.5947,-0.4931,-0.4927,-0.4923,-0.492,-0.5029,-0.5139,-0.5361,-0.5361,-0.525,-0.5027,-0.436,-0.4583,-0.5475,-0.6031,-0.6824,-0.7976,-0.9328,-1.0159,-1.079,0.0,0.0,0.0,0.0,0.0,0.0,0.0,0.0,4.7597,4.7133,4.7407,4.7407,4.6954,4.6863,4.6613,4.6147,4.6098,4.59,4.5407,4.4801,4.4446,4.4406,4.4253,4.4155,4.4097,4.4097,4.4097,4.4097,4.3306,4.2925,4.2785,4.1377,4.0531,4.02,3.9523,3.909,3.8782,3.7994,3.751,3.7204,3.6411,3.5467,3.4551,3.4716,3.5006,3.5373,3.5386,3.4158,3.2315,3.0241,2.8359,2.6496,2.4328,2.3808,2.417,2.5102,2.4886,2.4711,2.5544,2.1036,1.4966,1.0673,0.8311,0.6872,0.0,0.526,0.3469,-0.0244,0.0367,0.0853,-0.0964,-0.0721,-0.0717,-0.2126,-0.2592,-0.2943,-0.3061,-0.3059,-0.3173,-0.3397,-0.4159,-0.4781,-0.5046,-0.459,-0.4475,-0.4814,-0.6591,-0.7371,-0.6705,-0.7817,-0.8162,-0.7402,-0.7293,-0.6165,-0.4029,-0.3692,-0.3356,-0.3244,-0.336,-0.3918,-0.492,-0.4137,-0.4359,-0.5361,-0.5361,-0.4804,-0.3914,-0.5031,-0.5027,-0.4468,-0.6805,-0.8103,-0.8778,-0.9938,-1.0623,-1.0906,0.0,0.0,0.0,0.0,0.0,0.0,0.0,0.0,0.0,4.7407,4.7302,4.7151,4.6908,4.6548,4.6116,4.5597,4.5597,4.5442,4.5108,4.4502,4.4155,4.4039,4.3923,4.3805,4.3805,4.3805,4.3805,4.3805,4.308,4.2411,4.1869,4.0789,3.999,3.9349,3.8531,3.8069,3.7829,3.6958,3.6367,3.5967,3.5651,3.5136,3.4538,3.4538,3.4136,3.3645,3.3722,3.2784,0.0,2.9287,2.7598,2.5957,2.3443,2.262,2.2631,2.3114,2.2757,2.1658,1.9459,1.5468,1.1323,0.8225,0.6595,0.5538,0.4749,0.4627,0.3653,0.0369,0.037,0.0369,-0.1346,-0.1344,-0.1462,-0.2545,-0.3026,-0.3268,-0.3268,-0.3389,-0.3619,-0.4063,-0.4508,-0.4697,-0.4852,-0.4611,-0.4725,-0.5645,-0.656,-0.7021,-0.7021,-0.7598,-0.7687,-0.7282,-0.7296,-0.6238,-0.4147,-0.2913,-0.2353,-0.2353,-0.2353,-0.2577,-0.3136,-0.2688,-0.28,-0.3357,-0.3357,-0.3135,-0.2913,-0.4249,-0.5025,-0.5579,-0.747,-0.8897,-0.984,-1.0395,-1.0886,-1.1294,0.0,0.0,0.0,0.0,0.0,0.0,0.0,0.0,0.0,0.0,4.7151,4.6845,4.6707,4.6196,4.5716,4.5213,4.5159,4.4998,4.4708,4.4421,4.4282,4.4181,4.4185,4.4224,4.4224,4.4224,4.4087,4.3887,4.3232,4.2409,4.1439,4.0492,3.9638,3.8847,3.7947,3.74,3.7163,3.6266,3.5712,3.5443,3.5198,3.4944,3.4635,3.4247,3.3385,3.2453,3.2898,3.1878,3.0063,2.8796,2.7347,2.5642,2.2975,2.2097,2.1968,2.1643,2.0899,1.9253,1.5066,1.1773,0.8988,0.649,0.5163,0.43,0.3568,0.3812,0.3565,0.1479,0.1109,0.074,-0.074,-0.0863,-0.0986,-0.2097,-0.2837,-0.3331,-0.3454,-0.3825,-0.4423,-0.4978,-0.509,-0.5189,-0.5368,-0.532,-0.5643,-0.6581,-0.6698,-0.7051,-0.7405,-0.741,-0.7378,-0.7297,-0.6814,-0.5612,-0.3729,-0.2474,-0.1795,-0.1795,-0.1795,-0.1795,-0.1795,-0.1795,-0.1795,-0.1795,-0.1795,-0.1908,-0.2355,-0.3914,-0.5248,-0.6473,-0.8247,-0.9597,-1.0599,-1.095,-1.1342,-1.1761,0.0,0.0,0.0,0.0,0.0,0.0,0.0,0.0,0.0,0.0,0.0,0.0,0.0,4.6,4.5699,4.5161,4.5001,4.4708,4.4155,4.4573,4.4837,4.4853,4.5412,4.5715,4.5715,4.5715,4.5368,4.4593,4.3874,4.3044,4.2023,4.0411,3.9419,3.895,3.8007,3.752,3.7209,3.6352,3.6018,3.5856,3.5035,3.4713,3.4532,3.3281,3.2617,3.2547,3.3582,3.1628,2.8524,2.8551,2.7169,2.4986,2.2765,2.2264,2.2222,2.1033,1.9877,1.81,1.4872,1.1634,0.8395,0.5278,0.3322,0.2092,0.2093,0.1601,0.1109,0.0986,0.148,0.1603,0.0247,0.074,0.0986,-0.037,-0.1726,-0.2713,-0.3326,-0.431,-0.517,-0.5782,-0.5904,-0.6147,-0.6757,-0.6698,-0.6581,-0.6581,-0.7168,-0.7405,-0.7413,-0.7413,-0.7306,-0.721,-0.5458,-0.368,-0.1954,-0.181,-0.1795,-0.1795,-0.1795,-0.1795,-0.1795,-0.1795,-0.1795,-0.1795,-0.1795,-0.1908,-0.2355,-0.4808,-0.5919,-0.6584,-0.9251,-1.0459,-1.087,-1.1454,-1.1807,-1.2229,0.0,0.0,0.0,0.0,0.0,0.0,0.0,0.0,0.0,0.0,0.0,0.0,0.0,0.0,0.0,0.0,4.4801,4.4652,4.4406,4.4241,4.4161,4.4036,4.4171,4.4276,4.4276,4.4276,4.4141,4.3854,4.3005,4.2038,4.0948,3.9765,3.8749,3.784,3.6895,3.6479,3.6405,3.548,3.4967,3.4638,3.408,3.3827,3.3561,3.2748,3.1937,3.1362,0.0,3.0866,2.8428,2.7943,2.6276,2.4364,2.3096,2.2154,2.136,1.986,1.8275,1.6205,1.2989,1.0361,0.8077,0.5904,0.4928,0.4433,0.4062,0.3694,0.3325,0.2466,0.2467,0.222,0.0617,0.0617,0.0493,-0.0616,-0.2095,-0.3204,-0.3326,-0.4677,-0.5784,-0.6519,-0.6519,-0.6766,-0.7503,-0.7069,-0.7027,-0.7391,-0.7643,-0.7771,-0.7774,-0.6436,-0.6295,-0.7578,-0.2472,0.0348,0.0575,0.113,0.1232,0.0895,0.0895,0.0336,-0.0561,-0.0336,-0.0336,-0.0673,-0.1458,-0.1908,-0.2355,-0.4808,-0.5922,-0.6253,-0.914,-1.0351,-1.0647,-1.2584,-1.349,-1.3921,0.0,0.0,0.0,0.0,0.0,0.0,0.0,0.0,0.0,0.0,0.0,0.0,0.0,0.0,0.0,0.0,0.0,4.4663,4.4565,4.4764,4.4867,4.4803,4.5012,4.5114,4.5114,4.5046,4.4687,4.411,4.3183,4.197,4.0575,3.9298,3.8228,3.7477,3.6506,3.5968,3.5489,3.4897,3.4159,3.3573,3.3161,3.2966,3.2778,3.1938,3.1122,0.0,3.0639,2.9436,2.7762,2.7695,2.6514,2.4754,2.3454,2.1737,2.0019,1.87,1.6686,1.4193,1.1439,0.929,0.7612,0.591,0.5544,0.5421,0.4681,0.4435,0.3944,0.3207,0.2838,0.2345,0.1234,0.0987,0.0863,0.0123,-0.1109,-0.234,-0.3078,-0.443,-0.5782,-0.7133,-0.7255,-0.738,-0.7869,-0.7503,-0.7383,-0.788,-0.7891,-0.7902,-0.7913,-0.6048,-0.5163,-0.5734,-0.0833,0.1756,0.1391,0.2265,0.2573,0.2235,0.2235,0.1677,0.0784,0.1008,0.0784,0.0112,-0.0672,-0.1458,-0.2355,-0.4697,-0.5699,-0.6144,-0.903,-1.0459,-1.1212,-1.3373,-1.4913,-1.602,0.0,0.0,0.0,0.0,0.0,0.0,0.0,0.0,0.0,0.0,0.0,0.0,0.0,0.0,0.0,0.0,0.0,0.0,4.4738,4.6079,4.6827,4.6827,4.7538,4.7853,4.7853,4.7704,4.6828,4.5342,4.425,4.2773,4.0986,3.9094,3.803,3.7717,3.6815,3.5858,3.4872,3.4483,3.3773,3.2767,3.2342,3.2129,3.2028,3.0721,3.0224,3.0016,2.8688,2.7511,2.6626,2.7766,2.7229,2.5726,2.3399,2.078,1.8351,1.7364,1.4898,1.2063,1.0116,0.8444,0.6884,0.5293,0.4803,0.4679,0.4066,0.3453,0.2961,0.2961,0.2469,0.2099,0.2099,0.2099,0.2099,0.2099,0.111,-0.0369,-0.2459,-0.3813,-0.5414,-0.7625,-0.7872,-0.7872,-0.7872,-0.7872,-0.788,-0.7896,-0.7774,-0.7662,-0.7688,-0.5808,-0.3948,-0.21,-0.0359,0.0588,0.0823,0.1819,0.2347,0.2347,0.2347,0.2347,0.2347,0.2347,0.1677,0.0448,0.0336,-0.0672,-0.2355,-0.4583,-0.5586,-0.6144,-0.8813,-1.0791,-1.2351,-1.3715,-1.5954,-1.8506,0.0,0.0,0.0,0.0,0.0,0.0,0.0,0.0,0.0,0.0,0.0,0.0,0.0,0.0,0.0,0.0,0.0,0.0,4.5467,4.5799,4.6026,4.6026,4.618,4.6269,4.6269,4.6269,4.5913,4.539,4.4373,4.318,4.1889,4.0561,3.9197,3.7808,3.7335,3.6602,3.5596,3.4593,3.3476,3.2364,3.1235,3.0421,2.9828,2.9112,2.891,2.892,2.7511,2.6744,2.6518,2.6834,2.4293,2.0651,1.8513,1.6412,1.4641,1.3223,1.1307,0.9389,0.7715,0.6018,0.4679,0.4312,0.4189,0.3943,0.333,0.3085,0.2838,0.2346,0.2836,0.3448,0.3448,0.3698,0.3947,0.3947,0.123,-0.0492,0.0615,-0.3684,-0.7261,-0.7888,-0.7891,-0.7886,-0.7872,-0.7883,-0.8016,-0.8264,-0.5908,-0.4803,-0.5681,-0.3826,-0.247,-0.1977,-0.012,0.2232,0.4828,0.5125,0.47,0.358,0.47,0.47,0.358,0.4706,0.3918,0.1677,-0.0336,-0.1905,-0.3026,-0.4695,-0.5808,-0.6702,-0.8923,-1.0791,-1.2465,-1.4611,-1.675,-1.8739,0.0,0.0,0.0,0.0,0.0,0.0,0.0,0.0,0.0,0.0,0.0,0.0,0.0,0.0,0.0,0.0,0.0,0.0,0.0,4.6536,4.6732,4.6732,4.6702,4.6705,4.6705,4.6636,4.6198,4.5374,4.4159,4.2991,4.167,4.049,3.9108,3.7612,3.7507,3.6577,3.5102,3.419,3.2978,0.0,0.0,2.9618,2.8717,2.8398,2.8398,2.8408,2.6971,2.538,2.3789,2.2775,2.0452,1.7566,1.6429,1.4415,1.2269,1.0959,0.9153,0.7345,0.6143,0.4802,0.3821,0.3576,0.3452,0.333,0.2716,0.296,0.3328,0.2959,0.3816,0.4794,0.4794,0.4681,0.4562,0.4562,0.1847,-0.0246,-0.0246,-0.2334,-0.4916,-0.7531,-0.7905,-0.7401,-0.6272,-0.6653,-0.7406,-0.8158,-0.5297,-0.3569,-0.3574,-0.2591,-0.1847,-0.159,-0.0477,0.21,0.6235,0.6449,0.6047,0.5152,0.6047,0.6044,0.5146,0.5375,0.4364,0.2348,0.0336,-0.1568,-0.347,-0.5029,-0.6144,-0.7038,-0.9037,-1.123,-1.3473,-1.5277,-1.7427,-1.9673,0.0,0.0,0.0,0.0,0.0,0.0,0.0,0.0,0.0,0.0,4.4744,0.0,0.0,0.0,0.0,0.0,0.0,0.0,0.0,0.0,0.0,4.8001,4.8001,4.8001,4.8001,4.7787,4.6965,4.5416,4.4143,4.2773,4.124,4.0087,3.8854,3.7599,3.7586,3.627,3.419,3.3598,3.2275,3.0557,2.9932,2.9112,2.8291,0.0,2.8184,2.7853,2.6518,2.3686,2.0165,1.8125,1.6592,1.5499,1.5258,1.3113,1.0488,0.9516,0.7715,0.6025,0.5047,0.4312,0.3575,0.2961,0.2838,0.2716,0.2099,0.2958,0.3936,0.3936,0.5161,0.6141,0.6141,0.5661,0.5177,0.4684,0.2589,0.0123,-0.2218,-0.0861,-0.1476,-0.6293,-0.7416,-0.6792,-0.4183,-0.5051,-0.6298,-0.7431,-0.5554,-0.3694,-0.2094,-0.1975,-0.147,-0.0481,-0.0355,0.1847,0.6398,0.6609,0.6717,0.6614,0.6717,0.6715,0.6604,0.5369,0.4026,0.2573,0.1119,-0.1118,-0.3691,-0.5365,-0.6594,-0.7485,-0.9389,-1.1904,-1.4703,-1.5761,-1.8026,-2.0838,0.0,0.0,0.0,0.0,0.0,0.0,0.0,0.0,0.0,0.0,4.6262,4.6178,0.0,0.0,0.0,0.0,0.0,0.0,0.0,0.0,0.0,0.0,4.8001,4.8001,4.8001,4.7787,4.7186,4.608,4.5017,4.3975,4.2871,4.2034,4.0645,3.8841,3.8442,3.7178,3.5211,3.2889,3.1779,3.1268,2.9313,2.8504,2.8291,2.8291,0.0,0.0,2.442,2.2063,1.9673,1.8027,1.5531,1.3025,1.1354,0.9546,0.7853,0.6884,0.5906,0.5047,0.4312,0.3575,0.2961,0.2346,0.2223,0.2099,0.1977,0.2958,0.3936,0.3936,0.5896,0.7612,0.7612,0.8238,0.8,0.5289,0.2702,0.0615,-0.037,-0.197,-0.2583,-0.1478,-0.519,-0.6803,-0.4185,-0.506,-0.5804,-0.5418,-0.6548,-0.5688,-0.2222,-0.1976,-0.0487,0.2717,0.2789,0.4221,0.7049,0.6824,0.6715,0.6717,0.6715,0.6717,0.6611,0.6733,0.527,0.2464,-0.1679,-0.3582,-0.3798,-0.5806,-0.726,-0.8494,-1.0723,-1.2693,-1.4503,-1.6875,-1.879,-2.05,0.0,0.0,0.0,0.0,0.0,0.0,0.0,4.8976,4.8712,4.8419,4.8022,4.7585,4.7137,4.6876,4.7053,0.0,0.0,0.0,0.0,0.0,0.0,0.0,0.0,0.0,4.8001,4.7404,4.6657,4.5706,0.0,4.3711,4.2835,4.231,4.1001,3.9006,3.8711,3.7363,3.532,3.34,3.2286,3.1472,2.9828,2.8804,2.8184,0.0,0.0,0.0,2.3424,2.138,1.9087,1.8267,1.5531,1.2316,1.0404,0.8349,0.6526,0.6039,0.5421,0.4803,0.4558,0.3698,0.2961,0.2592,0.2223,0.1977,0.1977,0.3573,0.4918,0.4918,0.6999,0.8839,0.8839,0.9348,0.9236,0.775,0.356,0.0369,-0.0,-0.1109,-0.1356,-0.0123,-0.2222,-0.3333,-0.1972,-0.3952,-0.569,-0.6427,-0.544,-0.5195,-0.6062,-0.0486,0.3577,0.536,0.5492,0.5987,0.7176,0.7051,0.6937,0.6948,0.6948,0.6951,0.6842,0.5835,0.4485,0.2913,-0.224,-0.4482,-0.4695,-0.671,-0.8045,-0.8937,-1.109,-1.3062,-1.4859,-1.7276,-1.9172,-2.0723,0.0,0.0,0.0,0.0,0.0,0.0,0.0,5.0198,4.9832,4.9715,4.9273,4.872,4.7989,4.7754,4.7864,0.0,0.0,0.0,0.0,0.0,0.0,0.0,0.0,0.0,4.8001,0.0,0.0,4.5253,4.4052,0.0,0.0,0.0,0.0,0.0,3.8814,3.7468,3.5223,3.4005,3.2789,0.0,0.0,2.9207,2.8174,0.0,0.0,0.0,0.0,2.1031,1.9074,1.8616,1.6357,1.3374,1.1467,0.8702,0.616,0.616,0.5667,0.5049,0.4926,0.419,0.333,0.3207,0.2716,0.2223,0.2346,0.4063,0.5776,0.5898,0.7858,0.9579,0.9579,0.9714,0.9849,0.9978,0.5159,0.123,0.0369,0.0123,-0.0,-0.0,-0.0,-0.0,-0.0,-0.2347,-0.458,-0.6449,-0.3452,-0.2949,-0.6025,0.2389,0.7161,0.7159,0.7252,0.7184,0.7187,0.7054,0.7054,0.7182,0.6956,0.6959,0.7187,0.5274,0.325,0.1119,-0.2687,-0.4929,-0.6156,-0.7613,-0.8735,-0.9536,-1.1587,-1.358,-1.5512,-1.7717,-1.9469,-2.0831,0.0,0.0,0.0,0.0,0.0,0.0,0.0,4.993,4.9715,4.9168,4.9063,4.8984,4.89,4.8731,4.8639,0.0,0.0,0.0,0.0,0.0,0.0,0.0,0.0,0.0,0.0,0.0,0.0,4.5001,4.3851,0.0,0.0,0.0,0.0,0.0,0.0,3.7376,3.5416,3.3906,0.0,0.0,0.0,0.0,0.0,0.0,0.0,0.0,0.0,2.0493,2.0364,1.8855,1.7757,1.6651,1.5001,1.1203,0.7253,0.7253,0.6523,0.5669,0.5049,0.4803,0.4558,0.3943,0.333,0.3085,0.3575,0.4435,0.517,0.5784,0.75,0.8851,0.8851,0.9339,0.9954,1.0343,0.825,0.5168,0.1474,0.037,-0.0,-0.0,-0.0,-0.0,-0.0,-0.0247,-0.0988,-0.2471,-0.1097,0.1571,0.5446,0.6679,0.7155,0.7255,0.7244,0.7173,0.716,0.6379,0.6386,0.7182,0.6056,0.6175,0.7206,0.698,0.2128,-0.6072,-0.437,-0.5371,-0.8063,-0.8051,-0.9119,-1.1056,-1.3135,-1.4831,-1.6465,-1.9178,-2.0249,-2.05,0.0,0.0,0.0,0.0,0.0,0.0,5.0045,4.989,4.9656,4.9063,4.9001,4.9001,4.9001,4.8956,4.8815,4.8547,0.0,0.0,0.0,0.0,0.0,0.0,0.0,0.0,0.0,0.0,4.5473,4.5001,4.3491,0.0,0.0,0.0,0.0,0.0,0.0,3.7468,3.5223,3.3289,0.0,0.0,0.0,0.0,0.0,0.0,0.0,0.0,0.0,0.0,2.0601,2.0019,1.8687,1.7241,1.6452,1.3241,0.9533,0.8924,0.7847,0.6646,0.579,0.5174,0.4681,0.4066,0.3698,0.3452,0.333,0.4435,0.5538,0.5784,0.7622,0.9095,0.8851,0.9457,1.0065,1.0079,0.9605,0.8125,0.5151,0.2704,0.0863,0.0123,-0.0,-0.0,-0.0,0.0741,0.0988,0.0494,0.0122,0.1681,0.5483,0.6577,0.7164,0.7153,0.7198,0.7274,0.7493,0.6379,0.6386,0.7516,0.538,0.5276,0.6982,0.1231,-0.3587,-0.7094,-0.6172,-0.65,-0.7736,-0.8709,-0.9783,-1.1068,-1.4071,-1.579,-1.6851,-1.934,-2.0723,-2.1623,0.0,0.0,0.0,0.0,0.0,5.075,4.9774,4.9598,4.9496,4.9063,4.9001,4.9001,4.9001,4.8798,4.8656,4.861,4.842,0.0,0.0,0.0,0.0,0.0,0.0,0.0,0.0,0.0,4.5106,4.4644,4.3126,4.2325,0.0,0.0,4.0901,3.8801,0.0,0.0,0.0,0.0,0.0,0.0,0.0,0.0,0.0,0.0,0.0,0.0,0.0,0.0,0.0,0.0,0.0,1.8093,1.7898,1.5403,1.2299,1.0609,0.8812,0.7253,0.6523,0.5788,0.5051,0.4559,0.4313,0.4189,0.3946,0.4803,0.5663,0.591,0.7378,0.8601,0.8726,0.9457,1.0061,1.0183,1.0079,0.947,0.7972,0.5158,0.246,0.0738,0.037,0.0247,0.0247,0.1112,0.1726,0.1964,0.1088,0.1427,0.3395,0.5186,0.648,0.7304,0.7393,0.7271,0.7271,0.6042,0.5935,0.6839,0.4145,0.359,0.483,-0.269,-0.6301,-0.6639,-0.6738,-0.6956,-0.7176,-0.9082,-1.0404,-1.159,-1.474,-1.648,-1.7432,-1.9828,-2.1288,-2.2297,0.0,0.0,0.0,0.0,0.0,0.0,4.9107,4.9001,4.9001,4.9001,4.9001,4.9001,4.9001,4.837,4.8177,4.8769,4.8627,0.0,0.0,0.0,0.0,0.0,0.0,0.0,0.0,0.0,4.4825,4.3866,4.2915,4.2325,4.2092,4.2092,4.0901,3.8801,0.0,0.0,0.0,0.0,0.0,0.0,0.0,0.0,0.0,0.0,0.0,0.0,0.0,0.0,0.0,0.0,0.0,0.0,0.0,1.8046,1.5327,1.2213,0.9434,0.7373,0.7373,0.6646,0.5916,0.5916,0.5421,0.5049,0.5669,0.5421,0.5049,0.5794,0.6403,0.7255,0.8233,0.8845,0.97,1.1031,0.9923,0.8945,0.9198,0.7248,0.492,0.2334,0.1354,0.0987,0.0988,0.0988,0.1227,0.1813,0.1904,0.1638,0.0921,0.2603,0.4933,0.7736,0.785,0.7282,0.6374,0.5367,0.4814,0.4489,0.213,0.0673,-0.0,-0.2469,-0.4268,-0.5392,-0.5837,-0.6277,-0.6831,-0.9185,-1.1259,-1.3041,-1.533,-1.7104,-1.8642,-2.0816,-2.1729,-2.2176,0.0,0.0,0.0,0.0,0.0,0.0,0.0,4.9001,4.9001,4.9001,4.8576,4.8242,4.8242,4.7622,4.7221,4.7439,4.7221,0.0,0.0,0.0,0.0,0.0,0.0,0.0,0.0,4.5169,4.4479,4.3881,4.3061,4.2102,4.1057,4.1057,3.9798,3.7547,3.6743,3.5233,0.0,0.0,0.0,0.0,0.0,0.0,2.6191,0.0,0.0,0.0,0.0,0.0,0.0,0.0,0.0,0.0,0.0,0.0,0.0,1.4018,1.1852,0.9798,0.834,0.7495,0.6644,0.5542,0.5421,0.5544,0.5297,0.5421,0.5669,0.5916,0.6646,0.7253,0.7378,0.8599,0.97,0.9943,0.9451,0.9207,0.9332,0.7375,0.5784,0.5538,0.4063,0.259,0.1729,0.2222,0.2331,0.1933,0.1903,0.1755,0.1612,0.2037,0.3698,0.6497,0.6717,0.6712,0.6591,0.5477,0.4698,0.4257,0.2129,0.0336,-0.1234,-0.2578,-0.3814,-0.5052,-0.5826,-0.6753,-0.7722,-0.9898,-1.1903,-1.3838,-1.5764,-1.7237,-1.8648,-2.0594,-2.2168,-2.3503,0.0,0.0,0.0,0.0,0.0,0.0,0.0,4.9001,4.8861,4.8513,4.808,4.7671,4.7323,4.6571,4.6237,4.6571,4.6024,0.0,0.0,0.0,0.0,0.0,0.0,0.0,4.5243,4.4662,4.4051,4.3427,4.2482,4.1576,4.0603,4.0246,3.8787,3.6407,3.5697,3.4157,0.0,0.0,0.0,0.0,0.0,0.0,2.5516,0.0,0.0,0.0,0.0,0.0,0.0,0.0,0.0,0.0,0.0,0.0,0.0,0.0,1.2341,1.0774,0.9434,0.8102,0.7013,0.591,0.5914,0.6162,0.579,0.5912,0.6037,0.6037,0.6526,0.6888,0.7008,0.8108,0.8964,0.9089,0.9089,0.9089,0.9089,0.762,0.6399,0.6283,0.4928,0.3575,0.2838,0.2946,0.2917,0.2274,0.2238,0.2086,0.1825,0.2031,0.3139,0.5375,0.5483,0.5479,0.5475,0.4808,0.4029,0.3249,0.1569,0.0112,-0.1121,-0.2579,-0.3924,-0.5044,-0.604,-0.7102,0.0,-1.0666,-1.247,-1.3946,-1.5787,-1.7548,-1.921,-2.0802,-2.271,-2.4727,0.0,0.0,0.0,0.0,0.0,0.0,0.0,4.8923,4.8576,4.7589,4.7373,4.7004,4.6087,4.5327,4.5122,4.5786,0.0,0.0,0.0,0.0,0.0,0.0,0.0,0.0,4.4434,4.422,4.3615,4.2607,4.1506,4.0802,4.0418,3.9549,3.7782,3.5304,3.5208,3.3151,0.0,0.0,0.0,0.0,2.5726,2.4727,0.0,0.0,0.0,0.0,0.0,0.0,0.0,0.0,0.0,0.0,0.0,0.0,0.0,0.0,0.0,0.0,0.0,0.8717,0.7023,0.69,0.69,0.69,0.69,0.6653,0.0,0.6403,0.616,0.6283,0.7131,0.7375,0.7739,0.8593,0.8714,0.8714,0.8714,0.7861,0.6639,0.5047,0.4435,0.4066,0.3944,0.3405,0.2994,0.2946,0.2782,0.2509,0.1909,0.2468,0.3253,0.4369,0.4255,0.403,0.3692,0.3692,0.3024,0.1795,0.0673,0.0112,-0.0112,-0.2356,-0.4036,-0.526,-0.6154,-0.7228,-0.8486,-1.1376,-1.2952,-1.3859,-1.5371,-1.78,-2.0336,-2.1207,-2.3239,-2.5735,0.0,0.0,0.0,0.0,0.0,0.0,0.0,0.0,0.0,0.0,4.5435,4.4536,4.4326,4.3011,4.2158,0.0,0.0,0.0,0.0,0.0,0.0,0.0,0.0,0.0,4.3379,4.3155,4.2496,4.1423,4.117,4.0114,3.8419,3.8251,3.6726,3.4252,3.3418,3.1407,0.0,0.0,0.0,0.0,2.5726,2.4727,0.0,0.0,0.0,0.0,2.0392,2.0046,0.0,0.0,0.0,0.0,0.0,0.0,0.0,0.0,1.0891,1.0051,0.9926,0.0,0.7872,0.7143,0.69,0.69,0.0,0.69,0.6775,0.6775,0.6528,0.6405,0.6896,0.7383,0.7869,0.8113,0.8113,0.7989,0.7739,0.6888,0.5912,0.5047,0.5174,0.5053,0.3944,0.4134,0.4191,0.3655,0.348,0.3309,0.3142,0.3363,0.3475,0.3811,0.3811,0.4145,0.4923,0.4477,0.3698,0.2469,0.2244,0.1234,-0.0336,-0.0672,-0.1903,-0.3699,-0.4651,-0.6434,-0.8615,-0.981,-1.2216,-1.5156,-1.5575,-1.7572,-2.0336,-2.1457,-2.3367,-2.5516,0.0,0.0,0.0,0.0,0.0,0.0,0.0,0.0,0.0,0.0,0.0,4.3247,4.2386,4.1446,0.0,0.0,0.0,0.0,0.0,0.0,0.0,0.0,0.0,4.1684,4.1684,4.1435,4.093,4.0346,3.9839,3.8662,3.7099,3.6458,3.4909,3.2454,3.103,2.9608,2.8291,2.8291,2.796,2.7295,2.5507,0.0,0.0,0.0,0.0,0.0,1.9455,1.8868,0.0,1.6621,1.5435,1.4123,0.0,0.0,0.0,0.0,0.9441,0.8958,0.8958,0.8596,0.7991,0.7508,0.7385,0.7385,0.7385,0.7266,0.7143,0.7143,0.6898,0.6653,0.678,0.6526,0.6521,0.7273,0.6154,0.5408,0.59,0.6278,0.616,0.5663,0.5912,0.5776,0.488,0.4812,0.4619,0.4196,0.4128,0.3847,0.3589,0.381,0.4033,0.4033,0.4033,0.4145,0.459,0.4257,0.3811,0.3141,0.2129,0.1121,0.0112,-0.0784,-0.2137,-0.3852,-0.4571,-0.6609,-0.9342,-0.9891,-1.2276,-1.5359,-1.5235,-1.7436,-2.0673,-2.1343,-2.3263,-2.5762,0.0,0.0,0.0,0.0,0.0,0.0,0.0,0.0,0.0,0.0,0.0,0.0,0.0,0.0,0.0,0.0,0.0,0.0,0.0,0.0,0.0,0.0,4.0045,4.0118,4.0118,3.9683,3.9319,3.904,3.8017,3.69,3.5722,3.4739,3.2955,3.0607,2.8996,2.8291,2.8291,2.8067,2.7403,2.6409,2.4956,0.0,0.0,0.0,0.0,0.0,0.0,0.0,0.0,1.5306,1.4123,1.2697,1.0528,0.0,0.0,0.0,0.0,0.0,0.7872,0.7872,0.7875,0.7872,0.7872,0.7872,0.7872,0.763,0.751,0.7508,0.7268,0.6903,0.6535,0.5297,0.4926,0.6298,0.4189,0.2707,0.4185,0.5418,0.6158,0.6283,0.6145,0.5983,0.579,0.5213,0.4895,0.4712,0.4636,0.4369,0.3923,0.4369,0.4592,0.4592,0.4592,0.437,0.3923,0.3811,0.3698,0.3698,0.1679,0.0784,0.0785,-0.1349,-0.3173,-0.47,-0.5182,-0.7137,-1.0181,-1.0665,-1.2544,-1.5116,-1.4873,-1.7307,-2.0902,-2.0994,-2.3039,-2.5999,0.0,0.0,0.0,0.0,0.0,0.0,0.0,0.0,0.0,0.0,0.0,0.0,0.0,0.0,0.0,0.0,0.0,0.0,0.0,0.0,0.0,3.6389,3.8635,3.9986,3.9986,3.9461,3.8429,3.673,3.6569,3.5448,3.3674,3.3487,3.2465,3.0607,2.8996,2.8291,2.8184,2.7187,2.6636,2.63,2.4086,0.0,0.0,0.0,0.0,0.0,0.0,0.0,0.0,1.4252,1.2333,1.0286,0.9923,0.0,0.0,0.0,0.0,0.0,0.7872,0.7883,0.7891,0.7875,0.7872,0.7872,0.7872,0.7883,0.7768,0.7875,0.776,0.7276,0.5908,0.5167,0.4797,0.4802,0.4062,0.369,0.3937,0.3322,0.3571,0.5677,0.4875,0.4588,0.567,0.5514,0.5408,0.5394,0.5316,0.5268,0.5156,0.5156,0.5268,0.5268,0.5268,0.5268,0.5158,0.4594,0.4369,0.4369,0.3023,0.1793,0.0898,-0.0341,-0.2288,-0.4707,-0.5189,-0.7277,-1.0654,-1.0793,-1.2671,-1.5477,-1.5477,-1.7337,-2.0005,-2.0221,-2.2145,-2.4855,0.0,0.0,0.0,0.0,0.0,0.0,0.0,0.0,0.0,0.0,0.0,0.0,0.0,0.0,0.0,0.0,0.0,0.0,0.0,0.0,3.5463,3.515,3.6232,3.6967,3.6967,3.6301,3.5544,3.4594,3.4594,3.3836,3.2286,3.137,3.0546,2.9828,2.8368,2.7853,2.795,2.6626,2.5397,2.4164,0.0,0.0,0.0,0.0,0.0,0.0,0.0,0.0,0.0,0.0,1.077,0.9684,0.8958,0.0,0.0,0.0,0.0,0.0,0.7883,0.7891,0.7896,0.7888,0.7891,0.7894,0.7894,0.7025,0.6035,0.578,0.5908,0.5667,0.4307,0.3445,0.246,0.1109,0.1846,0.2576,0.3042,0.2795,0.315,0.4812,0.4656,0.4383,0.4584,0.5328,0.5718,0.5443,0.5404,0.5382,0.5382,0.5382,0.5382,0.5382,0.5382,0.5382,0.5382,0.4479,0.4029,0.4029,0.2799,0.1575,0.0341,-0.0687,-0.2434,-0.4593,-0.4896,-0.6985,-1.0183,-1.0616,-1.2457,-1.4873,-1.5359,-1.6879,-1.8971,-2.0465,-2.2605,-2.4956,0.0,0.0,0.0,0.0,0.0,0.0,0.0,0.0,0.0,0.0,0.0,0.0,0.0,0.0,0.0,0.0,0.0,0.0,0.0,3.4459,3.4044,3.3528,3.3243,3.3464,3.4178,3.3598,3.3101,3.2801,3.2801,3.2297,3.1187,2.9848,2.9132,2.892,2.796,2.752,2.7394,2.5726,2.4053,2.2371,0.0,0.0,0.0,0.0,0.0,0.0,0.0,0.0,0.0,0.0,0.0,0.0,0.0,0.0,0.0,0.7894,0.7763,0.7508,0.7774,0.7905,0.7907,0.7907,0.7411,0.6915,0.6915,0.6168,0.5053,0.3937,0.3445,0.3322,0.3202,0.1718,0.0123,-0.1227,-0.0,0.1334,0.2037,0.2033,0.238,0.388,0.4096,0.4185,0.4136,0.5262,0.5792,0.5388,0.5382,0.5382,0.5382,0.5382,0.5382,0.5382,0.5382,0.5382,0.5382,0.4254,0.358,0.358,0.2134,0.0907,-0.0,-0.139,-0.3061,-0.4927,-0.5423,-0.7396,-1.0532,-1.1137,-1.2462,-1.4391,-1.5235,-1.6532,-1.8279,-2.0465,-2.262,-2.4625,0.0,0.0,0.0,0.0,0.0,0.0,0.0,0.0,0.0,0.0,0.0,0.0,0.0,0.0,0.0,0.0,0.0,0.0,0.0,3.0949,3.0214,2.9891,2.9367,3.0493,3.3552,3.3388,3.27,3.1677,3.1677,3.1187,3.0099,2.9764,2.9132,2.8291,2.7941,2.7403,2.6536,2.4164,2.2814,2.2258,2.0005,0.0,0.0,0.0,0.0,0.0,0.0,0.0,0.0,0.0,0.0,0.0,0.0,0.0,0.6773,0.8013,0.7273,0.6289,0.7536,0.7924,0.7937,0.7937,0.6052,0.4185,0.4185,0.5929,0.6806,0.3692,0.1107,0.0369,0.3326,0.0852,-0.1206,0.012,0.0238,0.059,0.1768,-0.0118,-0.0353,0.2939,0.2781,0.31,0.5056,0.555,0.5721,0.5382,0.5382,0.5382,0.5382,0.5382,0.5382,0.5382,0.5382,0.5382,0.5382,0.4254,0.358,0.358,0.125,0.0115,-0.0,-0.1658,-0.3961,-0.6602,-0.7299,-0.9415,-1.2479,-1.284,-1.3674,-1.4629,-1.5353,-1.6773,-1.8532,-1.9774,-2.1152,-2.2636,0.0,0.0,0.0,0.0,0.0,0.0,0.0,0.0,0.0,0.0,0.0,0.0,0.0,0.0,0.0,0.0,0.0,0.0,0.0,3.013,2.9597,2.9071,2.886,2.9051,2.9755,2.9661,2.9367,2.8956,2.8956,2.8764,2.8359,2.8165,2.795,2.7726,2.6871,2.5981,2.5075,2.3175,2.1586,2.0092,1.8855,1.7707,0.0,0.0,0.0,0.0,0.0,0.0,0.0,0.0,0.9319,0.7869,0.7263,0.6771,0.6403,0.6287,0.6041,0.5423,0.3573,0.5436,0.794,0.794,0.4661,0.1462,0.1476,0.2221,0.2339,0.0365,-0.0972,-0.097,0.108,0.0716,-0.0119,-0.0831,-0.0472,0.0117,0.0696,-0.0116,-0.0231,0.1028,0.1814,0.2484,0.3052,0.472,0.5712,0.5382,0.5382,0.5382,0.5382,0.5382,0.5382,0.5382,0.5382,0.5043,0.4255,0.3054,0.2046,0.1364,0.0458,-0.0464,-0.1185,-0.2038,-0.3868,-0.6572,-0.7459,-0.9428,-1.2238,-1.2964,-1.3444,-1.3799,-1.5121,-1.6767,-1.8519,-1.8868,-2.0357,-2.2184,0.0,0.0,0.0,0.0,0.0,0.0,0.0,0.0,0.0,0.0,0.0,0.0,0.0,0.0,0.0,0.0,0.0,0.0,2.9398,2.8976,2.8445,2.7805,2.7688,2.7267,2.6636,2.6182,2.6509,2.7384,2.7384,2.7384,2.7384,2.7187,2.7079,2.6952,2.5762,2.4761,2.3735,2.1941,2.0228,1.8719,1.7929,1.7009,0.0,0.0,0.0,0.0,0.0,0.0,0.0,0.0,0.9207,0.7875,0.7013,0.6401,0.5788,0.5304,0.481,0.3697,0.074,0.2592,0.5812,0.7521,0.3895,-0.0,-0.0,-0.0,-0.0243,-0.12,-0.1317,-0.1193,-0.0472,0.0235,0.0351,-0.0701,-0.0698,-0.0462,-0.0114,-0.0,0.0113,0.0561,0.1903,0.2684,0.235,0.4477,0.5712,0.5382,0.5382,0.5382,0.5382,0.5382,0.5382,0.5382,0.5382,0.483,0.3609,0.2282,0.1154,-0.0,-0.0466,-0.1062,-0.1931,-0.2785,-0.4383,-0.6628,-0.8085,-1.0037,-1.2118,-1.2964,-1.3564,-1.4043,-1.5353,-1.6997,-1.8622,-1.8525,-1.9795,-2.1737,0.0,0.0,0.0,0.0,0.0,0.0,0.0,0.0,0.0,0.0,0.0,0.0,0.0,0.0,0.0,0.0,0.0,0.0,2.8223,2.6862,2.5907,2.5679,2.534,2.5017,2.4821,2.3552,2.4411,2.7384,2.7384,2.7384,2.7384,2.7384,2.6844,2.5972,2.4846,2.3735,2.2749,2.035,1.908,1.8719,1.7473,1.6779,1.6537,0.0,0.0,0.0,0.0,0.0,0.0,0.0,0.97,0.8244,0.762,0.6272,0.5051,0.5677,0.358,0.0864,0.0123,-0.0,0.123,0.657,0.3867,-0.0,-0.0,-0.0,-0.0,-0.0,-0.0,-0.0235,-0.0941,-0.0929,-0.0345,0.1148,-0.0453,-0.1346,-0.0224,-0.0,0.0448,0.1679,0.3134,0.3917,0.358,0.4923,0.5712,0.5382,0.5382,0.5382,0.5382,0.5382,0.5382,0.5382,0.5382,0.4745,0.344,0.2296,0.105,-0.012,-0.1327,-0.1932,-0.1932,-0.4034,-0.5651,-0.6999,-0.9674,-1.1503,-1.2719,-1.3444,-1.4406,-1.5596,-1.6301,-1.7701,-1.921,-1.8642,-1.9339,-2.0831,0.0,0.0,0.0,0.0,0.0,0.0,0.0,0.0,0.0,0.0,0.0,0.0,0.0,0.0,0.0,0.0,0.0,0.0,2.6754,2.5322,2.4437,2.4103,2.3183,2.25,2.2161,2.182,2.2145,2.3023,2.3838,2.43,2.43,2.3375,2.3271,2.3863,2.2605,2.1472,2.035,1.9666,1.8745,1.7818,1.7485,1.7132,1.6903,0.0,0.0,0.0,0.0,0.0,0.0,0.0,0.0,0.0,0.6272,0.5168,0.4067,0.3332,0.247,0.1482,0.037,-0.0,0.0364,0.1933,0.1187,-0.0233,-0.1043,-0.0584,-0.0,-0.0,-0.0,-0.0341,-0.1366,-0.0907,-0.0339,-0.079,-0.0225,-0.0112,-0.1121,0.112,0.1903,-0.0448,0.1903,0.3357,0.2463,0.4255,0.5491,0.5382,0.5382,0.5382,0.5382,0.5382,0.5382,0.5382,0.5439,0.4453,0.2295,0.1877,0.0716,-0.1327,-0.183,-0.2085,-0.2329,-0.4052,-0.5772,-0.736,-0.9795,-1.1503,-1.284,-1.3913,-1.4515,-1.4992,-1.629,-1.7578,-1.8739,-1.9659,-2.0134,-2.0608,0.0,0.0,0.0,0.0,0.0,0.0,0.0,0.0,0.0,0.0,2.9503,2.9177,0.0,0.0,0.0,0.0,0.0,0.0,0.0,2.3519,2.2846,2.2725,2.1813,2.113,2.0451,2.0902,2.0673,1.9652,2.1365,2.2281,2.2281,2.1472,2.1472,2.2168,2.0909,1.9998,1.9325,1.8752,1.8175,1.7485,1.7485,1.7367,1.7256,0.0,0.0,0.0,0.0,0.0,0.0,0.0,0.0,0.0,0.5287,0.4309,0.3447,0.2084,0.1591,0.1345,0.0243,-0.0,-0.0119,-0.0593,-0.07,-0.0804,-0.1369,-0.1033,-0.0692,-0.0456,-0.0113,-0.0224,-0.0897,-0.0897,-0.0785,-0.1009,-0.0448,-0.0112,-0.0561,0.112,0.1344,-0.1458,0.1343,0.3134,0.1903,0.4032,0.5382,0.5382,0.5382,0.5382,0.5382,0.5382,0.5398,0.5431,0.5252,0.4156,0.2106,0.155,0.0242,-0.1704,-0.2212,-0.2592,-0.296,-0.4306,-0.5772,-0.7604,-1.0404,-1.2225,-1.3555,-1.4515,-1.511,-1.5461,-1.6885,-1.7935,-1.8971,-2.0228,-2.0472,-2.05,0.0,0.0,3.8827,3.8121,0.0,0.0,0.0,0.0,0.0,0.0,2.8648,2.7902,0.0,0.0,0.0,0.0,0.0,0.0,0.0,2.1215,2.1115,2.1237,2.0902,2.0221,1.921,2.0221,1.9645,1.7485,1.9761,2.0902,2.0902,2.0787,2.0787,2.0902,1.9659,1.9094,1.9094,1.7941,1.7473,1.7449,1.7449,1.743,1.7289,1.7289,0.0,0.0,0.0,0.0,0.0,0.0,0.0,0.0,0.4531,0.3678,0.306,0.1571,0.0963,0.072,0.0118,-0.0118,-0.0469,-0.1501,-0.1838,-0.16,-0.1126,-0.1458,-0.1683,-0.1121,-0.0561,-0.0112,-0.0112,-0.1009,-0.1346,-0.0336,-0.0785,-0.0785,0.0673,0.0561,-0.0224,-0.1683,0.1343,0.3134,0.1903,0.4032,0.5382,0.5382,0.5382,0.5382,0.5382,0.5382,0.542,0.5504,0.4829,0.397,0.2766,0.1205,-0.0243,-0.148,-0.2467,-0.3208,-0.3579,-0.4553,-0.6016,-0.7845,-1.1374,-1.3555,-1.4629,-1.5353,-1.607,-1.6655,-1.7614,-1.8538,-1.9325,-2.035,-2.0587,-2.0608,0.0,0.0,3.7599,3.7044,0.0,0.0,0.0,0.0,0.0,0.0,0.0,0.0,0.0,2.4411,0.0,0.0,0.0,0.0,0.0,1.7573,1.7253,1.8222,1.826,1.8169,1.7948,1.8169,1.8052,1.7485,1.8971,1.9659,1.9666,1.8739,1.8739,1.9659,1.8402,1.7948,1.783,1.7596,1.7364,1.7177,1.7177,1.6465,1.5591,1.5591,1.4208,0.0,0.0,0.0,0.0,0.0,0.0,0.0,0.4037,0.309,0.2141,0.1778,0.0948,0.0237,-0.0,-0.07,-0.1502,-0.1727,-0.1823,-0.1803,-0.1684,-0.1683,-0.1795,-0.1683,-0.1458,-0.1458,-0.1458,-0.1234,-0.1121,-0.1346,0.0784,0.1567,-0.0785,0.1344,0.1903,-0.1458,0.1343,0.3134,0.1903,0.4032,0.5382,0.5382,0.5382,0.5382,0.5382,0.5382,0.542,0.5504,0.4998,0.4015,0.2766,0.1219,-0.0246,-0.148,-0.2467,-0.3208,-0.3579,-0.48,-0.6994,-1.0158,-1.2822,-1.4152,-1.4748,-1.5822,-1.6537,-1.7003,-1.7948,-1.8532,-1.9107,-2.0594,-2.1159,-2.1373,0.0,0.0,0.0,0.0,0.0,0.0,0.0,0.0,0.0,0.0,0.0,0.0,0.0,2.2227,0.0,0.0,0.0,0.0,0.0,0.0,1.5886,1.6492,1.7114,1.7244,1.6644,1.7244,1.7485,1.7485,1.8175,1.8402,1.8402,1.783,1.783,1.8402,1.783,1.7485,1.7473,1.7346,1.686,1.6253,1.6138,1.5319,1.4174,1.4174,1.2918,1.1323,1.1323,0.0,0.0,0.0,0.0,0.0,0.0,0.0,0.1883,0.1868,0.1398,0.0814,0.0115,-0.0915,-0.1819,-0.1819,-0.1807,-0.1795,-0.1795,-0.1795,-0.1795,-0.1795,-0.1795,-0.1795,-0.1795,-0.157,-0.1458,-0.1795,-0.0224,0.0672,-0.0448,0.0896,0.1567,0.0112,0.2126,0.3357,0.2686,0.4369,0.5382,0.5382,0.5382,0.5382,0.5382,0.5382,0.5441,0.5567,0.4686,0.3927,0.3285,0.0982,-0.0616,-0.1233,-0.308,-0.419,-0.4682,-0.5661,-0.785,-1.088,-1.2697,-1.4262,-1.558,-1.6408,-1.7009,-1.7602,-1.8298,-1.8765,-1.9107,-2.0823,-2.1159,-2.0931,0.0,0.0,0.0,0.0,0.0,0.0,0.0,0.0,0.0,0.0,0.0,0.0,0.0,0.0,0.0,0.0,0.0,0.0,0.0,0.0,0.0,1.4976,1.6166,1.6408,1.5332,1.6284,1.6885,1.6885,1.6885,1.6885,1.6885,1.7244,1.7485,1.7485,1.7485,1.7337,1.716,1.6825,1.6098,1.4834,1.4648,1.3866,1.2805,1.2805,1.2016,1.089,1.089,0.9279,0.7096,0.5933,0.0,0.0,0.0,0.0,0.1865,0.184,0.1833,0.1598,0.0563,-0.0561,-0.157,-0.1795,-0.1795,-0.1795,-0.1795,-0.1795,-0.1795,-0.1795,-0.1795,-0.1795,-0.1795,-0.1795,-0.1795,-0.1795,-0.157,-0.1009,0.0336,0.0336,0.056,0.1344,0.2686,0.3469,0.3357,0.4592,0.5382,0.5382,0.5382,0.5382,0.5382,0.5396,0.5478,0.5405,0.4366,0.3716,0.3697,0.0616,-0.1109,-0.1232,-0.3817,-0.5416,-0.6151,-0.6766,-0.8221,-1.0514,-1.1968,-1.4013,-1.6295,-1.6638,-1.7355,-1.82,-1.8771,-1.8997,-1.9229,-2.0709,-2.0831,-2.0378,0.0,0.0,0.0,0.0,0.0,0.0,0.0,0.0,0.0,0.0,2.3311,2.1919,0.0,0.0,0.0,0.0,0.0,0.0,0.0,0.0,0.0,1.223,1.3545,1.4143,1.3904,1.4143,1.4262,1.4262,1.4262,1.4262,1.4262,1.6526,1.7485,1.7485,1.7485,1.6757,1.5599,1.5572,1.4624,1.3136,1.3107,1.2321,1.1071,1.1071,1.0311,0.9217,0.9217,0.7753,0.5622,0.551,0.3941,0.0,0.0,0.0,0.1806,0.1802,0.1801,0.18,0.1571,0.0673,-0.0449,-0.157,-0.1795,-0.1795,-0.1795,-0.1795,-0.1795,-0.1795,-0.1795,-0.1795,-0.1795,-0.1795,-0.1795,-0.1795,-0.0897,-0.0112,-0.0,0.0896,0.1232,0.0336,0.2239,0.3245,0.2127,0.4032,0.5382,0.5382,0.5382,0.5382,0.5382,0.5451,0.5309,0.4821,0.4173,0.3512,0.3083,0.037,-0.1232,-0.1847,-0.4553,-0.6151,-0.6766,-0.7138,-0.7991,-0.9198,-1.137,-1.3412,-1.5327,-1.5913,-1.7214,-1.8765,-1.8874,-1.912,-1.9366,-1.9815,-2.0831,-2.1737,0.0,0.0,0.0,0.0,0.0,0.0,0.0,0.0,0.0,0.0,0.0,1.9259,0.0,0.0,0.0,1.2552,0.0,0.0,0.0,0.0,0.0,1.1752,1.2946,1.3306,1.259,1.3306,1.3665,1.3665,1.3665,1.3665,1.3665,1.4857,1.5332,1.5327,1.5194,1.4839,1.4255,1.4008,1.3115,1.1832,1.1713,1.0406,0.8803,0.9475,0.8927,0.7934,0.8605,0.7371,0.5361,0.5361,0.3804,0.1795,0.1795,0.0,0.0,0.0,0.1795,0.1683,0.1346,0.0673,-0.0112,-0.0673,-0.1346,-0.1795,-0.1795,-0.1795,-0.1795,-0.1795,-0.1795,-0.1795,-0.1795,-0.1795,-0.1795,-0.1795,-0.1346,-0.0673,0.0336,0.1232,0.1679,0.1232,0.3248,0.392,0.2239,0.3808,0.4707,0.4372,0.4372,0.4372,0.4372,0.444,0.4398,0.4236,0.3586,0.3157,0.3208,-0.0,-0.2584,-0.4795,-0.5904,-0.6891,-0.7752,-0.7877,-0.9083,-1.1117,-1.2444,-1.4366,-1.6767,-1.7337,-1.8163,-1.8874,-1.9229,-1.9468,-1.9707,-2.0399,-2.0967,-2.1645,0.0,0.0,0.0,0.0,0.0,0.0,0.0,0.0,0.0,0.0,0.0,0.0,0.0,0.0,0.0,0.0,1.0248,0.0,0.0,0.0,0.0,1.0655,1.1646,1.1786,1.0714,1.2076,1.2706,1.2706,1.2706,1.2706,1.2702,1.2658,1.2636,1.2627,1.3179,1.317,1.2823,1.2519,1.1698,1.054,0.9957,0.8692,0.7152,0.782,0.7485,0.6816,0.7706,0.67,0.4916,0.4916,0.358,0.1795,0.1795,0.1795,0.0,0.0,0.0,0.2355,0.1906,0.0897,-0.0,0.0224,-0.0673,-0.157,-0.1795,-0.1795,-0.1795,-0.1795,-0.1795,-0.1795,-0.1907,-0.1907,-0.1908,-0.202,-0.202,-0.1346,0.0561,0.112,0.1567,0.2017,0.381,0.4147,0.2241,0.3471,0.4033,0.3587,0.3699,0.3701,0.3701,0.3659,0.3606,0.3767,0.3361,0.2804,0.2095,-0.123,-0.4182,-0.6888,-0.7136,-0.763,-0.8369,-0.8613,-1.0051,-1.244,-1.2564,-1.4242,-1.6885,-1.7584,-1.8169,-1.8635,-1.9461,-1.9815,-1.9931,-2.0859,-2.1211,-2.1318,0.0,0.0,0.0,0.0,0.0,0.0,0.0,0.0,0.0,0.0,0.0,0.0,1.3517,1.2038,1.1347,1.1335,1.0192,0.9391,0.9507,0.8457,0.0,0.7758,0.7991,0.0,0.8042,0.9376,0.994,0.994,0.994,0.994,1.0058,0.9919,0.9856,0.9975,1.2299,1.2556,1.1206,1.1185,1.0301,0.8947,0.7712,0.7263,0.7041,0.5919,0.5584,0.5472,0.5584,0.4804,0.3692,0.3692,0.28,0.1795,0.1795,0.1795,0.1795,0.0,0.0,0.0,0.4375,0.224,0.0224,0.0896,0.0112,-0.1121,-0.1683,-0.1795,-0.1795,-0.1795,-0.1795,-0.1907,-0.2132,-0.2132,-0.2244,-0.2581,-0.2693,-0.1907,0.0112,0.0448,0.0784,0.1683,0.2915,0.3251,0.1907,0.2914,0.3587,0.3587,0.3924,0.415,0.415,0.3816,0.3647,0.3651,0.3763,0.2217,-0.0985,-0.3812,-0.578,-0.6888,-0.7875,-0.8369,-0.8369,-0.9339,-1.0418,-1.1732,-1.0539,-1.1261,-1.354,-1.4847,-1.6149,-1.7689,-1.9223,-1.9815,-1.9931,-2.0859,-2.1211,-2.1546,0.0,0.0,0.0,0.0,0.0,0.0,0.0,0.0,0.0,0.0,0.0,0.0,0.0,1.0866,1.0026,0.992,0.8882,0.7735,0.7044,0.6647,0.0,0.6455,0.7194,0.7688,0.7685,0.8915,0.954,0.954,0.954,0.954,0.9537,0.9486,0.9412,0.9432,1.0337,1.0387,0.9822,0.9723,0.9429,0.8826,0.7598,0.6705,0.5919,0.5584,0.4916,0.436,0.5701,0.5033,0.3692,0.3917,0.3025,0.1795,0.1795,0.1795,0.1907,0.2466,0.3477,0.4601,0.4935,0.4821,0.4257,0.2573,0.1343,0.0336,-0.0112,-0.1009,-0.1795,-0.1795,-0.1795,-0.1908,-0.2469,-0.2356,-0.2356,-0.2693,-0.2693,-0.2356,-0.1121,-0.0224,-0.0,-0.1231,0.1791,0.2576,-0.0896,0.0224,0.1118,0.056,-0.0,-0.0225,-0.0341,-0.0464,-0.0589,-0.0595,-0.0729,-0.1964,-0.4542,-0.6764,-0.8,-0.8238,-0.8729,-0.9095,-0.9339,-0.9822,-1.0543,-1.1386,-1.0906,-1.2101,-1.449,-1.6031,-1.6632,-1.675,-1.9216,-1.9802,-1.9679,-2.1196,-2.1888,-2.2343,0.0,0.0,0.0,0.0,0.0,0.0,0.0,0.0,0.0,1.5475,0.0,0.0,0.0,0.0,0.9077,0.852,0.772,0.6812,0.5566,0.5281,0.5082,0.5082,0.6267,0.698,0.698,0.8537,0.9381,0.9381,0.9381,0.9381,0.9381,0.9327,0.9249,0.915,0.9103,0.9083,0.9076,0.8981,0.894,0.8716,0.7149,0.6033,0.5361,0.447,0.3692,0.3136,0.4477,0.414,0.3024,0.3248,0.269,0.1795,0.1795,0.2019,0.2467,0.3926,0.4936,0.5497,0.5944,0.651,0.6396,0.3916,0.2573,0.1679,0.1121,0.0224,-0.056,-0.056,-0.0785,-0.1009,-0.1569,-0.157,-0.1907,-0.2805,-0.303,-0.2805,-0.2018,-0.0784,-0.0672,-0.2461,0.0895,0.1792,-0.2463,-0.1454,-0.0894,-0.1678,-0.2684,-0.338,-0.3665,-0.4193,-0.4628,-0.4965,-0.5014,-0.5774,-0.7373,-0.8613,-0.9108,-0.9098,-0.946,-0.97,-0.994,-1.0425,-1.091,-1.1273,-1.1514,-1.2586,-1.4257,-1.6144,-1.6509,-1.6166,-1.9332,-2.027,-1.9795,-2.1645,-2.2456,-2.2901,0.0,0.0,0.0,0.0,0.0,0.0,0.0,0.0,1.4866,1.263,0.0,0.0,0.0,0.0,0.0,0.7152,0.7041,0.648,0.5361,0.4249,0.358,0.358,0.0,0.0,0.5494,0.8014,0.9367,0.9367,0.9367,0.9367,0.9364,0.9215,0.9147,0.914,0.9001,0.894,0.894,0.894,0.894,0.8716,0.6364,0.5361,0.5139,0.2688,0.1795,0.1795,0.1795,0.1795,0.1795,0.1795,0.1795,0.1795,0.1907,0.2354,0.3587,0.641,0.7195,0.7182,0.0,0.0,0.0,0.492,0.3805,0.28,0.2016,0.1791,0.1791,0.1791,0.1345,0.0785,0.0448,-0.0,-0.1121,-0.3138,-0.3587,-0.325,-0.2352,-0.1457,-0.1121,-0.1792,0.0224,0.056,-0.2572,-0.235,-0.2238,-0.2795,-0.3692,-0.4511,-0.5159,-0.6905,-0.8277,-0.8891,-0.8637,-0.8754,-0.9242,-0.9345,-0.9335,-0.9335,-1.0065,-1.0304,-1.0304,-1.1031,-1.1273,-1.1394,-1.1993,-1.2234,-1.2475,-1.496,-1.5795,-1.5924,-1.9679,-2.0852,-2.05,-2.1995,-2.257,-2.3006,0.0,0.0,0.0,0.0,0.0,1.7979,1.6248,1.4482,1.2837,0.0,0.0,0.0,0.8813,0.8149,0.7152,0.5919,0.5029,0.4027,0.2912,0.2465,0.2353,0.2353,0.3485,0.4166,0.4166,0.6554,0.7702,0.7702,0.8607,0.9062,0.9062,0.9018,0.8998,0.8994,0.8957,0.894,0.894,0.894,0.894,0.8716,0.6364,0.5361,0.5139,0.2688,0.1795,0.1795,0.1795,0.1795,0.1795,0.1795,0.1795,0.2131,0.3811,0.3811,0.3586,0.673,0.7407,0.7179,0.7165,0.0,0.0,0.0,0.0,0.0,0.3245,0.2463,0.1791,0.1791,0.1345,0.0785,0.0448,-0.0,-0.0673,-0.1458,-0.2129,-0.2687,-0.2797,-0.2129,-0.2354,-0.4596,-0.0896,-0.0224,-0.5495,-0.5835,-0.5721,-0.5938,-0.6381,-0.6794,-0.7219,-0.8147,-0.879,-0.9226,-0.9345,-0.9585,-0.995,-1.0308,-1.0425,-1.0425,-1.0789,-1.1031,-1.1031,-1.1635,-1.1997,-1.1993,-1.2354,-1.2955,-1.3789,-1.5095,-1.5213,-1.4976,-1.8978,-2.0141,-1.9768,-2.1866,-2.3022,-2.3904,0.0,0.0,2.004,1.8909,1.745,1.5962,1.455,1.2832,1.1219,0.0,0.0,0.0,0.7371,0.6366,0.5365,0.4693,0.4026,0.3135,0.1907,0.1795,0.1795,0.1795,0.2911,0.358,0.358,0.5477,0.6369,0.6369,0.7146,0.7482,0.7482,0.7482,0.7482,0.7482,0.7823,0.7937,0.7937,0.7937,0.8269,0.8488,0.5922,0.5029,0.4918,0.2689,0.157,0.1234,0.1234,0.1121,0.1009,0.1009,0.1234,0.1794,0.4262,0.4709,0.4707,0.6951,0.7399,0.7168,0.7049,0.7374,0.7593,0.6826,0.0,0.0,0.5142,0.4362,0.3692,0.3023,0.2464,0.1905,0.1457,0.0897,0.0449,0.0224,-0.0672,-0.168,-0.2908,-0.3362,-0.415,-0.594,-0.2349,-0.1677,-0.6839,-0.741,-0.7519,-0.7504,-0.7771,-0.8022,-0.8515,-0.8973,-0.946,-0.97,-0.9943,-1.0183,-1.0547,-1.0789,-1.1031,-1.1031,-1.1872,-1.2113,-1.1756,-1.259,-1.2955,-1.284,-1.3195,-1.4023,-1.5203,-1.6155,-1.6279,-1.6155,-1.9781,-2.0823,-2.0451,-2.2433,-2.3464,-2.4248,0.0,0.0,1.808,1.7364,1.5553,1.3727,1.2417,1.1328,1.0237,0.0,0.7709,0.648,0.5361,0.4249,0.358,0.358,0.3469,0.2911,0.1907,0.1795,0.1795,0.1795,0.28,0.3357,0.3357,0.4582,0.525,0.525,0.5361,0.5361,0.5361,0.5361,0.5361,0.5472,0.6262,0.6601,0.6601,0.6376,0.693,0.7814,0.5144,0.4364,0.4585,0.2577,0.1234,0.0449,0.0561,0.0336,-0.0,0.0112,0.0449,0.1234,0.3587,0.5046,0.5944,0.6953,0.7279,0.7265,0.6935,0.7703,0.8361,0.7595,0.8143,0.0,0.7154,0.6824,0.6487,0.5148,0.4367,0.381,0.3251,0.2579,0.213,0.2019,0.0897,-0.056,-0.2349,-0.4597,-0.6063,-0.6379,-0.4136,-0.3799,-0.7271,-0.773,-0.7958,-0.8069,-0.8323,-0.8746,-0.9347,-0.9741,-1.0061,-1.0304,-1.0425,-1.0547,-1.091,-1.1273,-1.1514,-1.1631,-1.3066,-1.3426,-1.2706,-1.3899,-1.4381,-1.4157,-1.4505,-1.5435,-1.6833,-1.78,-1.8163,-1.8389,-2.1288,-2.2207,-2.1851,-2.3344,-2.4024,-2.4351,1.9005,1.8394,1.7351,1.5232,1.4487,1.3511,1.1328,1.0891,0.9904,0.7706,0.6478,0.5252,0.4026,0.3691,0.358,0.358,0.2688,0.2018,0.1795,0.1795,0.1795,0.1795,0.2018,0.213,0.213,0.3358,0.3914,0.3914,0.4916,0.5361,0.5361,0.5361,0.5361,0.5472,0.6262,0.6601,0.649,0.4921,0.4472,0.4914,0.4026,0.3804,0.3692,0.2353,0.1234,0.0449,0.1234,0.0897,0.0112,0.1121,0.0897,0.056,0.3018,0.3916,0.4477,0.6599,0.749,0.782,0.7485,0.8146,0.8699,0.8374,0.8371,0.0,0.7922,0.77,0.77,0.7365,0.67,0.6035,0.5924,0.5252,0.4359,0.3357,0.1789,0.0559,0.0224,-0.3137,-0.5841,-0.6852,-0.6847,-0.7065,-0.7733,-0.8066,-0.8221,-0.8204,-0.8894,-0.9652,-1.0313,-1.0463,-1.0668,-1.0668,-1.091,-1.1152,-1.1152,-1.1756,-1.2586,-1.3526,-1.4128,-1.495,-1.5992,-1.6474,-1.6827,-1.7061,-1.7418,-1.8008,-1.8822,-1.9761,-1.9761,-1.9183,-2.1045,-2.1957,-2.241,-2.3456,-2.447,-2.5569,1.7435,1.66,1.567,1.4124,1.2961,1.1792,1.0621,0.9548,0.8393,0.716,0.5558,0.4139,0.3249,0.3138,0.3138,0.3138,0.2579,0.2132,0.1795,0.1795,0.1795,0.1795,0.1795,0.1795,0.1795,0.2353,0.2688,0.2688,0.3357,0.358,0.358,0.358,0.358,0.358,0.403,0.4142,0.3805,0.3024,0.28,0.3022,0.28,0.2912,0.3248,0.2242,0.0785,-0.0672,-0.0112,-0.0336,-0.0672,0.0448,0.2131,0.3477,0.2907,0.3801,0.5371,0.693,0.7595,0.7817,0.8039,0.9354,1.0558,0.99,1.0769,0.0,0.0,1.0421,1.0198,0.9424,0.8982,0.854,0.821,0.7224,0.6121,0.5232,0.301,0.1005,-0.0,-0.2686,-0.527,-0.7296,-0.763,-0.7844,-0.8168,-0.8342,-0.8694,-0.9136,-0.9752,-1.0346,-1.0905,-1.0985,-1.1152,-1.1511,-1.1635,-1.1872,-1.1997,-1.2359,-1.2955,-1.3904,-1.4733,-1.544,-1.602,-1.685,-1.7202,-1.7208,-1.791,-1.8732,-1.9897,-2.1145,-2.1601,-2.1714,-2.2418,-2.3103,-2.3648,-2.4231,-2.5221,-2.6409,1.6079,1.4975,1.405,1.3346,1.1488,1.0144,0.9935,0.8364,0.7037,0.6706,0.4623,0.2898,0.2569,0.2352,0.2132,0.2132,0.2132,0.1908,0.1458,0.157,0.157,0.157,0.1683,0.1795,0.1795,0.1795,0.1795,0.1795,0.1795,0.1795,0.1795,0.1795,0.1795,0.1795,0.157,0.1346,0.1346,0.1458,0.1346,0.1233,0.1683,0.2243,0.2689,0.1681,-0.0,-0.1791,-0.2352,-0.2352,-0.1903,-0.0448,0.2578,0.5388,0.3357,0.425,0.6383,0.7263,0.7593,0.7925,0.8806,1.0668,1.2304,1.1851,1.3264,1.446,0.0,0.0,0.0,1.1472,1.1142,1.0925,1.0478,0.9184,0.7871,0.7174,0.4773,0.212,-0.0445,-0.2007,-0.4139,-0.729,-0.7502,-0.7715,-0.838,-0.8642,-0.9198,-1.0181,-1.0465,-1.0898,-1.139,-1.1394,-1.1756,-1.2234,-1.2238,-1.2479,-1.2719,-1.284,-1.3435,-1.4391,-1.5688,-1.6273,-1.6632,-1.7683,-1.815,-1.7923,-1.8842,-2.0005,-2.1288,-2.241,-2.344,-2.4248,-2.4136,-2.4565,-2.5212,-2.5212,-2.6073,-2.7356,1.5601,1.4767,1.3642,1.2206,1.0966,0.9831,0.8898,0.8479,0.7747,0.6172,0.3246,0.1315,0.1755,0.0889,0.0336,0.0336,0.0336,0.0224,-0.0112,0.0561,0.0897,0.0561,0.1346,0.1795,0.1795,0.1795,0.1795,0.1795,0.1795,0.1795,0.1795,0.1795,0.1795,0.1795,0.0673,0.0785,0.1683,0.0673,-0.0224,-0.0672,0.1121,0.1907,0.1794,-0.0112,-0.1008,-0.1567,-0.415,-0.426,-0.3022,-0.0784,0.0112,0.0894,0.4592,0.5264,0.5031,0.6705,0.7817,0.8699,1.0327,1.1642,1.263,1.3485,1.4024,1.4137,1.4024,0.0,1.3911,1.3691,0.0,1.295,1.2945,0.0,0.0,0.8703,0.795,0.5895,0.1315,-0.0,-0.2125,-0.6748,-0.6948,-0.7154,-0.8174,-0.8967,-0.9658,-1.0425,-1.0685,-1.1016,-1.1651,-1.2001,-1.2118,-1.2234,-1.2479,-1.2719,-1.2719,-1.3555,-1.4966,-1.695,-1.8015,-1.9652,-2.1752,-2.2425,-2.2765,-2.3111,-2.376,-2.4094,-2.4326,-2.4437,-2.4898,-2.5467,-2.4898,-2.5533,-2.6707,-2.6707,-2.7571,-2.8976,1.4276,1.3325,1.2129,1.0733,0.9629,0.8523,0.7403,0.6225,0.5122,0.4081,0.2661,0.2154,0.3014,0.2186,0.1545,0.1545,0.078,0.0112,-0.0112,0.0336,0.0673,0.0673,0.1458,0.1795,0.1795,0.1795,0.1795,0.1795,0.1795,0.1795,0.1795,0.1795,0.1795,0.1795,0.0673,0.0561,0.0897,0.0336,-0.0224,-0.056,-0.0672,-0.0784,-0.0896,-0.1344,-0.235,-0.3579,-0.5158,-0.4819,-0.347,-0.2803,-0.0784,0.1676,0.2688,0.4032,0.5481,0.6362,0.7362,0.8585,1.0343,1.1546,1.2417,1.3609,1.4352,1.4995,1.5535,1.5761,1.5867,1.5648,0.0,0.0,0.0,0.0,0.0,0.0,0.9403,0.7343,0.52,0.359,0.0907,-0.3635,-0.4423,-0.5478,-0.7916,-0.8611,-0.9561,-1.0917,-1.0382,-1.0422,-1.1776,-1.2001,-1.259,-1.3536,-1.4128,-1.449,-1.4852,-1.5558,-1.6497,-1.7677,-1.8033,-1.9319,-2.1303,-2.1843,-2.2168,-2.2289,-2.3536,-2.3991,-2.4094,-2.5415,-2.6182,-2.6409,-2.7051,-2.7375,-2.7482,-2.758,-2.8542,-2.9848,1.2829,1.195,1.1072,0.9801,0.8726,0.764,0.6537,0.4581,0.3084,0.2777,0.2196,0.2115,0.2959,0.2047,0.142,0.142,0.0443,-0.0336,-0.0561,0.0112,0.0449,0.0224,0.1346,0.1795,0.1458,0.1683,0.1795,0.1795,0.1795,0.1795,0.1795,0.1795,0.1795,0.1795,0.0448,-0.0,0.0336,-0.0448,-0.0896,-0.0896,-0.1793,-0.2577,-0.325,-0.3024,-0.3805,-0.5146,-0.5721,-0.5156,-0.403,-0.4041,-0.1456,0.1677,0.0896,0.2574,0.492,0.5688,0.6465,0.7689,1.0123,1.1219,1.2082,1.3825,1.4894,1.5636,1.6723,1.706,1.7173,1.6842,1.6736,0.0,0.0,0.0,1.3906,1.2646,0.0,0.8241,0.7832,0.6247,0.3553,-0.1146,-0.2646,-0.4427,-0.7184,-0.7679,-0.8567,-1.0525,-0.9684,-0.993,-1.1768,-1.2122,-1.2951,-1.4138,-1.5192,-1.5784,-1.6037,-1.6856,-1.756,-1.8273,-1.8512,-1.9557,-2.1296,-2.1828,-2.2153,-2.2379,-2.3751,-2.4326,-2.4437,-2.6073,-2.6943,-2.7257,-2.8552,-2.888,-2.8572,-2.8764,-2.9628,-3.0692,1.1463,1.1268,1.0877,0.9801,0.8726,0.764,0.6537,0.463,0.3225,0.3221,0.1333,0.0104,0.0104,-0.0964,-0.164,-0.164,-0.1666,-0.1795,-0.2132,-0.0224,0.0112,-0.1683,0.1121,0.202,0.0449,0.1346,0.1795,0.1795,0.1795,0.1795,0.1795,0.1795,0.1795,0.1683,-0.0672,-0.0896,0.0224,-0.2014,-0.3019,-0.2909,-0.1345,-0.2354,-0.4826,-0.5609,-0.5714,-0.5485,-0.5839,-0.5721,-0.5037,-0.3365,-0.2016,-0.1006,0.0224,0.1344,0.2681,0.4465,0.5021,0.5906,0.9983,1.087,1.152,1.499,1.5636,1.5743,1.7259,1.7378,1.7179,1.7179,1.6749,1.6217,1.5998,1.4696,1.3214,1.1607,1.0229,0.0,0.0,0.7503,0.5274,-0.0344,-0.2909,-0.4611,-0.5642,-0.5769,-0.6644,-0.869,-0.8824,-0.9798,-1.2113,-1.2479,-1.284,-1.3204,-1.5084,-1.5558,-1.4629,-1.675,-1.8383,-1.9292,-1.9903,-2.1524,-2.3801,-2.4454,-2.5008,-2.5569,-2.6245,-2.6473,-2.6473,-2.6582,-2.7107,-2.7824,-2.8774,-2.9628,-3.0287,-3.0287,-3.0899,-3.1527,1.0685,1.0293,0.9805,0.8726,0.7935,0.7039,0.5536,0.4131,0.3026,0.272,0.2028,0.1426,0.112,0.0104,-0.0636,-0.0644,-0.1529,-0.1995,-0.1906,-0.0336,-0.0,-0.1121,0.1681,0.2466,0.0785,0.1795,0.2244,0.1795,0.1795,0.1795,0.1795,0.1795,0.1795,0.1683,0.0336,-0.0336,-0.0561,-0.2578,-0.3477,-0.3477,-0.3365,-0.4147,-0.5266,-0.5487,-0.5487,-0.5371,-0.5154,-0.5154,-0.5148,-0.3477,-0.2353,-0.1341,0.0112,0.0896,0.1677,0.4129,0.491,0.5464,0.8345,0.9237,1.0112,1.2714,1.3701,1.4465,1.6311,1.6643,1.6537,1.643,1.6004,1.569,1.5363,1.4928,1.4137,1.2861,1.1494,1.0289,0.0,0.698,0.499,0.3118,-0.0481,-0.327,-0.4759,-0.5855,-0.7203,-0.8948,-0.9073,-1.0044,-1.2113,-1.2479,-1.343,-1.4966,-1.6144,-1.7091,-1.8046,-1.8984,-1.9903,-2.0802,-2.1045,-2.2085,-2.3921,-2.4565,-2.5119,-2.5688,-2.6364,-2.6899,-2.7413,-2.7413,-2.8262,-2.9533,-2.9848,-3.0484,-3.1208,-3.1208,-3.1322,-3.1618,1.0194,0.9509,0.8821,0.7637,0.6634,0.5732,0.4935,0.3932,0.3027,0.2422,0.2219,0.1916,0.131,0.0103,-0.0627,-0.0638,-0.1516,-0.1983,-0.1793,-0.056,-0.0224,-0.1346,0.1233,0.1793,0.0112,0.157,0.2132,0.1458,0.157,0.1682,0.1795,0.1458,0.1346,0.1234,0.0112,-0.0784,-0.1457,-0.3141,-0.3815,-0.3591,-0.4151,-0.4484,-0.4814,-0.5037,-0.5037,-0.5037,-0.459,-0.4702,-0.4925,-0.3813,-0.3026,-0.235,-0.056,0.056,0.1232,0.2235,0.3351,0.4691,0.6584,0.7476,0.8582,1.1088,1.1964,1.2842,1.5452,1.5779,1.5559,1.5339,1.5357,1.5041,1.3717,1.4266,1.4272,1.2526,1.2036,1.1318,0.0,0.7735,0.5956,0.5033,0.1227,-0.172,-0.2953,-0.4427,-0.6263,-0.8462,-0.8705,-0.9798,-1.2234,-1.2719,-1.367,-1.544,-1.6497,-1.7677,-1.9107,-1.9924,-2.0723,-2.1616,-2.1843,-2.2757,-2.4239,-2.4787,-2.5459,-2.6026,-2.6473,-2.7107,-2.7824,-2.7824,-2.8794,-3.0391,-3.0391,-3.0899,-3.1618,-3.1618,-3.1618,-3.1618,0.9899,0.892,0.7932,0.6634,0.5129,0.4227,0.4734,0.3932,0.3128,0.2521,0.2017,0.1412,0.0605,-0.0615,-0.1567,-0.1593,-0.173,-0.1761,-0.1791,-0.0673,-0.0673,-0.2132,-0.0112,0.0336,-0.1121,0.0897,0.1683,0.1009,0.1344,0.1568,0.1795,0.0897,0.0449,0.0449,-0.1008,-0.1791,-0.224,-0.3695,-0.4033,-0.3587,-0.3587,-0.3587,-0.3699,-0.4257,-0.448,-0.4592,-0.4592,-0.459,-0.4592,-0.4374,-0.4262,-0.3813,-0.157,0.0336,0.1234,-0.0897,0.056,0.3246,0.4918,0.581,0.7143,1.0214,1.0542,1.1084,1.446,1.4787,1.4358,1.403,1.4696,1.4379,1.1311,1.2842,1.3624,1.0899,1.1735,1.2117,0.9915,0.9359,0.8218,0.5284,0.2092,-0.0123,-0.0493,-0.1726,-0.3939,-0.7113,-0.7723,-0.9303,-1.2595,-1.296,-1.3559,-1.4629,-1.6149,-1.7325,-1.8046,-1.957,-2.0723,-2.1737,-2.2297,-2.3311,-2.4778,-2.5459,-2.6017,-2.6591,-2.6591,-2.7107,-2.7824,-2.7824,-2.8794,-3.0391,-3.0391,-3.0899,-3.1618,-3.1618,-3.1618,-3.1618,1.0391,0.8312,0.6628,0.6731,0.5832,0.5133,0.4834,0.4533,0.4131,0.3428,0.3124,0.2519,0.1109,0.0608,-0.0,-0.0939,-0.1487,-0.1729,-0.1759,-0.0668,-0.0561,-0.1795,0.1231,0.2128,0.0336,0.2576,0.3474,0.2914,0.3025,0.2802,0.2469,0.2244,0.1907,0.1458,0.1009,0.0112,-0.1233,-0.1681,-0.2465,-0.3587,-0.3587,-0.3921,-0.4257,-0.448,-0.4814,-0.5148,-0.5148,-0.5483,-0.5708,-0.5272,-0.4485,-0.336,-0.1009,0.0112,0.0561,0.1344,0.1791,0.2572,0.4814,0.6154,0.7374,0.9034,0.9684,1.021,1.1602,1.2158,1.2285,1.2172,1.2068,1.1969,1.1973,1.2304,1.2796,1.3297,1.3306,1.235,1.0081,0.9294,0.834,0.6646,0.2827,0.0246,-0.0123,-0.2213,-0.4661,-0.7228,-0.8091,-0.9923,-1.296,-1.2457,-1.3053,-1.5235,-1.6177,-1.7584,-1.9686,-2.004,-2.1067,-2.2667,-2.3231,-2.4008,-2.4778,-2.5459,-2.6017,-2.6591,-2.6591,-2.7107,-2.7824,-2.7824,-2.8794,-3.0391,-3.0391,-3.0899,-3.1618,-3.1618,-3.1618,-3.1618,0.9899,0.8219,0.7033,0.7428,0.6833,0.6037,0.5138,0.4834,0.4634,0.4332,0.444,0.414,0.313,0.1614,0.0305,-0.0415,-0.0738,-0.1181,-0.1748,-0.1111,-0.1121,-0.1795,0.0112,0.0784,-0.0224,0.1568,0.2241,0.1681,0.1792,0.1793,0.1458,0.1009,0.0561,0.0224,0.0112,-0.0784,-0.2129,-0.2688,-0.3582,-0.4814,-0.5035,-0.5144,0.0,-0.5594,-0.5706,-0.5817,-0.604,-0.5929,-0.571,-0.6063,-0.5048,-0.3136,-0.0784,-0.0,0.0224,0.1233,0.1232,0.1791,0.527,0.6279,0.672,0.8057,0.7811,0.7781,0.9304,1.0198,1.0765,1.0542,1.0651,1.0542,0.9896,1.1059,1.2649,1.4107,1.4259,1.3316,1.0997,1.0404,0.9556,0.7627,0.5037,0.307,0.1846,-0.2089,-0.5158,-0.6628,-0.7612,-0.9438,-1.2337,-1.22,-1.3159,-1.5952,-1.6301,-1.7701,-2.027,-2.0479,-2.1623,-2.3352,-2.4239,-2.4906,-2.5229,-2.5798,-2.6245,-2.6591,-2.6999,-2.7628,-2.8349,-2.8784,-2.9743,-3.0899,-3.0899,-3.1219,-3.1618,-3.1618,-3.1618,-3.1618,0.9217,0.8432,0.8137,0.8333,0.7836,0.6936,0.5839,0.5236,0.5035,0.5242,0.5457,0.567,0.5672,0.2828,0.061,-0.0,-0.0,-0.0429,-0.1525,-0.1665,-0.1683,-0.1795,-0.1795,-0.1795,-0.1795,-0.0448,0.0112,-0.0336,-0.0,0.0336,0.056,0.0,-0.1009,-0.1234,-0.1457,-0.224,-0.3362,-0.459,-0.5483,-0.604,-0.6475,-0.6366,-0.5926,-0.6596,-0.6485,-0.6151,-0.6707,-0.6154,-0.5377,-0.617,-0.5046,-0.3025,-0.0673,-0.0,-0.0,-0.0,-0.0,0.1009,0.5386,0.6065,0.5839,0.6837,0.5708,0.5137,0.7564,0.8793,0.9357,0.9127,0.9669,0.9457,0.7065,0.9633,1.2466,1.3887,1.4448,1.3942,1.1479,1.1366,1.0514,0.7742,0.6881,0.0,0.4059,-0.1228,-0.4798,-0.5533,-0.6392,-0.8334,-1.1591,-1.1947,-1.3393,-1.6414,-1.6537,-1.7707,-2.004,-2.0802,-2.1941,-2.3689,-2.5017,-2.5688,-2.5688,-2.6354,-2.6691,-2.68,-2.752,-2.8242,-2.9197,-3.0057,-3.0899,-3.1618,-3.1618,-3.1618,-3.1618,-3.1618,-3.1618,-3.1618,0.9817,0.8832,0.8333,0.8432,0.8127,0.7826,0.7819,0.683,0.6039,0.5849,0.5854,0.5964,0.6183,0.5675,0.3848,0.0304,-0.0,-0.0107,-0.0321,-0.0772,-0.1234,-0.1795,-0.1795,-0.1795,-0.1795,0.0336,0.1903,0.2797,0.2909,0.3134,0.3695,0.3471,0.2912,0.1907,0.1907,0.0673,-0.1458,-0.3138,-0.3921,-0.4033,-0.4143,-0.4032,-0.3695,-0.4364,-0.4812,-0.5152,-0.5037,-0.5706,-0.6371,-0.3237,-0.2234,-0.1901,-0.0448,-0.0,-0.0,-0.0,-0.0,0.056,0.28,0.4935,0.5949,0.4033,0.4594,0.5942,0.7179,0.7513,0.7616,0.7598,0.7485,0.7513,0.8066,0.954,1.1265,1.2858,1.2894,1.1563,0.819,0.7939,0.7334,0.5287,0.2825,0.1842,0.3444,0.1597,-0.0859,-0.3674,-0.4055,-0.6499,-1.1827,-1.1331,-1.2649,-1.6414,-1.7009,-1.7948,-1.9113,-2.0458,-2.1707,-2.2749,-2.4778,-2.5688,-2.5688,-2.6354,-2.7008,-2.7618,-2.7726,-2.8242,-2.9197,-3.0057,-3.0899,-3.1618,-3.1618,-3.1618,-3.1618,-3.1618,-3.1618,-3.1618,1.157,1.0587,0.9899,1.0194,0.9706,0.9118,0.8814,0.8223,0.763,0.6842,0.5824,0.5125,0.5244,0.4945,0.3428,0.0302,-0.0,-0.0,-0.0,-0.022,-0.0561,-0.0897,-0.1121,-0.1458,-0.1795,-0.0672,0.0224,0.0784,0.0784,0.0895,0.1231,0.1119,0.0672,-0.0112,-0.0896,-0.2015,-0.3471,-0.4587,-0.5477,-0.6366,-0.6033,-0.5922,-0.6031,-0.5697,-0.559,-0.5485,-0.4815,-0.5037,-0.5367,-0.3015,-0.1118,0.0224,0.0785,0.0673,0.0449,0.0449,0.0224,0.056,0.3361,0.505,0.5732,0.4823,0.5384,0.6058,0.5493,0.6281,0.7176,0.716,0.6982,0.7193,0.8402,0.9362,1.031,1.1105,1.1547,1.0631,0.7839,0.7464,0.6729,0.4423,0.2948,0.2334,0.2953,0.2337,0.0614,-0.2698,-0.3198,-0.5886,-1.1579,-1.1199,-1.2636,-1.6885,-1.7361,-1.8286,-2.0005,-2.1016,-2.2492,-2.4214,-2.5569,-2.6136,-2.6136,-2.6473,-2.6999,-2.7824,-2.8252,-2.8986,-2.9848,-3.0692,-3.1208,-3.1618,-3.1618,-3.1618,-3.1618,-3.1618,-3.1618,-3.1618,1.3849,1.2887,1.2124,1.2608,1.1755,1.089,1.0194,1.0096,0.9612,0.8141,0.5912,0.4405,0.4422,0.3925,0.292,0.1511,0.0521,-0.0,-0.0,-0.0,-0.0,-0.0,-0.0449,-0.0897,-0.1458,-0.1795,-0.213,-0.2354,-0.1905,-0.1457,-0.1008,-0.1121,-0.1457,-0.2242,-0.392,-0.5037,-0.5594,-0.6144,-0.7143,-0.8257,-0.7811,-0.7811,-0.7811,-0.6919,-0.6255,-0.5594,-0.4479,-0.3918,-0.3692,-0.2685,-0.0671,0.1457,0.213,0.1795,0.1121,0.1121,0.0785,0.1009,0.4148,0.528,0.5626,0.6067,0.5837,0.5044,0.3357,0.4927,0.6621,0.6631,0.6514,0.6771,0.7997,0.8408,0.8702,0.9415,0.9785,0.9294,0.7362,0.7106,0.6002,0.3439,0.344,0.3196,0.2092,0.2339,0.123,-0.2089,-0.2829,-0.5391,-1.0835,-1.0718,-1.2645,-1.712,-1.7232,-1.8267,-2.0444,-2.1692,-2.3287,-2.5229,-2.6136,-2.6591,-2.6591,-2.68,-2.7314,-2.8145,-2.8986,-2.9838,-3.0703,-3.1311,-3.1618,-3.1618,-3.1618,-3.1618,-3.1618,-3.1618,-3.1618,-3.1618,1.6385,1.5383,1.4659,1.493,1.4034,1.3221,1.3119,1.3136,1.2088,0.9291,0.655,0.4732,0.474,0.4653,0.4966,0.5684,0.2195,-0.0,-0.0,-0.0,-0.0,-0.0,-0.0,-0.0112,-0.0112,-0.1905,-0.3249,-0.403,-0.2236,-0.0335,0.1448,0.2012,0.1343,-0.0335,-0.2684,-0.4137,-0.5023,-0.5924,-0.6374,-0.6485,-0.6485,-0.5815,-0.4925,-0.4814,-0.4367,-0.3698,-0.2803,-0.2016,-0.1453,-0.056,-0.0224,0.0335,0.3137,0.2915,0.1683,0.1683,0.1683,0.1908,0.3367,0.4944,0.6074,0.5626,0.4267,0.2688,0.1455,0.3025,0.4731,0.4797,0.4697,0.5034,0.6586,0.5585,0.5399,0.8444,0.7233,0.5651,0.4792,0.4419,0.3439,0.1109,0.1847,0.1968,0.0369,0.1847,0.16,-0.184,-0.1842,-0.3914,-0.9118,-0.9761,-1.1952,-1.6414,-1.6603,-1.7067,-1.8156,-2.1593,-2.3416,-2.3648,-2.5679,-2.6591,-2.6582,-2.7314,-2.8145,-2.8986,-2.9848,-3.0692,-3.1516,-3.1516,-3.1618,-3.1618,-3.1618,-3.1618,-3.1618,-3.1618,-3.1618,-3.1618,1.9117,1.7988,1.7242,1.7719,1.6542,1.5442,1.5233,1.4417,1.3108,1.1473,0.9592,0.7915,0.6642,0.6453,0.6358,0.6158,0.4268,0.2974,0.2763,0.1317,0.0336,-0.0,-0.0,-0.0,-0.0,-0.0784,-0.2803,-0.596,-0.4039,-0.2127,-0.0335,-0.0112,-0.0895,-0.2459,-0.4914,-0.6142,-0.6584,-0.6705,-0.7154,-0.7823,-0.7043,-0.693,-0.7043,-0.6374,-0.5929,-0.5592,-0.4474,-0.3467,-0.2572,-0.2238,-0.1007,0.056,0.1793,0.157,0.0785,0.1121,0.157,0.2019,0.3253,0.415,0.4936,0.6189,0.4599,0.2468,0.17,0.2274,0.3313,0.487,0.5097,0.519,0.5354,0.5023,0.5044,0.5772,0.5286,0.4553,0.3694,0.308,0.1847,-0.0739,-0.0492,-0.0861,-0.2459,-0.0615,0.0123,-0.0983,-0.0615,-0.2696,-0.8043,-0.9017,-1.1315,-1.5569,-1.7547,-1.9047,-2.0322,-2.271,-2.442,-2.534,-2.6136,-2.6591,-2.6591,-2.7413,-2.8572,-2.9953,-3.0795,-3.1311,-3.1618,-3.1618,-3.1618,-3.1618,-3.1618,-3.1823,-3.2117,-3.2117,-3.2319,-3.2533,2.2045,2.1157,2.0499,2.0399,1.9191,1.8072,1.7619,1.6161,1.4867,1.3993,1.2678,1.0863,0.8421,0.7627,0.6725,0.5415,0.4986,0.478,0.4788,0.3185,0.1678,0.0559,0.0224,-0.0,-0.0,-0.0673,-0.2691,-0.6186,-0.4942,-0.3813,-0.2686,-0.2574,-0.3245,-0.4808,-0.67,-0.7703,-0.7928,-0.7709,-0.8156,-0.8826,-0.7598,-0.7487,-0.782,-0.6594,-0.5926,-0.559,-0.4697,-0.3916,-0.3023,-0.2686,-0.112,0.0673,0.0673,0.0449,0.0336,0.1233,0.157,0.1907,0.2578,0.2688,0.2574,0.2912,0.326,0.2942,0.103,0.1498,0.3022,0.4958,0.5156,0.4745,0.3816,0.4066,0.431,0.4064,0.3819,0.3574,0.3452,0.2715,0.1481,-0.0739,-0.0739,-0.1477,-0.4056,-0.2334,-0.1351,-0.2211,-0.1718,-0.3182,-0.6958,-0.8772,-1.1315,-1.4852,-1.7879,-2.0078,-2.145,-2.3615,-2.5423,-2.6663,-2.6582,-2.6691,-2.7008,-2.7833,-2.9197,-3.1002,-3.1618,-3.1924,-3.2026,-3.1924,-3.1924,-3.2026,-3.1924,-3.2117,-3.2622,-3.2622,-3.2835,-3.3147,2.5484,2.5157,2.4428,2.2882,2.2007,2.1157,2.0262,1.909,1.7964,1.6879,1.5233,1.2967,0.9955,0.7681,0.5695,0.3997,0.3846,0.4266,0.5354,0.5416,0.4271,0.1907,0.0673,-0.0,-0.0,-0.2353,-0.3583,-0.3685,-0.4365,-0.4808,-0.4901,-0.4236,-0.4795,-0.6362,-0.7254,-0.8042,-0.8937,-0.8826,-0.8937,-0.8826,-0.7598,-0.6594,-0.5699,-0.4475,-0.3249,-0.2244,-0.2244,-0.202,-0.1683,-0.0449,-0.0,-0.0,-0.0,0.0224,0.0897,0.2241,0.2242,0.1683,0.1121,0.0449,-0.1121,-0.5848,-0.0794,0.3914,-0.1378,0.0698,0.403,0.4699,0.4151,0.3204,0.2223,0.1977,0.2591,0.4186,0.3083,0.2591,0.4186,0.3575,0.259,0.1603,0.2343,0.1107,-0.3433,-0.2086,-0.2454,-0.6012,-0.6224,-0.6085,-0.5853,-0.8918,-1.1972,-1.4505,-1.7253,-1.9219,-2.0193,-2.3847,-2.61,-2.6924,-2.6663,-2.6999,-2.7824,-2.8668,-3.0328,-3.242,-3.2409,-3.2723,-3.3147,-3.2622,-3.2723,-3.3147,-3.2622,-3.2723,-3.3147,-3.3147,-3.3147,-3.3147,2.744,2.6896,2.6273,2.5786,2.465,2.369,2.3365,2.1069,1.9281,1.8983,1.7431,1.5947,1.4968,1.1793,0.9517,0.9122,0.8532,0.8299,0.8849,0.7402,0.5256,0.2345,0.0782,-0.0783,-0.2465,-0.325,-0.3585,-0.3578,-0.6465,-0.832,-0.9019,-0.9682,-1.0337,-1.0995,-1.2107,-1.2778,-1.2901,-1.1507,-1.0975,-1.0757,-0.903,-0.8156,-0.782,-0.7485,-0.6594,-0.5592,-0.5592,-0.4475,-0.3023,-0.2574,-0.2463,-0.2463,-0.2463,-0.1232,0.0336,0.1233,0.1682,0.1683,0.1009,-0.0226,-0.1709,-0.3309,0.15,0.5288,0.0237,0.024,0.1949,0.4416,0.3321,0.1724,0.0863,0.0247,0.0123,0.0616,0.0246,0.0123,0.0616,0.0123,-0.0985,-0.2338,-0.2582,-0.3809,-0.6634,-0.5403,-0.4789,-0.6016,-0.6248,-0.6722,-0.744,-1.0565,-1.3223,-1.5198,-1.9008,-2.12,-2.1798,-2.4761,-2.6663,-2.7492,-2.7403,-2.8359,-3.013,-3.0453,-3.1381,-3.2935,-3.2935,-3.3047,-3.3147,-3.3047,-3.3047,-3.3147,-3.3047,-3.3235,-3.3744,-3.3744,-3.3941,-3.4237,2.8868,2.8893,2.8615,2.7302,2.6849,2.6405,2.5797,2.3451,2.171,2.171,1.9736,1.8303,1.8303,1.556,1.3079,1.1625,0.9488,0.8094,0.7914,0.6193,0.4023,0.1786,0.0112,-0.1567,-0.3362,-0.4375,-0.4935,-0.4927,-0.9422,-1.1902,-1.2547,-1.5253,-1.573,-1.4198,-1.498,-1.4328,-1.2577,-1.2149,-1.1932,-1.1824,-1.0849,-1.0526,-1.0307,-0.9109,-0.8229,-0.7456,-0.6251,-0.4808,-0.3469,-0.2574,-0.2239,-0.2239,-0.2239,-0.1232,0.0112,0.0448,0.112,0.1797,0.1582,-0.0,-0.1611,-0.1621,0.1056,0.3105,0.0606,-0.0,-0.0,0.0123,0.0246,-0.0,-0.0985,-0.1478,-0.16,-0.1109,-0.0986,-0.1109,-0.1355,-0.2092,-0.2948,-0.3927,-0.5147,-0.6614,-0.8326,-0.8074,-0.8069,-0.8921,-0.9761,-1.0594,-1.1307,-1.3067,-1.4739,-1.6586,-2.0737,-2.2927,-2.3159,-2.5441,-2.7215,-2.8242,-2.8774,-2.9817,-3.1176,-3.1381,-3.2207,-3.3545,-3.3545,-3.3645,-3.3744,-3.3545,-3.3645,-3.3744,-3.3545,-3.3843,-3.4335,-3.4335,-3.4531,-3.4726,3.0075,3.1066,3.1154,2.7992,2.8682,2.9151,2.7614,2.6025,2.5009,2.502,2.2378,2.0442,2.0361,1.905,1.6525,1.235,0.7911,0.5028,0.4029,0.2774,0.1458,0.0336,-0.1321,-0.2723,-0.3701,-0.6645,-0.8289,-0.8472,-1.3124,-1.5484,-1.5763,-2.0675,-2.067,-1.6526,-1.6787,-1.448,-1.0367,-1.1833,-1.2365,-1.2431,-1.2724,-1.2924,-1.2705,-0.9794,-0.8606,-0.8172,-0.5121,-0.3801,-0.3245,-0.1008,-0.0224,-0.0224,-0.0336,-0.0224,-0.0224,0.0112,0.1008,0.203,0.2521,0.0921,-0.0926,-0.1057,-0.1552,-0.1699,-0.0615,-0.0246,-0.1721,-0.6559,-0.443,-0.2084,-0.3323,-0.332,-0.2825,-0.1724,-0.1479,-0.1724,-0.2338,-0.3191,-0.3795,-0.3787,-0.5728,-0.7661,-0.8868,-1.0204,-1.179,-1.3875,-1.5435,-1.6385,-1.6621,-1.6077,-1.6634,-1.8429,-2.2325,-2.4394,-2.4394,-2.5889,-2.753,-2.9187,-3.0557,-3.1289,-3.1392,-3.188,-3.2801,-3.404,-3.404,-3.4335,-3.4726,-3.4237,-3.4335,-3.4726,-3.4237,-3.4335,-3.4823,-3.4823,-3.4823,-3.4726,3.2464,3.2191,3.1842,3.1079,3.0667,3.034,2.9961,2.8655,2.7584,2.7036,2.6217,2.5568,2.5016,2.2259,2.0113,1.9177,1.3696,0.9879,0.9154,0.5638,0.2345,-0.0224,-0.4819,-0.8447,-1.0667,-1.5701,-1.9265,-2.1083,-1.926,-1.9266,-2.1005,-2.2262,-2.2391,-2.1696,-2.4617,-2.5362,-2.4177,-1.9294,-1.7327,-1.7061,-1.1953,-1.0853,-1.2126,-1.1368,-1.0486,-0.9599,-0.8842,-0.6443,-0.3469,-0.291,-0.2798,-0.2798,-0.3135,-0.3048,-0.2167,0.057,0.2168,0.2866,0.268,0.1298,-0.0477,-0.1557,-0.1943,-0.2337,-0.3459,-0.3331,-0.3325,-0.4564,-0.5053,-0.5663,-0.6648,-0.6396,-0.602,-0.6261,-0.6261,-0.6261,-0.6505,-0.7357,-0.7961,-0.7958,-0.9408,-1.0737,-1.1343,-1.2072,-1.2915,-1.3636,-1.4356,-1.5644,-1.7726,-1.8846,-1.955,-2.0085,-2.3031,-2.4727,-2.4956,-2.6209,-2.7833,-2.9713,-3.1381,-3.251,-3.3323,-3.3423,-3.393,-3.4628,-3.4628,-3.4628,-3.4823,-3.4628,-3.4738,-3.4823,-3.4628,-3.4726,-3.4823,-3.4823,-3.4823,-3.4823,3.4172,3.3848,3.3504,3.3142,3.3031,3.2723,3.2198,3.1096,3.0083,2.9287,2.8545,2.7939,2.7458,2.6322,2.5593,2.5658,1.7753,1.3538,1.5435,1.2644,1.1086,1.124,0.822,0.3186,-0.4107,-0.7391,-1.2297,-1.905,-1.903,-1.9665,-2.0934,-2.3063,-2.3028,-2.1316,-2.5145,-2.5722,-2.3732,-2.2636,-2.2289,-2.2251,-1.9416,-1.7568,-1.6685,-1.6685,-1.3906,-1.0151,-1.0151,-0.7648,-0.436,-0.3804,-0.3598,-0.3508,-0.3173,-0.298,-0.2326,0.0234,0.2103,0.338,0.3906,0.2511,0.0483,-0.1096,-0.1717,-0.2221,-0.3337,-0.4196,-0.4807,-0.4807,-0.641,-0.7766,-0.751,-0.7625,-0.7742,-0.7495,-0.7736,-0.798,-0.8224,-0.9319,-1.0048,-1.0415,-1.1976,-1.3181,-1.3665,-1.4381,-1.5198,-1.6575,-1.6815,-1.7971,-2.0487,-2.1956,-2.267,-2.2613,-2.4625,-2.6054,-2.6797,-2.8406,-2.9797,-3.0845,-3.2398,-3.3434,-3.404,-3.4237,-3.4531,-3.4823,-3.4823,-3.4823,-3.4823,-3.4823,-3.4823,-3.4823,-3.4823,-3.4823,-3.4823,-3.4823,-3.4823,-3.4823,3.5492,3.5664,3.5537,3.4792,3.5371,3.5528,3.4413,3.3681,3.293,3.2105,3.0983,3.0194,2.9838,3.1008,3.183,3.183,2.2549,1.8329,2.2008,2.0101,2.0275,2.3526,2.1975,1.5997,0.5177,0.4165,-0.1175,-1.1276,-1.5184,-1.6828,-1.6461,-2.138,-2.1481,-1.7721,-2.204,-2.1973,-1.8905,-2.3703,-2.5865,-2.6182,-2.7754,-2.6177,-2.2868,-2.211,-1.7585,-1.1384,-1.0462,-0.809,-0.5252,-0.4038,-0.3515,-0.31,-0.2191,-0.1868,-0.1778,-0.096,0.0956,0.3209,0.5172,0.3743,0.1334,-0.0369,-0.148,-0.1972,-0.1975,-0.3824,-0.5546,-0.5546,-0.7268,-0.8375,-0.7258,-0.7986,-0.8474,-0.7625,-0.7983,-0.8593,-0.9211,-1.0293,-1.1378,-1.2109,-1.3784,-1.5219,-1.6065,-1.6655,-1.7929,-2.0228,-2.0458,-2.1358,-2.3607,-2.4616,-2.5305,-2.5423,-2.6536,-2.7609,-2.8734,-3.0927,-3.2072,-3.2174,-3.3423,-3.404,-3.4139,-3.4628,-3.4823,-3.4823,-3.4823,-3.4823,-3.4823,-3.4823,-3.4823,-3.4823,-3.4823,-3.4823,-3.4823,-3.4823,-3.4823,-3.4823,3.7034,3.7266,3.7351,3.6568,3.7277,3.7713,3.7069,3.7323,3.7326,3.6593,3.7061,3.723,3.6489,3.6715,3.6955,3.6955,3.3201,2.9933,2.7798,2.088,1.6772,1.6607,0.731,0.1209,-0.0783,-0.5181,-0.836,-1.022,-1.0318,-0.883,-0.6028,-1.2217,-1.4199,-1.2854,-1.947,-2.3199,-2.458,-2.4541,-2.4685,-2.4834,-2.4394,-2.4786,-2.5239,-2.1293,-1.9007,-1.7211,-1.2,-0.809,-0.526,-0.3978,-0.2979,-0.2074,-0.187,-0.19,-0.2165,-0.3491,-0.1819,0.1347,0.4913,0.3192,0.0246,-0.0123,-0.1111,-0.1975,-0.1977,-0.296,-0.3819,-0.3819,-0.5418,-0.6893,-0.7253,-0.8111,-0.9098,-0.9846,-1.0193,-1.0558,-1.1206,-1.1901,-1.2831,-1.4013,-1.5322,-1.6744,-1.8137,-1.8868,-1.991,-2.1274,-2.1388,-2.2387,-2.4846,-2.5075,-2.6164,-2.8329,-2.8048,-2.8252,-2.9367,-3.1359,-3.2488,-3.2666,-3.361,-3.4237,-3.4628,-3.4726,-3.4823,-3.4823,-3.4823,-3.4823,-3.4823,-3.4823,-3.4823,-3.4823,-3.4823,-3.4823,-3.4823,-3.4823,-3.4823,-3.4823,3.8679,3.8614,3.8581,3.8809,3.9359,3.9631,3.9104,3.9446,3.9429,3.8667,3.8992,3.9355,3.9543,4.0516,4.124,4.1422,4.1031,3.9774,3.736,2.9518,2.6571,3.0194,2.2003,1.4596,0.8678,0.0174,-0.4173,-0.4173,-0.3586,-0.2487,-0.103,-0.3753,-0.4696,-0.444,-1.134,-1.5833,-1.8398,-2.1646,-2.3917,-2.5279,-2.4851,-2.5039,-2.5422,-2.4335,-2.0931,-1.655,-1.5482,-1.0885,-0.5262,-0.4786,-0.3807,-0.2568,-0.1305,-0.0844,-0.1098,-0.1829,-0.1958,-0.0738,0.4441,0.3824,0.1355,0.0247,-0.0494,-0.1358,-0.2961,-0.3081,-0.3078,-0.4185,-0.5538,-0.6526,-0.6766,-0.7869,-0.8976,-0.9473,-1.0668,-1.1752,-1.2263,-1.3555,-1.4728,-1.5558,-1.6385,-1.7443,-1.8719,-1.908,-2.0235,-2.2402,-2.2523,-2.3743,-2.62,-2.6933,-2.7999,-2.9503,-3.0214,-3.0927,-3.1746,-3.3189,-3.4005,-3.4288,-3.4519,-3.4738,-3.503,-3.503,-3.4932,-3.4835,-3.5126,-3.5126,-3.503,-3.5126,-3.5223,-3.5223,-3.503,-3.5126,-3.5223,-3.503,-3.5126,-3.5223,4.0266,3.9985,3.9851,4.0698,4.1126,4.1279,4.0944,4.1139,4.1188,4.0613,4.0576,4.1056,4.2026,4.3521,4.4668,4.5113,4.5624,4.5379,4.4146,3.659,3.4775,4.0629,3.4698,2.7431,1.9446,1.0075,0.5284,0.5385,0.4363,0.4377,0.5116,0.4061,0.3738,0.3719,-0.2172,-0.6139,-0.8769,-1.4952,-1.9498,-2.2609,-2.3571,-2.4966,-2.6521,-2.7017,-2.2786,-1.6692,-1.7815,-1.289,-0.5714,-0.5148,-0.4417,-0.3303,-0.1204,-0.0244,-0.0,-0.0,-0.1107,-0.1596,0.2093,0.3081,0.2464,0.0493,-0.0,-0.0864,-0.3946,-0.382,-0.357,-0.5044,-0.5784,-0.6156,-0.6403,-0.7627,-0.8726,-0.8979,-1.0902,-1.2462,-1.2964,-1.4738,-1.6149,-1.6738,-1.7331,-1.826,-1.9421,-1.9537,-2.068,-2.3536,-2.3863,-2.5084,-2.7628,-2.8572,-2.9408,-3.0235,-3.196,-3.3078,-3.3598,-3.4617,-3.532,-3.562,-3.5416,-3.532,-3.532,-3.532,-3.5223,-3.503,-3.5416,-3.5524,-3.532,-3.5524,-3.562,-3.562,-3.532,-3.5428,-3.562,-3.532,-3.5416,-3.562,4.1697,4.1569,4.141,4.1523,4.2114,4.2603,4.2613,4.3063,4.3439,4.3559,4.39,4.4465,4.5354,4.6075,4.6826,4.765,4.5329,4.3663,4.3383,3.6065,3.215,3.2977,2.6526,2.316,2.3827,2.0342,1.8714,1.8994,1.4217,1.3529,1.6622,1.0597,0.8477,0.9326,0.6105,0.3305,0.0843,-0.3012,-0.7667,-1.2924,-1.6645,-2.3342,-3.0681,-2.6654,-2.4109,-2.1966,-1.6711,-1.1429,-0.6626,-0.4526,-0.3758,-0.3429,-0.2198,-0.0986,-0.0,-0.0,0.0369,-0.0123,-0.3936,-0.1107,0.2464,0.0493,-0.0,-0.0864,-0.4193,-0.5556,-0.6048,-0.5538,-0.5168,-0.5295,-0.628,-0.7253,-0.8355,-0.948,-1.1398,-1.2964,-1.4014,-1.5033,-1.6155,-1.767,-1.8389,-1.957,-2.1645,-2.1881,-2.2659,-2.4556,-2.5423,-2.6834,-2.887,-2.8784,-2.9618,-3.137,-3.2588,-3.33,-3.3598,-3.4617,-3.532,-3.562,-3.562,-3.562,-3.562,-3.562,-3.5524,-3.5512,-3.562,-3.562,-3.562,-3.562,-3.562,-3.562,-3.562,-3.562,-3.562,-3.562,-3.562,-3.562,4.2408,4.251,4.2569,4.2585,4.3266,4.377,4.37,4.4102,4.4521,4.4632,4.4691,4.5269,4.6644,4.7002,4.7333,4.7832,4.5389,4.3071,4.1233,3.6696,3.1891,2.7004,2.5401,2.3852,2.218,2.1017,2.0436,2.0246,1.8199,1.8109,1.9753,1.6787,1.5662,1.5916,1.2356,0.9481,0.7126,0.3869,0.0519,-0.2977,-0.4468,-0.8744,-1.3601,-0.8535,-0.6021,-0.447,0.1088,0.4598,0.6756,0.7651,0.6146,0.3773,0.2787,0.2933,0.269,-0.0,-0.1354,-0.1844,-0.0859,-0.0614,-0.0369,-0.0123,-0.0,-0.037,-0.1601,-0.5058,-0.7921,-0.7403,-0.6037,-0.5172,-0.6156,-0.7253,-0.823,-0.9345,-1.174,-1.378,-1.4416,-1.6183,-1.7818,-1.8978,-1.9455,-2.027,-2.1774,-2.2667,-2.3768,-2.4982,-2.6707,-2.8116,-2.9006,-3.0349,-3.1779,-3.3511,-3.4115,-3.4617,-3.4811,-3.5211,-3.5704,-3.6086,-3.5908,-3.5812,-3.5812,-3.5812,-3.5716,-3.562,-3.5991,-3.5991,-3.5812,-3.5991,-3.6086,-3.6086,-3.5908,-3.5908,-3.6086,-3.5908,-3.5908,-3.6086,4.3228,4.3321,4.3476,4.3719,4.4207,4.4554,4.4598,4.4921,4.5182,4.5258,4.5201,4.5772,4.7437,4.7126,4.7095,4.7811,4.5093,4.2502,4.0548,3.7347,3.2836,2.6806,2.7118,2.6476,2.4384,2.3422,2.2854,2.2589,2.1424,2.1041,2.1533,2.0372,2.0078,2.0357,1.7818,1.5946,1.4671,1.2068,0.9133,0.6093,0.5396,0.1661,-0.3017,0.0741,0.3768,0.6472,1.0201,1.2761,1.4521,1.4838,1.1976,0.7914,0.6753,0.6559,0.6202,0.3539,0.1591,0.1103,0.4046,0.2819,0.0736,0.0738,0.0369,-0.0,-0.0246,-0.3325,-0.6548,-0.8395,-0.7276,-0.6283,-0.7258,-0.798,-0.8948,-1.0297,-1.2817,-1.4728,-1.509,-1.6997,-1.8765,-2.0026,-2.0148,-2.0838,-2.2659,-2.332,-2.4317,-2.5634,-2.7454,-2.886,-2.9743,-3.1993,-3.3621,-3.4421,-3.5017,-3.5416,-3.5716,-3.5716,-3.5991,-3.6358,-3.6181,-3.6098,-3.6098,-3.6098,-3.6003,-3.5895,-3.6263,-3.6275,-3.6098,-3.637,-3.6358,-3.6358,-3.6193,-3.6275,-3.6358,-3.6193,-3.6275,-3.6358,4.428,4.4027,4.4063,4.4848,4.4822,4.4878,4.5429,4.5491,4.5535,4.5598,4.5659,4.6293,4.7904,4.6529,4.6202,4.7918,4.4213,4.1805,4.1741,3.7855,3.4804,3.3154,3.1258,3.08,3.1989,2.917,2.7825,2.8125,2.4161,2.2629,2.3035,2.1033,2.0861,2.203,2.2323,2.3088,2.4226,2.2398,1.8723,1.3954,1.1865,0.5442,-0.2966,-0.2863,0.1053,0.6491,0.6592,0.9565,1.3651,1.4778,1.1606,0.728,0.8394,0.92,0.9961,1.1319,1.0767,0.9839,0.9839,0.887,0.7025,0.356,0.1353,-0.0123,-0.0859,-0.0492,-0.1723,-0.788,-0.8885,-0.876,-0.9704,-0.9802,-1.0514,-1.2817,-1.451,-1.5833,-1.6419,-1.7373,-1.8765,-2.0902,-2.0364,-2.1274,-2.4846,-2.4078,-2.442,-2.6871,-2.7814,-2.9071,-3.1073,-3.3709,-3.4714,-3.3697,-3.4908,-3.5716,-3.6015,-3.6015,-3.6098,-3.6358,-3.6358,-3.6358,-3.6358,-3.6358,-3.6358,-3.6358,-3.6358,-3.6358,-3.6358,-3.6358,-3.6358,-3.6358,-3.6358,-3.6358,-3.6358,-3.6358,-3.6358,-3.6358,4.4716,4.4868,4.494,4.5057,4.5367,4.5601,4.5565,4.5643,4.5722,4.5799,4.5259,4.5353,4.6701,4.5486,4.4821,4.5431,4.3157,4.0716,3.8488,3.6105,3.4511,3.4063,3.2166,3.095,3.0512,2.8435,2.718,2.6907,2.4994,2.4436,2.4935,2.437,2.4333,2.4714,2.4384,2.4463,2.4745,2.4021,2.3242,2.2223,2.2002,2.0828,1.9642,2.3421,2.7145,3.092,3.4696,3.5063,3.3826,3.4178,3.0484,2.4699,1.8669,1.2873,0.8618,0.9882,1.003,1.0051,1.1675,1.1343,0.988,0.7028,0.5667,0.4062,0.0492,-0.0492,-0.1968,-0.6634,-0.8751,-0.9995,-1.0433,-1.088,-1.1583,-1.2937,-1.4862,-1.6301,-1.6419,-1.826,-1.9984,-2.1016,-2.1244,-2.2476,-2.5261,-2.538,-2.6027,-2.7999,-2.9807,-3.1677,-3.361,-3.4323,-3.4628,-3.4714,-3.5512,-3.592,-3.6015,-3.6015,-3.6098,-3.6358,-3.6358,-3.6358,-3.6358,-3.6358,-3.6358,-3.6358,-3.6358,-3.6358,-3.6358,-3.6358,-3.6358,-3.6358,-3.6358,-3.6358,-3.6358,-3.6358,-3.6358,-3.6358,4.5111,4.5426,4.5592,4.5473,4.5806,4.5996,4.5756,4.5789,4.5718,4.5356,4.482,4.4753,4.549,4.4527,4.3927,4.417,4.2239,3.9979,3.7539,3.6452,3.5749,3.5426,3.392,3.25,3.1168,3.0044,2.934,2.9076,2.7661,2.7212,2.7704,2.7044,2.7003,2.7588,2.7243,2.7399,2.7875,2.6941,2.6857,2.7139,2.6952,2.7455,2.8689,3.233,3.615,4.0141,4.4228,4.4238,4.2321,4.2441,3.8586,3.2367,2.4747,1.8728,1.4124,1.2816,1.2217,1.2371,1.3639,1.3184,1.1849,1.0358,0.8512,0.5916,0.1476,-0.0246,-0.2337,-0.6759,-0.8741,-0.9974,-1.0793,-1.1611,-1.2564,-1.3904,-1.5569,-1.6879,-1.7238,-1.8848,-2.0558,-2.2024,-2.2243,-2.3574,-2.6689,-2.6896,-2.764,-2.9472,-3.1462,-3.3212,-3.4421,-3.4726,-3.503,-3.5512,-3.5991,-3.6275,-3.6275,-3.637,-3.6465,-3.6358,-3.6452,-3.6452,-3.6452,-3.6546,-3.664,-3.6546,-3.6546,-3.6546,-3.6546,-3.6546,-3.6452,-3.6452,-3.664,-3.6546,-3.6452,-3.6452,-3.6452,-3.6358,4.5514,4.5755,4.601,4.6017,4.6092,4.6108,4.5939,4.5881,4.551,4.4526,4.4348,4.4304,4.4385,4.3625,4.3264,4.3623,4.1342,3.9388,3.8263,3.8127,3.772,3.6844,3.6029,3.4828,3.324,3.3068,3.2982,3.2982,3.0974,3.0224,3.073,2.9181,2.9181,3.0427,3.0594,3.1328,3.2364,3.0578,2.9839,2.9625,2.8605,2.8418,2.888,2.9817,3.3751,3.8982,4.0989,4.2157,4.2838,4.3077,3.9241,3.3484,2.8353,2.6031,2.406,1.8931,1.6773,1.6051,1.6051,1.461,1.3166,1.3036,1.01,0.6293,0.2576,0.0246,-0.2708,-0.7755,-0.8857,-0.9332,-1.1027,-1.2113,-1.3435,-1.5359,-1.6402,-1.7449,-1.8409,-1.9455,-2.1152,-2.371,-2.3574,-2.4887,-2.8794,-2.886,-2.9347,-3.1278,-3.2789,-3.3796,-3.4091,-3.5114,-3.5716,-3.6015,-3.6452,-3.6709,-3.6722,-3.7015,-3.6922,-3.6452,-3.6628,-3.6628,-3.6452,-3.6922,-3.7015,-3.6722,-3.6722,-3.6722,-3.6722,-3.6722,-3.6628,-3.6546,-3.6922,-3.6828,-3.6452,-3.6628,-3.6628,-3.6452,4.589,4.5988,4.6022,4.6148,4.6045,4.5959,4.591,4.5718,4.5303,4.4492,4.3818,4.3449,4.3527,4.2415,4.1609,4.1566,3.9738,3.8457,3.8202,3.7567,3.6766,3.5949,3.5695,3.5156,3.4147,3.2673,3.1901,3.1901,3.0777,3.0237,3.0328,3.0944,3.1692,3.2757,3.3025,3.3377,3.385,3.3013,3.2684,3.2819,3.3553,3.5192,3.7317,3.8169,4.1154,4.5,4.597,4.7482,4.8916,4.8579,4.4379,3.8873,3.6735,3.2509,2.7996,2.5857,2.2474,1.9381,1.9381,1.7208,1.4741,1.3463,1.1554,0.913,0.6124,0.0978,-0.3803,-0.5641,-0.8717,-1.1308,-1.1881,-1.2942,-1.4133,-1.5353,-1.7003,-1.8512,-1.9639,-2.1571,-2.3487,-2.5032,-2.5909,-2.7327,-2.9554,-3.0867,-3.1982,-3.3323,-3.393,-3.4421,-3.4908,-3.5512,-3.6003,-3.6263,-3.6534,-3.6815,-3.7015,-3.7108,-3.7015,-3.6922,-3.7015,-3.7015,-3.6922,-3.7015,-3.7108,-3.7015,-3.7015,-3.7015,-3.7015,-3.7015,-3.7015,-3.6922,-3.7015,-3.7015,-3.6922,-3.7015,-3.7015,-3.6922,4.6001,4.6078,4.609,4.6059,4.5968,4.5866,4.5727,4.5601,4.5105,4.3952,4.3375,4.2874,4.2362,4.1636,4.0978,4.0467,3.9088,3.8202,3.8202,3.781,3.7155,3.6281,3.6201,3.5803,3.5006,3.3972,3.3538,3.3538,3.2611,3.2426,3.2807,3.3152,3.3817,3.4749,3.5007,3.5251,3.5426,3.5319,3.5465,3.5833,3.7044,3.8796,4.0781,4.1659,4.3462,4.5703,4.7238,4.9079,5.0841,5.1397,4.8528,4.4086,4.0884,3.7161,3.316,2.9267,2.6057,2.3419,2.1055,1.9172,1.7307,1.4971,1.3764,1.1849,0.6962,0.1586,-0.2938,-0.5134,-0.8566,-1.1639,-1.247,-1.354,-1.4733,-1.5828,-1.7467,-1.908,-2.043,-2.2371,-2.4275,-2.6245,-2.722,-2.8628,-3.0888,-3.2128,-3.3323,-3.4507,-3.4726,-3.5211,-3.625,-3.6358,-3.6546,-3.7083,-3.7268,-3.7466,-3.7651,-3.7756,-3.7861,-3.7848,-3.7492,-3.7307,-3.7307,-3.7479,-3.7572,-3.7479,-3.7559,-3.7651,-3.7664,-3.7479,-3.74,-3.7307,-3.7413,-3.7307,-3.7108,-3.7214,-3.7214,-3.7015,4.6049,4.6091,4.6098,4.5929,4.5859,4.5761,4.5531,4.5362,4.4725,4.3295,4.2955,4.2435,4.1316,4.1049,4.0686,3.9939,3.8841,3.8202,3.8202,3.8202,3.781,3.6936,3.7014,3.6674,3.5869,3.5949,3.5935,3.5615,3.4924,3.4937,3.5615,3.5087,3.5345,3.6215,3.661,3.683,3.7049,3.742,3.7837,3.8381,3.9497,4.0781,4.2152,4.3106,4.4058,4.5146,4.7397,4.931,5.1029,5.2585,5.1359,4.8314,4.3482,4.1035,3.8793,3.2418,2.9682,2.7663,2.3275,2.1302,1.9784,1.6926,1.5823,1.3579,0.6948,0.305,-0.0489,-0.5127,-0.8921,-1.1744,-1.2942,-1.3904,-1.4981,-1.6295,-1.78,-1.9523,-2.1115,-2.2717,-2.4727,-2.7356,-2.8406,-2.987,-3.2398,-3.3135,-3.4028,-3.5271,-3.5391,-3.6061,-3.7453,-3.7083,-3.7176,-3.7821,-3.8109,-3.8291,-3.8395,-3.8682,-3.893,-3.893,-3.8385,-3.7964,-3.769,-3.8135,-3.8213,-3.8044,-3.8213,-3.8304,-3.8213,-3.8031,-3.7861,-3.7598,-3.7808,-3.7611,-3.7307,-3.7505,-3.7413,-3.7108,4.615,4.6045,4.5929,4.591,4.5703,4.5549,4.5513,4.4767,4.3932,4.3195,4.2425,4.1805,4.1344,4.0594,3.9971,3.9722,3.8797,3.8202,3.8202,3.8202,3.781,3.6936,3.7644,3.7644,3.6766,3.7477,3.7078,3.5615,3.5467,3.5467,3.5615,3.5548,3.6029,3.7049,3.7295,3.7846,3.8605,3.8839,3.9223,3.9795,4.0905,4.2555,4.444,4.5457,4.6739,4.8132,4.9277,5.0544,5.1755,5.2523,5.1724,4.9943,4.7338,4.5412,4.3425,4.0013,3.5849,3.1762,2.968,2.4858,2.021,1.9193,1.6609,1.3277,0.8799,0.7235,0.4171,-0.5145,-1.0333,-1.3305,-1.32,-1.3775,-1.4723,-1.6295,-1.8046,-1.9984,-2.2332,-2.413,-2.6145,-2.8581,-3.0432,-3.196,-3.33,-3.4115,-3.5005,-3.6036,-3.6332,-3.6803,-3.7453,-3.7638,-3.7808,-3.8109,-3.82,-3.8485,-3.9114,-3.969,-4.0038,-4.0246,-4.0489,-3.9838,-3.8421,-3.8512,-3.8512,-3.8512,-3.8512,-3.8512,-3.8512,-3.8304,-3.8122,-3.8122,-3.7979,-3.79,-3.7808,-3.7808,-3.7703,-3.7413,4.603,4.5963,4.5859,4.5703,4.5577,4.5342,4.4848,4.4384,4.3725,4.2613,4.2167,4.1903,4.1782,4.1196,4.0569,3.9849,3.9002,3.8427,3.8202,3.8202,3.8037,3.7644,3.7962,3.8037,3.7644,3.7962,3.772,3.6702,3.6439,3.6439,3.6702,3.6439,3.6688,3.7491,3.8219,3.8928,3.9474,3.9969,4.0821,4.1869,4.2731,4.399,4.5588,4.6704,4.7565,4.8436,5.0651,5.1848,5.2456,5.3071,5.2333,5.0874,4.9308,4.7687,4.5667,4.2322,3.9308,3.6001,3.1273,2.6361,2.2023,1.9742,1.634,1.2656,0.9179,0.5265,0.0735,-0.5007,-0.966,-1.2741,-1.331,-1.4495,-1.5908,-1.7295,-1.8487,-2.0766,-2.4726,-2.5737,-2.727,-3.0742,-3.2185,-3.3289,-3.4213,-3.4787,-3.5655,-3.6883,-3.7083,-3.7546,-3.8472,-3.8291,-3.8562,-3.9339,-3.9264,-3.9707,-4.0771,-4.0905,-4.121,-4.1674,-4.1848,-4.0987,-3.9264,-3.9264,-3.9077,-3.8756,-3.8948,-3.8948,-3.8948,-3.8652,-3.8549,-3.8562,-3.8226,-3.7979,-3.79,-3.79,-3.7808,-3.7755]},{"header":{"parameterUnit":"m.s-1","parameterCategory":1,"la1":30.6,"la2":28.766,"lo1":-90.7593,"lo2":-88.6598,"dy":0.0162,"dx":0.0183,"nx":116,"ny":114,"refTime":"2024-03-12T06:00:00:Z","depth":0,"parameterNumber":3,"parameterNumberName":"V-component_of_WINDS"},"data":[0.0,0.0,0.0,0.0,0.0,0.0,0.0,0.0,0.0,0.0,0.0,0.0,0.0,0.0,0.0,0.0,0.0,0.0,0.0,0.0,0.0,0.0,0.0,0.0,0.0,0.0,0.0,0.0,0.0,0.0,0.0,0.0,0.0,0.0,0.0,0.0,0.0,0.0,0.0,0.0,0.0,0.0,0.0,0.0,0.0,0.0,0.0,0.0,0.0,0.0,0.0,0.0,0.0,0.0,0.0,0.0,0.0,0.0,0.0,0.0,0.0,0.0,0.0,0.0,0.0,0.0,0.0,0.0,0.0,0.0,0.0,0.0,0.0,0.0,0.0,0.0,0.0,0.0,0.0,0.0,0.0,0.0,0.0,0.0,0.0,0.0,0.0,0.0,0.0,0.0,0.0,0.0,0.0,0.0,0.0,0.0,0.0,0.0,0.0,0.0,0.0,0.0,0.0,0.0,0.0,0.0,0.0,0.0,0.0,0.0,0.0,0.0,0.0,0.0,0.0,0.0,0.0,0.0,0.0,0.0,0.0,0.0,0.0,0.0,0.0,0.0,0.0,0.0,0.0,0.0,0.0,0.0,0.0,0.0,0.0,0.0,0.0,0.0,0.0,0.0,0.0,0.0,0.0,0.0,0.0,0.0,0.0,0.0,0.0,0.0,0.0,0.0,0.0,0.0,0.0,0.0,0.0,0.0,0.0,0.0,0.0,0.0,0.0,0.0,0.0,0.0,0.0,0.0,0.0,0.0,0.0,0.0,0.0,0.0,0.0,0.0,0.0,0.0,0.0,0.0,0.0,0.0,0.0,0.0,0.0,0.0,0.0,0.0,0.0,0.0,0.0,0.0,0.0,0.0,0.0,0.0,0.0,0.0,0.0,0.0,0.0,0.0,0.0,0.0,0.0,0.0,0.0,0.0,0.0,0.0,0.0,0.0,0.0,0.0,0.0,0.0,0.0,0.0,0.0,0.0,0.0,0.0,0.0,0.0,0.0,0.0,0.0,0.0,0.0,0.0,0.0,0.0,0.0,0.0,0.0,0.0,0.0,0.0,0.0,0.0,0.0,0.0,0.0,0.0,0.0,0.0,0.0,0.0,0.0,0.0,0.0,0.0,0.0,0.0,0.0,0.0,0.0,0.0,0.0,0.0,0.0,0.0,0.0,0.0,0.0,0.0,0.0,0.0,0.0,0.0,0.0,0.0,0.0,0.0,0.0,0.0,0.0,0.0,0.0,0.0,0.0,0.0,0.0,0.0,0.0,0.0,0.0,0.0,0.0,0.0,0.0,0.0,0.0,0.0,0.0,0.0,0.0,0.0,0.0,0.0,0.0,0.0,0.0,0.0,0.0,0.0,0.0,0.0,0.0,0.0,0.0,0.0,0.0,0.0,0.0,0.0,0.0,0.0,0.0,0.0,0.0,0.0,0.0,0.0,0.0,0.0,0.0,0.0,0.0,0.0,0.0,0.0,0.0,0.0,0.0,0.0,0.0,0.0,0.0,0.0,0.0,0.0,0.0,0.0,0.0,0.0,0.0,0.0,0.0,0.0,0.0,0.0,0.0,0.0,0.0,0.0,0.0,0.0,0.0,0.0,0.0,0.0,0.0,0.0,0.0,0.0,0.0,0.0,0.0,0.0,0.0,0.0,0.0,0.0,0.0,0.0,0.0,0.0,0.0,0.0,0.0,0.0,0.0,0.0,0.0,0.0,0.0,0.0,0.0,0.0,0.0,0.0,0.0,0.0,0.0,0.0,0.0,0.0,0.0,0.0,0.0,0.0,0.0,0.0,0.0,0.0,0.0,0.0,0.0,0.0,0.0,0.0,0.0,0.0,0.0,0.0,0.0,0.0,0.0,0.0,0.0,0.0,0.0,0.0,0.0,0.0,0.0,0.0,0.0,0.0,0.0,0.0,0.0,0.0,0.0,0.0,0.0,0.0,0.0,0.0,0.0,0.0,0.0,0.0,0.0,0.0,0.0,0.0,0.0,0.0,0.0,0.0,0.0,0.0,0.0,0.0,0.0,0.0,0.0,0.0,0.0,0.0,0.0,0.0,0.0,0.0,0.0,0.0,0.0,0.0,0.0,0.0,0.0,0.0,0.0,0.0,0.0,0.0,0.0,0.0,0.0,0.0,0.0,0.0,0.0,0.0,0.0,0.0,0.0,0.0,0.0,0.0,0.0,0.0,0.0,0.0,0.0,0.0,0.0,0.0,0.0,0.0,0.0,0.0,0.0,0.0,0.0,0.0,0.0,0.0,0.0,0.0,0.0,0.0,0.0,0.0,0.0,0.0,0.0,0.0,0.0,0.0,0.0,0.0,0.0,0.0,0.0,0.0,0.0,0.0,0.0,0.0,0.0,0.0,0.0,0.0,0.0,0.0,0.0,0.0,0.0,0.0,0.0,0.0,0.0,0.0,0.0,0.0,0.0,0.0,0.0,0.0,0.0,0.0,0.0,0.0,0.0,0.0,0.0,0.0,0.0,0.0,0.0,0.0,0.0,0.0,0.0,0.0,0.0,0.0,0.0,0.0,0.0,0.0,0.0,0.0,0.0,0.0,0.0,0.0,0.0,0.0,0.0,0.0,0.0,0.0,0.0,0.0,0.0,0.0,0.0,0.0,0.0,0.0,0.0,0.0,0.0,0.0,0.0,0.0,0.0,0.0,0.0,0.0,0.0,0.0,0.0,0.0,0.0,0.0,0.0,0.0,0.0,0.0,0.0,0.0,0.0,0.0,0.0,0.0,0.0,0.0,0.0,0.0,0.0,0.0,0.0,0.0,0.0,0.0,0.0,0.0,0.0,0.0,0.0,0.0,0.0,0.0,0.0,0.0,0.0,0.0,0.0,0.0,0.0,0.0,0.0,0.0,0.0,0.0,0.0,0.0,0.0,0.0,0.0,0.0,0.0,0.0,0.0,0.0,0.0,0.0,0.0,0.0,0.0,0.0,0.0,0.0,0.0,0.0,0.0,0.0,0.0,0.0,0.0,0.0,0.0,0.0,0.0,0.0,0.0,0.0,0.0,0.0,0.0,0.0,0.0,0.0,0.0,0.0,0.0,0.0,0.0,0.0,0.0,0.0,0.0,0.0,0.0,0.0,0.0,0.0,0.0,0.0,0.0,0.0,0.0,0.0,0.0,0.0,0.0,0.0,0.0,0.0,0.0,0.0,0.0,0.0,0.0,0.0,0.0,0.0,0.0,0.0,0.0,0.0,0.0,0.0,0.0,0.0,0.0,0.0,0.0,0.0,0.0,0.0,0.0,0.0,0.0,0.0,0.0,0.0,0.0,0.0,0.0,0.0,0.0,0.0,0.0,0.0,0.0,0.0,0.0,0.0,0.0,0.0,0.0,0.0,0.0,0.0,0.0,0.0,0.0,0.0,0.0,0.0,0.0,0.0,0.0,0.0,0.0,0.0,0.0,0.0,0.0,0.0,0.0,0.0,0.0,0.0,0.0,0.0,0.0,0.0,0.0,0.0,0.0,0.0,0.0,0.0,0.0,0.0,0.0,0.0,0.0,0.0,0.0,0.0,0.0,0.0,0.0,0.0,0.0,0.0,0.0,0.0,0.0,0.0,0.0,0.0,0.0,0.0,0.0,0.0,0.0,0.0,0.0,0.0,0.0,0.0,0.0,0.0,0.0,0.0,0.0,0.0,0.0,0.0,0.0,0.0,0.0,0.0,0.0,0.0,0.0,0.0,0.0,0.0,0.0,0.0,0.0,0.0,0.0,0.0,0.0,0.0,0.0,0.0,0.0,0.0,0.0,0.0,0.0,0.0,0.0,0.0,0.0,0.0,0.0,0.0,0.0,0.0,0.0,0.0,0.0,0.0,0.0,0.0,0.0,0.0,0.0,0.0,0.0,0.0,0.0,0.0,0.0,0.0,0.0,0.0,0.0,0.0,0.0,0.0,0.0,0.0,0.0,0.0,0.0,0.0,0.0,0.0,0.0,0.0,0.0,0.0,0.0,0.0,0.0,0.0,0.0,0.0,0.0,0.0,0.0,0.0,0.0,0.0,0.0,0.0,0.0,0.0,0.0,0.0,0.0,0.0,0.0,0.0,0.0,0.0,0.0,0.0,0.0,0.0,0.0,0.0,0.0,0.0,0.0,0.0,0.0,0.0,0.0,0.0,0.0,0.0,0.0,0.0,0.0,0.0,0.0,0.0,0.0,0.0,0.0,0.0,0.0,0.0,0.0,0.0,0.0,0.0,0.0,0.0,0.0,0.0,0.0,0.0,0.0,0.0,0.0,0.0,0.0,0.0,0.0,0.0,0.0,0.0,0.0,0.0,0.0,0.0,0.0,0.0,0.0,0.0,0.0,0.0,0.0,0.0,0.0,0.0,0.0,0.0,0.0,0.0,0.0,0.0,0.0,0.0,0.0,0.0,0.0,0.0,0.0,0.0,0.0,0.0,0.0,0.0,0.0,0.0,0.0,0.0,0.0,0.0,0.0,0.0,0.0,0.0,0.0,0.0,0.0,0.0,0.0,0.0,0.0,0.0,0.0,0.0,0.0,0.0,0.0,0.0,0.0,0.0,0.0,0.0,0.0,0.0,0.0,0.0,0.0,0.0,0.0,0.0,0.0,0.0,0.0,0.0,0.0,0.0,0.0,0.0,0.0,0.0,0.0,0.0,0.0,0.0,0.0,0.0,0.0,0.0,0.0,0.0,0.0,0.0,0.0,0.0,0.0,0.0,0.0,0.0,0.0,0.0,0.0,0.0,0.0,0.0,0.0,0.0,0.0,0.0,0.0,0.0,0.0,0.0,0.0,0.0,0.0,0.0,0.0,0.0,0.0,0.0,0.0,0.0,0.0,0.0,0.0,0.0,0.0,0.0,0.0,0.0,0.0,0.0,0.0,0.0,0.0,0.0,0.0,0.0,0.0,0.0,0.0,0.0,0.0,0.0,0.0,0.0,0.0,0.0,0.0,0.0,0.0,0.0,0.0,0.0,0.0,0.0,0.0,0.0,0.0,0.0,0.0,0.0,0.0,0.0,0.0,0.0,0.0,0.0,0.0,0.0,0.0,0.0,0.0,0.0,0.0,0.0,0.0,0.0,0.0,0.0,0.0,0.0,0.0,0.0,0.0,0.0,0.0,0.0,0.0,0.0,0.0,0.0,0.0,0.0,0.0,0.0,0.0,0.0,0.0,0.0,0.0,0.0,0.0,0.0,0.0,0.0,0.0,0.0,0.0,0.0,0.0,0.0,0.0,0.0,0.0,0.0,0.0,0.0,0.0,0.0,0.0,0.0,0.0,0.0,0.0,0.0,0.0,0.0,0.0,0.0,0.0,0.0,0.0,0.0,0.0,0.0,0.0,0.0,0.0,0.0,0.0,0.0,0.0,0.0,0.0,0.0,0.0,0.0,0.0,0.0,0.0,0.0,0.0,0.0,0.0,0.0,0.0,0.0,0.0,0.0,0.0,0.0,0.0,0.0,0.0,0.0,0.0,0.0,0.0,0.0,0.0,0.0,0.0,0.0,0.0,0.0,0.0,0.0,0.0,0.0,0.0,0.0,0.0,0.0,0.0,0.0,0.0,0.0,0.0,0.0,0.0,0.0,0.0,0.0,0.0,0.0,0.0,0.0,0.0,0.0,0.0,0.0,0.0,0.0,0.0,0.0,0.0,0.0,0.0,0.0,0.0,0.0,0.0,0.0,0.0,0.0,0.0,0.0,0.0,0.0,0.0,0.0,0.0,0.0,0.0,0.0,0.0,0.0,0.0,0.0,0.0,0.0,0.0,0.0,0.0,0.0,0.0,0.0,0.0,0.0,0.0,0.0,0.0,0.0,0.0,0.0,0.0,0.0,0.0,0.0,0.0,0.0,0.0,0.0,0.0,0.0,0.0,0.0,0.0,0.0,0.0,0.0,0.0,0.0,0.0,0.0,0.0,0.0,0.0,0.0,0.0,0.0,0.0,0.0,0.0,0.0,0.0,0.0,0.0,0.0,0.0,0.0,0.0,0.0,0.0,0.0,0.0,0.0,0.0,0.0,0.0,0.0,0.0,0.0,0.0,0.0,0.0,0.0,0.0,0.0,0.0,0.0,0.0,0.0,0.0,0.0,0.0,0.0,0.0,0.0,0.0,0.0,0.0,0.0,-4.1878,-4.0943,0.0,0.0,0.0,0.0,0.0,0.0,0.0,0.0,0.0,0.0,0.0,0.0,0.0,0.0,0.0,0.0,0.0,0.0,0.0,0.0,0.0,0.0,0.0,0.0,0.0,0.0,-0.323,-0.323,-0.323,-0.323,-0.343,-0.3932,-0.4533,-0.5033,-0.5529,-0.6124,-0.6623,-0.712,-0.712,-0.8308,-1.0378,-1.028,-1.0288,-1.0306,0.0,0.0,0.0,0.0,0.0,0.0,0.0,0.0,0.0,0.0,0.0,0.0,0.0,0.0,0.0,0.0,0.0,0.0,0.0,0.0,0.0,0.0,0.0,0.0,0.0,0.0,0.0,0.0,0.0,0.0,0.0,0.0,0.0,0.0,0.0,0.0,0.0,0.0,0.0,0.0,0.0,0.0,0.0,0.0,0.0,0.0,0.0,0.0,0.0,0.0,0.0,0.0,0.0,0.0,0.0,0.0,0.0,0.0,0.0,0.0,0.0,0.0,0.0,0.0,0.0,0.0,0.0,0.0,0.0,0.0,-4.4189,-4.3399,0.0,0.0,0.0,0.0,0.0,0.0,0.0,0.0,0.0,0.0,0.0,0.0,0.0,0.0,0.0,0.0,0.0,0.0,0.0,0.0,0.0,0.0,0.0,-0.383,-0.383,-0.3731,-0.3731,-0.3731,-0.3731,-0.3731,-0.4131,-0.5033,-0.5233,-0.5732,-0.6623,-0.6822,-0.7518,-0.8513,-0.8905,-0.9985,-1.176,-1.263,-1.2538,-1.1658,-1.0596,0.0,0.0,0.0,0.0,0.0,0.0,0.0,0.0,0.0,0.0,0.0,0.0,0.0,0.0,0.0,0.0,0.0,0.0,0.0,0.0,0.0,0.0,0.0,0.0,0.0,0.0,0.0,0.0,0.0,0.0,0.0,0.0,0.0,0.0,0.0,0.0,0.0,0.0,0.0,0.0,0.0,0.0,0.0,0.0,0.0,0.0,0.0,0.0,0.0,0.0,0.0,0.0,0.0,0.0,0.0,0.0,0.0,0.0,0.0,0.0,0.0,0.0,0.0,-4.5036,-4.5794,-4.5847,-4.6907,-4.7532,-4.7728,-4.6563,-4.6369,-4.6899,-4.6877,0.0,0.0,0.0,0.0,0.0,0.0,0.0,0.0,0.0,0.0,0.0,0.0,0.0,0.0,0.0,0.0,0.0,0.0,0.0,0.0,0.0,-0.6318,-0.6218,-0.6024,-0.6024,-0.6024,-0.6024,-0.6024,-0.6024,-0.6224,-0.7123,-0.7624,-0.7822,-0.8722,-0.971,-1.0779,-1.263,-1.3607,-1.3902,-1.4004,-1.4004,-1.3806,-1.2732,-1.2339,-1.2533,0.0,0.0,0.0,0.0,0.0,0.0,0.0,0.0,0.0,0.0,0.0,0.0,0.0,0.0,0.0,0.0,0.0,0.0,0.0,0.0,0.0,0.0,0.0,0.0,0.0,0.0,0.0,0.0,0.0,0.0,0.0,0.0,0.0,0.0,0.0,0.0,0.0,0.0,0.0,0.0,0.0,-3.2738,-3.3136,0.0,0.0,0.0,0.0,0.0,0.0,0.0,0.0,0.0,0.0,0.0,0.0,0.0,-4.3026,-4.509,-4.5522,-4.6311,-4.7439,-4.7926,-4.8187,-4.8248,-4.8412,-4.8535,-4.8669,-4.9224,0.0,-4.8059,-4.7942,0.0,0.0,0.0,0.0,0.0,0.0,0.0,0.0,0.0,0.0,0.0,0.0,0.0,0.0,0.0,0.0,0.0,0.0,0.0,0.0,0.0,-0.6816,-0.6716,-0.642,-0.6423,-0.6423,-0.6423,-0.6423,-0.6623,-0.7322,-0.7723,-0.8322,-0.8924,-0.9908,-1.0979,-1.2047,-1.3698,-1.4478,-1.4573,-1.5248,-1.59,-1.6351,-1.5324,-1.4465,-1.3788,-1.3788,0.0,0.0,0.0,0.0,0.0,0.0,0.0,0.0,0.0,0.0,0.0,0.0,0.0,0.0,0.0,0.0,0.0,0.0,0.0,0.0,0.0,0.0,0.0,0.0,0.0,0.0,0.0,0.0,0.0,0.0,0.0,0.0,0.0,0.0,0.0,0.0,0.0,0.0,0.0,-3.4814,-3.6551,-3.7442,-3.6783,-3.6261,0.0,0.0,0.0,0.0,0.0,0.0,0.0,0.0,0.0,-4.4383,-4.5226,-4.6234,-4.7423,-4.7574,-4.7947,-4.8531,-4.9076,-4.9394,-4.9508,-4.9884,-5.0121,-5.0282,-5.0635,-5.0455,-4.9916,-4.9832,-4.9791,-4.979,0.0,0.0,0.0,0.0,-5.0836,-5.0816,0.0,0.0,0.0,0.0,0.0,0.0,0.0,0.0,0.0,0.0,0.0,0.0,-0.7809,-0.7809,-0.7614,-0.7319,-0.7223,-0.7223,-0.7223,-0.7319,-0.772,-0.852,-0.8619,-0.9114,-1.0207,-1.1468,-1.2528,-1.3307,-1.4629,-1.5434,-1.5714,-1.6756,-1.7742,-1.866,-1.8018,-1.6978,-1.5873,-1.569,-1.6312,-1.7537,0.0,0.0,0.0,0.0,0.0,0.0,0.0,0.0,0.0,0.0,0.0,0.0,0.0,0.0,0.0,0.0,0.0,0.0,0.0,0.0,0.0,0.0,0.0,0.0,0.0,0.0,0.0,0.0,0.0,0.0,0.0,0.0,0.0,0.0,0.0,0.0,0.0,-3.8421,-4.0155,-4.1481,-4.0971,-4.0534,0.0,0.0,0.0,0.0,0.0,0.0,-4.3672,-4.5272,-4.6367,-4.6826,-4.7752,-4.8475,-4.8958,-4.8945,-4.9059,-4.932,-4.9906,-5.0217,-5.0326,-5.087,-5.1171,-5.1316,-5.1265,-5.1219,-5.118,-5.1137,-5.1127,-5.1093,-5.0942,-5.0848,-5.0819,-5.0915,-5.0937,-5.0928,0.0,0.0,0.0,0.0,0.0,0.0,0.0,0.0,0.0,0.0,0.0,-0.9497,-1.0502,-1.0408,-1.0113,-0.9817,-0.9624,-0.9426,-0.9426,-0.9723,-0.9817,-0.992,-1.0113,-1.0792,-1.1755,-1.3782,-1.4848,-1.4854,-1.6292,-1.7491,-1.8522,-1.8842,-1.9668,-2.0616,-2.0608,-2.0132,-1.9214,-1.8211,-1.8776,-2.0212,-1.9194,0.0,0.0,0.0,0.0,0.0,0.0,0.0,0.0,0.0,0.0,0.0,0.0,0.0,0.0,0.0,0.0,0.0,0.0,0.0,0.0,0.0,0.0,0.0,0.0,0.0,0.0,0.0,0.0,0.0,0.0,0.0,0.0,0.0,0.0,0.0,0.0,0.0,0.0,-4.4069,-4.3521,0.0,0.0,0.0,0.0,-4.506,-4.5774,-4.6561,-4.7478,-4.7455,-4.7676,-4.828,-4.8354,-4.8788,-4.964,-4.9594,-4.9951,-5.0705,-5.0869,-5.092,-5.0875,-5.1023,-5.1105,-5.1117,-5.1117,-5.1105,-5.1117,-5.118,-5.1159,-5.1109,-5.1096,-5.1084,-5.1086,-5.1088,-5.1128,-5.1178,0.0,0.0,0.0,0.0,0.0,0.0,0.0,0.0,-1.0203,-1.0703,-1.06,-1.0596,-1.0801,-1.0609,-1.0314,-1.0019,-0.9727,-0.9916,-1.0788,-1.0306,-1.0404,-1.1179,-1.1505,-1.2908,-1.5515,-1.5652,-1.6626,-1.8739,-1.8707,-1.926,-2.0309,-2.0528,-2.1249,-2.2209,-2.1536,-2.1766,-2.2548,-2.0763,-2.047,-2.1156,-2.0682,-2.0523,0.0,0.0,0.0,0.0,0.0,0.0,0.0,0.0,0.0,0.0,0.0,0.0,0.0,0.0,0.0,0.0,0.0,0.0,0.0,0.0,0.0,0.0,0.0,0.0,0.0,0.0,0.0,0.0,0.0,0.0,0.0,0.0,0.0,0.0,0.0,0.0,0.0,-4.5841,-4.6003,0.0,-4.5978,-4.6181,-4.6429,-4.6676,-4.7263,-4.777,-4.8094,-4.8596,-4.8943,-4.9165,-4.9664,-5.0085,-5.0395,-5.0441,-5.0571,-5.0854,-5.0912,-5.0978,-5.103,-5.0984,-5.1017,-5.1105,-5.1056,-5.1043,-5.103,-5.1004,-5.103,-5.1103,-5.1103,-5.1064,-5.1044,-5.1039,-5.1011,-5.0998,0.0,0.0,0.0,0.0,0.0,0.0,0.0,0.0,-1.1194,-1.1194,-1.1194,-1.1096,-1.0998,-1.0766,-1.0514,-1.0414,-1.0562,-1.0893,-1.1392,-1.1197,-1.1392,-1.2277,-1.3308,-1.5152,-1.781,-1.7534,-1.8513,-2.105,-2.0613,-2.0873,-2.204,-2.2259,-2.2907,-2.389,-2.3204,-2.3595,-2.4769,-2.3395,-2.2826,-2.2795,-2.2414,-2.2259,-2.2107,0.0,0.0,0.0,0.0,0.0,0.0,0.0,0.0,0.0,0.0,0.0,0.0,0.0,0.0,0.0,0.0,0.0,0.0,0.0,0.0,0.0,0.0,0.0,0.0,0.0,0.0,0.0,0.0,0.0,0.0,0.0,0.0,0.0,0.0,-4.5922,-4.7209,-4.7171,-4.7639,-4.7831,-4.75,-4.7939,-4.8187,-4.8075,-4.8517,-4.8796,-4.8862,-4.9346,-4.9643,-4.9701,-5.0316,-5.0621,-5.0601,-5.0687,-5.0723,-5.0709,-5.0797,-5.0898,-5.0956,-5.0917,-5.0966,-5.103,-5.099,-5.0961,-5.0961,-5.0921,-5.0947,-5.103,-5.103,-5.1023,-5.0986,-5.0975,-5.0945,-5.0893,0.0,0.0,0.0,0.0,0.0,0.0,0.0,-1.1198,-1.1203,-1.1203,-1.1208,-1.1311,-1.1311,-1.1202,-1.1222,-1.1222,-1.2191,-1.2299,-1.1191,-1.2422,-1.3146,-1.3254,-1.5582,-1.7378,-1.8535,-1.9447,-2.0531,-2.1674,-2.195,-2.262,-2.3703,-2.4003,-2.4707,-2.5732,-2.5732,-2.5732,-2.5732,-2.6004,-2.5948,-2.556,-2.4393,-2.4341,-2.4786,0.0,0.0,0.0,0.0,0.0,0.0,0.0,0.0,0.0,0.0,0.0,0.0,0.0,0.0,0.0,0.0,0.0,0.0,0.0,0.0,0.0,0.0,0.0,0.0,0.0,0.0,0.0,0.0,0.0,0.0,0.0,0.0,0.0,-4.6588,-4.7074,-4.7757,-4.8127,-4.8417,-4.8535,-4.8463,-4.911,-4.9505,-4.9433,-4.9616,-4.9808,-4.9993,-4.9749,-4.9712,-4.991,-5.0169,-5.0278,-5.0188,-5.0329,-5.0371,-5.0325,-5.0645,-5.0775,-5.0701,-5.0841,-5.089,-5.089,-5.089,-5.089,-5.089,-5.089,-5.089,-5.089,-5.089,-5.0893,-5.0899,-5.0899,-5.0899,-5.0899,0.0,0.0,0.0,0.0,0.0,0.0,0.0,-1.1331,-1.143,-1.143,-1.2254,-1.2856,-1.2856,-1.3404,-1.374,-1.374,-1.3892,-1.423,-1.485,-1.4546,-1.4838,-1.6068,-1.7583,-1.929,-2.1354,-2.167,-2.2679,-2.4572,-2.3877,-2.403,-2.515,-2.5168,-2.5518,-2.6004,-2.6004,-2.6466,-2.7284,-2.6668,-2.7232,-2.8473,-2.655,-2.5596,-2.5178,0.0,0.0,0.0,0.0,0.0,0.0,0.0,0.0,0.0,0.0,0.0,0.0,0.0,0.0,0.0,0.0,0.0,0.0,0.0,0.0,0.0,0.0,0.0,0.0,0.0,0.0,0.0,0.0,0.0,0.0,0.0,-4.9334,-4.989,-4.9003,-4.963,-5.0187,-5.0204,-5.0216,-5.0118,-4.9806,-5.0048,-5.0138,-4.9927,-5.0179,-5.0333,-5.0306,-5.0169,-5.012,-5.012,-5.0236,-5.0302,-5.0278,-5.0504,-5.0606,-5.0606,-5.0791,-5.0861,-5.0846,-5.088,-5.0861,-5.0827,-5.0827,-5.0844,-5.0897,-5.0844,-5.0844,-5.0897,-5.0897,-5.0897,-5.0899,-5.0793,-5.0757,-5.0834,0.0,0.0,0.0,0.0,0.0,0.0,0.0,-1.1961,-1.2349,-1.2349,-1.3464,-1.4259,-1.4259,-1.4753,-1.5125,-1.5125,-1.5536,-1.5906,-1.6221,-1.6015,-1.66,-1.8004,-1.9132,-2.0833,-2.3085,-2.3185,-2.3998,-2.5742,-2.5118,-2.5109,-2.5917,-2.5917,-2.6187,-2.6829,-2.6829,-2.7474,-2.8473,-2.8038,-2.8588,-2.9681,-2.8505,-2.7757,-2.7442,-2.7974,-2.7495,-2.6938,-2.8707,-2.8984,-2.88,-3.0427,0.0,0.0,0.0,0.0,0.0,0.0,0.0,0.0,0.0,0.0,0.0,0.0,0.0,0.0,0.0,0.0,0.0,0.0,0.0,0.0,0.0,0.0,0.0,0.0,-5.022,-5.0782,-5.0449,-5.0841,-5.1132,-5.1083,-5.0992,-5.08,-5.0548,-5.0525,-5.0459,-5.0245,-5.0287,-5.024,-5.012,-5.0149,-5.0125,-5.0025,-5.0264,-5.0355,-5.0333,-5.0567,-5.0701,-5.0701,-5.0844,-5.0897,-5.0899,-5.0863,-5.0846,-5.0793,-5.0793,-5.081,-5.0863,-5.0893,-5.0925,-5.0925,0.0,0.0,0.0,0.0,-5.0895,-5.1221,0.0,0.0,0.0,0.0,0.0,0.0,0.0,-1.3064,-1.3696,-1.3696,-1.473,-1.546,-1.546,-1.5875,-1.6031,-1.5933,-1.7206,-1.7569,-1.6493,-1.7555,-1.8603,-1.9502,-2.0656,-2.2181,-2.4088,-2.4196,-2.4707,-2.5742,-2.5732,-2.5917,-2.61,-2.6284,-2.6914,-2.7923,-2.81,-2.8659,-2.9681,-2.9772,-2.9943,-3.0214,-3.0339,-3.0351,-3.026,-3.0351,-3.0351,-3.0339,-3.0676,-3.0843,-3.0986,-3.2192,0.0,0.0,0.0,0.0,0.0,0.0,0.0,0.0,0.0,0.0,0.0,0.0,0.0,0.0,0.0,0.0,0.0,0.0,0.0,0.0,0.0,0.0,0.0,0.0,-5.0782,-5.126,-5.1142,-5.1121,-5.1117,-5.1152,-5.1018,-5.0874,-5.0805,-5.0701,-5.0585,-5.0481,-5.0155,-4.9917,-4.983,-4.9943,0.0,0.0,0.0,-5.0507,-5.0425,-5.0625,-5.072,-5.072,-5.0863,-5.0916,-5.0899,-5.0827,-5.081,-5.0793,-5.0793,-5.0793,-5.081,-5.0932,-5.1004,-5.1004,-5.0874,-5.0775,-5.0682,-5.0682,-5.1164,-5.1813,0.0,0.0,0.0,0.0,0.0,0.0,0.0,-1.4836,-1.508,-1.508,-1.6314,-1.7088,-1.7088,-1.8786,-1.9545,-1.8643,-1.962,-2.0158,-1.9937,-2.0955,-2.1667,-2.187,-2.2876,-2.3692,-2.4088,-2.4913,-2.5528,-2.5742,-2.5917,-2.6004,-2.6091,-2.7105,-2.784,-2.8215,-2.9039,-3.0045,-3.1158,-3.0429,-3.1146,-3.2661,-3.1977,-3.1158,-3.0496,-3.1335,-3.1235,-3.092,-3.2451,-3.3016,-3.3183,-3.4753,-3.5833,-3.6739,-3.8121,-3.8716,0.0,0.0,0.0,0.0,0.0,0.0,0.0,0.0,0.0,0.0,0.0,0.0,0.0,0.0,0.0,0.0,0.0,0.0,0.0,-5.0761,-5.1054,-5.1308,-5.1346,-5.1249,-5.1132,-5.0977,-5.0971,-5.0925,-5.0803,-5.0879,-5.0889,-5.0816,-5.0587,-5.0469,-5.0509,-5.0339,-5.0287,-5.0361,-5.0567,-5.0664,-5.0644,-5.0791,-5.0858,-5.0858,-5.1,0.0,-5.081,-5.0851,-5.0822,-5.0721,-5.0721,-5.0721,-5.072,-5.0855,-5.0951,-5.0991,-5.0903,-5.0805,-5.0702,-5.0643,-5.1123,-5.1888,0.0,0.0,0.0,0.0,0.0,0.0,0.0,-1.6106,-1.6514,-1.6514,-1.8095,-1.9235,-1.9235,-2.0767,-2.1489,-2.0987,-2.1387,-2.1684,-2.1684,-2.2291,-2.2985,-2.3493,-2.4187,-2.4786,-2.5294,-2.581,-2.612,-2.612,-2.6207,-2.6572,-2.721,-2.784,-2.8762,-2.9966,-3.0508,-3.1335,-3.2513,-3.1965,-3.2735,-3.4191,-3.3661,-3.3526,-3.3533,-3.3538,-3.35,-3.3688,-3.4775,-3.5102,-3.5278,-3.702,-3.8194,-3.9249,-4.1062,-4.1662,-4.1725,0.0,0.0,0.0,0.0,0.0,0.0,0.0,0.0,0.0,0.0,0.0,0.0,0.0,0.0,-5.1792,-5.2155,0.0,-5.2399,-5.2448,-5.2558,-5.2635,-5.2603,-5.2508,-5.2095,-5.1159,-5.1023,-5.0956,-5.0863,-5.0903,-5.0903,-5.0813,-5.0715,-5.0643,-5.0606,-5.0567,-5.0566,-5.0606,-5.0795,-5.0904,-5.0904,-5.1009,-5.1053,-5.1062,-5.1076,-5.1043,-5.0937,-5.0959,-5.0898,-5.0848,-5.0848,-5.0863,-5.0874,-5.0979,-5.1035,-5.0991,-5.0972,-5.0883,-5.0777,-5.1085,-5.1694,-5.2452,0.0,0.0,0.0,0.0,0.0,0.0,0.0,-1.7358,-1.8003,-1.8199,-1.965,-2.0688,-2.0885,-2.1684,-2.2282,-2.2484,-2.2484,-2.2593,-2.2785,-2.3285,-2.389,-2.4786,-2.5089,-2.5596,-2.6496,-2.6496,-2.6496,-2.6496,-2.6774,-2.7315,-2.8319,-2.8773,-2.9886,-3.1725,-3.1889,-3.2513,-3.3471,-3.3641,-3.4191,-3.5061,-3.5224,-3.5935,-3.6816,-3.5949,-3.5922,-3.6448,-3.6632,-3.693,-3.7425,-3.9125,-4.0337,-4.1452,-4.3431,-4.4198,-4.4356,-4.4226,-4.4761,0.0,0.0,0.0,0.0,0.0,0.0,0.0,0.0,-5.2391,-5.2363,-5.3222,-5.3372,-5.346,-5.3793,-5.383,-5.3861,-5.3979,-5.3996,-5.3949,-5.3833,-5.3759,-5.3234,-5.1888,-5.1472,-5.1205,-5.0984,-5.0965,-5.0918,-5.0813,-5.0748,-5.0678,-5.0587,-5.07,-5.0775,-5.0776,-5.0977,-5.1111,-5.1111,-5.1164,-5.1199,-5.1208,-5.1169,-5.1131,-5.1092,-5.1061,-5.1031,-5.1008,-5.1008,-5.102,-5.1042,-5.1123,-5.1103,-5.1016,-5.0953,-5.0971,-5.108,-5.1585,-5.2264,-5.3034,0.0,0.0,0.0,0.0,0.0,0.0,0.0,0.0,-1.9472,-2.0372,-1.9879,-1.9879,-2.0783,-2.0987,-2.1489,-2.2383,-2.2484,-2.2885,-2.389,-2.5089,-2.579,-2.5897,-2.6197,-2.64,-2.6496,-2.6496,-2.6496,-2.6496,-2.7589,-2.8143,-2.8319,-3.0339,-3.1524,-3.1977,-3.2871,-3.3386,-3.3713,-3.4511,-3.4979,-3.5305,-3.6094,-3.7049,-3.8037,-3.7886,-3.7539,-3.7112,-3.7127,-3.8103,-3.9551,-4.0868,-4.2242,-4.3664,-4.5041,-4.5979,-4.6429,-4.5754,-4.6559,-4.7469,-4.6803,-4.8378,-5.0525,-5.1882,-5.2471,-5.3092,0.0,-5.463,-5.4753,-5.5917,-5.6112,-5.5872,-5.5226,-5.5054,-5.478,-5.4118,-5.3961,-5.3904,-5.3897,-5.3878,-5.3813,-5.3623,-5.2844,-5.2027,-5.1236,-5.1181,-5.1152,-5.1161,-5.0923,-5.0835,-5.0928,-5.0789,-5.0813,-5.1048,-5.1083,-5.1133,-5.1189,-5.1195,-5.1199,-5.1206,-5.1257,-5.1217,-5.1092,-5.1141,-5.1103,-5.1008,-5.1008,-5.1063,-5.1159,-5.1081,-5.1042,-5.1074,-5.0835,-5.1159,-5.1761,-5.173,-5.2211,-5.3011,0.0,0.0,0.0,0.0,0.0,0.0,0.0,0.0,0.0,-1.9879,-2.0078,-2.038,-2.0885,-2.1582,-2.2492,-2.361,-2.361,-2.3908,-2.4492,-2.5693,-2.64,-2.6592,-2.6784,-2.6976,-2.6976,-2.6976,-2.6976,-2.6976,-2.7977,-2.8877,-2.959,-3.1158,-3.2239,-3.3018,-3.394,-3.4428,-3.4664,-3.5534,-3.6526,-3.7571,-3.7898,-3.8851,-4.0083,-4.0083,-4.0323,-4.0454,-3.9136,-3.9418,0.0,-4.2414,-4.374,-4.4959,-4.7019,-4.7961,-4.8258,-4.792,-4.8802,-5.0109,-5.1025,-5.1802,-5.2704,-5.4223,-5.4701,-5.4995,-5.5677,-5.5687,-5.574,-5.6405,-5.6522,-5.6405,-5.6058,-5.598,-5.584,-5.5508,-5.5425,-5.5411,-5.5411,-5.5404,-5.5213,-5.4673,-5.4247,-5.3682,-5.2805,-5.2709,-5.2679,-5.2608,-5.2482,-5.2442,-5.2442,-5.2401,-5.2211,-5.1815,-5.1912,-5.1735,-5.1258,-5.1304,-5.1313,-5.1313,-5.1333,-5.1322,-5.1271,-5.1297,-5.1291,-5.1218,-5.1218,-5.1252,-5.1304,-5.1132,-5.1023,-5.0945,-5.0742,-5.1106,-5.1828,-5.2257,-5.2915,-5.3708,0.0,0.0,0.0,0.0,0.0,0.0,0.0,0.0,0.0,0.0,-2.038,-2.0979,-2.1285,-2.2282,-2.3294,-2.4421,-2.452,-2.4815,-2.5294,-2.6297,-2.6871,-2.7074,-2.7476,-2.7634,-2.7634,-2.7634,-2.7817,-2.8094,-2.9023,-3.0111,-3.1368,-3.2644,-3.3705,-3.4673,-3.5541,-3.6117,-3.6361,-3.7228,-3.8296,-3.9363,-3.9609,-4.0377,-4.146,-4.173,-4.2349,-4.2871,-4.099,-4.1171,-4.2539,-4.3921,-4.5066,-4.6259,-4.8441,-4.934,-4.9633,-4.9775,-5.0769,-5.2187,-5.387,-5.4225,-5.4439,-5.5874,-5.6189,-5.6203,-5.6313,-5.6277,-5.6274,-5.6465,-5.6493,-5.6518,-5.6518,-5.6517,-5.6495,-5.6504,-5.6491,-5.6484,-5.6476,-5.6472,-5.6193,-5.55,-5.5392,-5.5147,-5.4502,-5.4016,-5.3689,-5.3601,-5.3587,-5.3561,-5.3533,-5.3572,-5.334,-5.2759,-5.2647,-5.2297,-5.1702,-5.1503,-5.1394,-5.1394,-5.1394,-5.1394,-5.1394,-5.1394,-5.1394,-5.1394,-5.1394,-5.141,-5.1372,-5.1159,-5.1,-5.0879,-5.0641,-5.1158,-5.2097,-5.2643,-5.3359,-5.4167,0.0,0.0,0.0,0.0,0.0,0.0,0.0,0.0,0.0,0.0,0.0,0.0,0.0,-2.2685,-2.3285,-2.4393,-2.4688,-2.5294,-2.64,-2.7181,-2.7611,-2.7621,-2.8239,-2.8566,-2.8566,-2.8566,-2.9042,-3.0078,-3.1151,-3.2289,-3.3576,-3.544,-3.6598,-3.7124,-3.8007,-3.8515,-3.8869,-3.9672,-4.0002,-4.0173,-4.102,-4.1369,-4.152,-4.2406,-4.2894,-4.2996,-4.2218,-4.3532,-4.5649,-4.5471,-4.6355,-4.7744,-4.882,-4.9715,-5.0503,-5.1094,-5.212,-5.332,-5.4086,-5.4734,-5.5343,-5.61,-5.6328,-5.6387,-5.6406,-5.6442,-5.6493,-5.6495,-5.6504,-5.652,-5.6581,-5.6538,-5.6495,-5.6503,-5.6497,-5.6478,-5.6406,-5.6339,-5.6267,-5.6188,-5.6175,-5.6129,-5.6039,-5.4551,-5.3601,-5.3601,-5.3546,-5.3533,-5.3591,-5.3591,-5.3685,-5.3855,-5.304,-5.2625,-5.2659,-5.1824,-5.1394,-5.1394,-5.1394,-5.1394,-5.1394,-5.1394,-5.1394,-5.1394,-5.1394,-5.141,-5.1372,-5.1102,-5.0966,-5.0865,-5.0527,-5.1408,-5.2839,-5.2755,-5.3258,-5.4044,0.0,0.0,0.0,0.0,0.0,0.0,0.0,0.0,0.0,0.0,0.0,0.0,0.0,0.0,0.0,0.0,-2.5089,-2.5392,-2.5897,-2.7645,-2.8679,-2.8871,-3.0075,-3.0715,-3.0715,-3.0715,-3.0908,-3.1281,-3.2406,-3.3588,-3.4819,-3.6279,-3.7419,-3.8338,-3.9221,-3.9635,-3.9729,-4.0636,-4.1488,-4.2395,-4.2845,-4.3491,-4.4335,-4.4867,-4.54,-4.5846,0.0,-4.5333,-4.5939,-4.6736,-4.7895,-4.9135,-5.0388,-5.1257,-5.1889,-5.2419,-5.3074,-5.3845,-5.4629,-5.5228,-5.5706,-5.6175,-5.6328,-5.633,-5.6318,-5.6363,-5.6386,-5.6489,-5.6509,-5.6499,-5.6539,-5.652,-5.6502,-5.65,-5.6465,-5.6432,-5.6406,-5.629,-5.6207,-5.6126,-5.6126,-5.6117,-5.6043,-5.5568,-5.5238,-5.521,-5.5255,-5.5296,-5.5316,-5.5409,-5.5248,-5.4791,-5.3928,-5.3221,-5.2692,-5.1784,-5.1313,-5.1262,-5.1262,-5.1307,-5.1403,-5.1405,-5.1405,-5.1402,-5.1405,-5.141,-5.1372,-5.1102,-5.0985,-5.0926,-5.0547,-5.1449,-5.2924,-5.2417,-5.3118,-5.4318,0.0,0.0,0.0,0.0,0.0,0.0,0.0,0.0,0.0,0.0,0.0,0.0,0.0,0.0,0.0,0.0,0.0,-2.6309,-2.6513,-2.8244,-2.9276,-2.9374,-3.0504,-3.1151,-3.1151,-3.125,-3.1728,-3.2491,-3.3587,-3.5061,-3.6695,-3.8116,-3.9243,-4.0014,-4.0902,-4.1376,-4.1736,-4.2334,-4.333,-4.4351,-4.4611,-4.5167,-4.5953,-4.647,-4.702,0.0,-4.7406,-4.7336,-4.7366,-4.797,-4.8833,-4.9922,-5.117,-5.2155,-5.2839,-5.3175,-5.3738,-5.439,-5.4995,-5.5517,-5.593,-5.6233,-5.629,-5.6302,-5.6329,-5.6349,-5.6405,-5.6471,-5.6511,-5.6533,-5.6549,-5.6534,-5.6536,-5.6543,-5.6473,-5.6416,-5.6381,-5.6291,-5.6188,-5.6071,-5.6056,-5.6059,-5.5993,-5.6043,-5.6078,-5.607,-5.6147,-5.6225,-5.6302,-5.6356,-5.6189,-5.5721,-5.4525,-5.3643,-5.3126,-5.1884,-5.1244,-5.1201,-5.1201,-5.1242,-5.1322,-5.1338,-5.1342,-5.1367,-5.1363,-5.1385,-5.1372,-5.1113,-5.1011,-5.0959,-5.0567,-5.1408,-5.2747,-5.2181,-5.2879,-5.4083,0.0,0.0,0.0,0.0,0.0,0.0,0.0,0.0,0.0,0.0,0.0,0.0,0.0,0.0,0.0,0.0,0.0,0.0,-2.7955,-2.8794,-2.9403,-2.9403,-2.985,-3.0193,-3.0193,-3.0391,-3.1586,-3.3552,-3.4727,-3.6531,-3.8895,-4.0661,-4.1684,-4.2073,-4.2915,-4.3693,-4.4434,-4.4737,-4.5227,-4.5937,-4.6189,-4.6314,-4.6384,-4.7306,-4.7671,-4.7803,-4.8702,-4.9376,-4.9815,-4.9076,-4.9376,-5.022,-5.1345,-5.2418,-5.3296,-5.3441,-5.418,-5.4981,-5.5253,-5.5672,-5.6063,-5.6255,-5.6319,-5.631,-5.6377,-5.6457,-5.6504,-5.6504,-5.6548,-5.6582,-5.6582,-5.6582,-5.6582,-5.6582,-5.6532,-5.6444,-5.6313,-5.6297,-5.6224,-5.6026,-5.6012,-5.6012,-5.6012,-5.6012,-5.607,-5.6186,-5.6203,-5.6297,-5.6491,-5.644,-5.6464,-5.6602,-5.4842,-5.3883,-5.388,-5.2097,-5.1196,-5.1196,-5.1196,-5.1196,-5.1196,-5.1196,-5.1222,-5.1307,-5.1307,-5.1343,-5.1372,-5.1103,-5.1004,-5.0959,-5.0625,-5.1319,-5.2452,-5.2092,-5.2594,-5.3367,0.0,0.0,0.0,0.0,0.0,0.0,0.0,0.0,0.0,0.0,0.0,0.0,0.0,0.0,0.0,0.0,0.0,0.0,-2.8411,-2.9742,-3.0464,-3.0464,-3.1739,-3.2398,-3.2398,-3.2398,-3.2901,-3.3586,-3.4824,-3.6232,-3.7717,-3.9169,-4.0589,-4.199,-4.2386,-4.3046,-4.3957,-4.4677,-4.5447,-4.6221,-4.6968,-4.7523,-4.7967,-4.845,-4.8593,-4.861,-4.9376,-4.9774,-4.9873,-4.9681,-5.0647,-5.2091,-5.3013,-5.368,-5.4169,-5.4553,-5.4962,-5.5362,-5.5777,-5.6084,-5.631,-5.6359,-5.6368,-5.6386,-5.6464,-5.6498,-5.6511,-5.6553,-5.6472,-5.6379,-5.6379,-5.6422,-5.6444,-5.6444,-5.6393,-5.6365,-5.6364,-5.6207,-5.6094,-5.6128,-5.6147,-5.6109,-5.6012,-5.6089,-5.6149,-5.6133,-5.6214,-5.6319,-5.6414,-5.6492,-5.6567,-5.6606,-5.4804,-5.3821,-5.3827,-5.2033,-5.1152,-5.1203,-5.1152,-5.1152,-5.1203,-5.121,-5.1217,-5.1222,-5.1327,-5.1351,-5.1317,-5.1093,-5.0979,-5.0908,-5.0606,-5.1319,-5.2425,-5.1807,-5.2326,-5.3285,0.0,0.0,0.0,0.0,0.0,0.0,0.0,0.0,0.0,0.0,0.0,0.0,0.0,0.0,0.0,0.0,0.0,0.0,0.0,-2.9933,-3.0493,-3.0493,-3.1353,-3.1801,-3.1801,-3.1902,-3.2499,-3.3575,-3.4969,-3.6395,-3.8017,-3.9271,-4.0675,-4.214,-4.2208,-4.3016,-4.4328,-4.4962,-4.5809,0.0,0.0,-4.8096,-4.8753,-4.894,-4.894,-4.8956,-4.9674,-5.0352,-5.1015,-5.1454,-5.2253,-5.3272,-5.3736,-5.427,-5.4775,-5.5092,-5.5441,-5.5788,-5.609,-5.6299,-5.6414,-5.6449,-5.6437,-5.6464,-5.6536,-5.6485,-5.6425,-5.6465,-5.6336,-5.6202,-5.6202,-5.6329,-5.6398,-5.6398,-5.6415,-5.6425,-5.6406,-5.628,-5.6191,-5.6256,-5.6244,-5.6214,-5.6135,-5.6209,-5.6253,-5.6267,-5.6294,-5.6332,-5.641,-5.6523,-5.6415,-5.6032,-5.4607,-5.3455,-5.2679,-5.1591,-5.1089,-5.1167,-5.1089,-5.1069,-5.1109,-5.1144,-5.1162,-5.1216,-5.1307,-5.1324,-5.123,-5.1061,-5.0959,-5.0883,-5.0606,-5.1185,-5.2095,-5.1574,-5.2084,-5.2969,0.0,0.0,0.0,0.0,0.0,0.0,0.0,0.0,0.0,0.0,-2.6094,0.0,0.0,0.0,0.0,0.0,0.0,0.0,0.0,0.0,0.0,-2.9994,-2.9994,-2.9994,-2.9994,-3.0297,-3.1381,-3.3453,-3.48,-3.6531,-3.8626,-3.9738,-4.0944,-4.2126,-4.2111,-4.3225,-4.4962,-4.5405,-4.6308,-4.7505,-4.7901,-4.845,-4.9001,0.0,-4.9063,-4.9229,-4.9873,-5.1085,-5.2532,-5.3394,-5.3849,-5.4052,-5.41,-5.462,-5.5244,-5.538,-5.5777,-5.6142,-5.6278,-5.6359,-5.643,-5.6504,-5.6511,-5.6536,-5.6582,-5.6446,-5.6288,-5.6288,-5.6169,-5.6071,-5.6071,-5.6219,-5.6345,-5.6368,-5.6464,-5.6523,-5.6441,-5.64,-5.6367,-5.6329,-5.633,-5.633,-5.629,-5.6317,-5.6368,-5.6446,-5.6387,-5.6363,-5.6426,-5.6547,-5.6133,-5.5134,-5.4198,-5.2897,-5.1184,-5.1058,-5.1024,-5.1097,-5.1024,-5.1005,-5.102,-5.1086,-5.115,-5.1224,-5.1277,-5.1257,-5.1176,-5.1047,-5.0942,-5.0839,-5.0661,-5.1052,-5.17,-5.1551,-5.1983,-5.2563,0.0,0.0,0.0,0.0,0.0,0.0,0.0,0.0,0.0,0.0,-2.6979,-2.7201,0.0,0.0,0.0,0.0,0.0,0.0,0.0,0.0,0.0,0.0,-2.9994,-2.9994,-2.9994,-3.0297,-3.1084,-3.2566,-3.3923,-3.5294,-3.6777,-3.7848,-3.9251,-4.093,-4.1224,-4.2394,-4.4266,-4.5897,-4.6673,-4.7017,-4.8306,-4.8877,-4.9001,-4.9001,0.0,0.0,-5.0911,-5.1976,-5.2969,-5.3489,-5.4165,-5.4781,-5.5192,-5.5553,-5.5877,-5.6063,-5.6194,-5.6278,-5.6359,-5.643,-5.6504,-5.6572,-5.6577,-5.6582,-5.6606,-5.6446,-5.6288,-5.6288,-5.6097,-5.593,-5.593,-5.5959,-5.6033,-5.6216,-5.6244,-5.6344,-5.6542,-5.6411,-5.6347,-5.6445,-5.6481,-5.6427,-5.6309,-5.6414,-5.6401,-5.6263,-5.6379,-5.6492,-5.6558,-5.6586,-5.5818,-5.4111,-5.3208,-5.2173,-5.096,-5.0971,-5.1005,-5.1024,-5.1005,-5.1024,-5.1078,-5.1141,-5.1214,-5.1288,-5.1281,-5.1222,-5.1109,-5.0959,-5.0851,-5.0759,-5.0994,-5.1385,-5.1858,-5.1936,-5.2334,-5.2717,0.0,0.0,0.0,0.0,0.0,0.0,0.0,-2.5495,-2.6037,-2.6701,-2.7447,-2.789,-2.7766,-2.8166,-2.8553,0.0,0.0,0.0,0.0,0.0,0.0,0.0,0.0,0.0,-2.9994,-3.0785,-3.1768,-3.3055,0.0,-3.5713,-3.6909,-3.7598,-3.8908,-4.0746,-4.0972,-4.2231,-4.4205,-4.5551,-4.6324,-4.688,-4.7967,-4.8656,-4.9063,0.0,0.0,0.0,-5.1398,-5.226,-5.3162,-5.3428,-5.4165,-5.4985,-5.5458,-5.5864,-5.6185,-5.6278,-5.6302,-5.6319,-5.6339,-5.6422,-5.6504,-5.6542,-5.6577,-5.6606,-5.6606,-5.6391,-5.6211,-5.6211,-5.599,-5.5808,-5.5808,-5.5864,-5.5942,-5.6029,-5.6196,-5.6346,-5.6484,-5.6473,-5.6488,-5.6543,-5.6558,-5.6523,-5.6469,-5.6522,-5.6511,-5.6412,-5.6496,-5.6539,-5.6492,-5.5662,-5.457,-5.3227,-5.2251,-5.1548,-5.1061,-5.0979,-5.0975,-5.1053,-5.1053,-5.1072,-5.1106,-5.1212,-5.1269,-5.1304,-5.1299,-5.123,-5.1093,-5.0966,-5.0793,-5.0683,-5.1075,-5.1433,-5.1818,-5.201,-5.232,-5.2608,0.0,0.0,0.0,0.0,0.0,0.0,0.0,-2.5854,-2.6636,-2.6853,-2.7736,-2.827,-2.8127,-2.8411,-2.876,0.0,0.0,0.0,0.0,0.0,0.0,0.0,0.0,0.0,-2.9994,0.0,0.0,-3.3639,-3.5198,0.0,0.0,0.0,0.0,0.0,-4.0901,-4.2164,-4.4281,-4.5126,-4.5969,0.0,0.0,-4.837,-4.9046,0.0,0.0,0.0,0.0,-5.2381,-5.3125,-5.3308,-5.3921,-5.4657,-5.5129,-5.5731,-5.6246,-5.6246,-5.6278,-5.6297,-5.6308,-5.6387,-5.6464,-5.6471,-5.6536,-5.6577,-5.6553,-5.6338,-5.6129,-5.6117,-5.5915,-5.5745,-5.5745,-5.5801,-5.5857,-5.5874,-5.615,-5.6354,-5.6385,-5.6504,-5.6601,-5.6601,-5.6601,-5.6601,-5.6601,-5.6592,-5.6612,-5.6606,-5.6437,-5.627,-5.6142,-5.4713,-5.3488,-5.2601,-5.1602,-5.1119,-5.1138,-5.0999,-5.0999,-5.1099,-5.1111,-5.113,-5.1138,-5.1253,-5.1303,-5.1296,-5.1277,-5.1189,-5.1056,-5.0938,-5.0837,-5.0832,-5.1205,-5.1582,-5.1952,-5.2192,-5.2419,-5.2545,0.0,0.0,0.0,0.0,0.0,0.0,0.0,-2.6409,-2.6853,-2.796,-2.8184,-2.8281,-2.8232,-2.8562,-2.8794,0.0,0.0,0.0,0.0,0.0,0.0,0.0,0.0,0.0,0.0,0.0,0.0,-3.3911,-3.551,0.0,0.0,0.0,0.0,0.0,0.0,-4.2246,-4.4127,-4.52,0.0,0.0,0.0,0.0,0.0,0.0,0.0,0.0,0.0,-5.2698,-5.2707,-5.3244,-5.3456,-5.3626,-5.4091,-5.5063,-5.6036,-5.6036,-5.6165,-5.6297,-5.6297,-5.6319,-5.6339,-5.6386,-5.6464,-5.6498,-5.643,-5.6349,-5.6267,-5.6207,-5.6024,-5.5885,-5.5885,-5.5806,-5.5739,-5.5807,-5.6036,-5.6247,-5.6309,-5.6483,-5.6601,-5.6601,-5.6601,-5.6601,-5.6601,-5.6601,-5.6593,-5.6606,-5.5868,-5.5388,-5.5299,-5.4396,-5.3449,-5.245,-5.1544,-5.1041,-5.0945,-5.1029,-5.1087,-5.1099,-5.1166,-5.1211,-5.1273,-5.1285,-5.1303,-5.1302,-5.124,-5.1105,-5.0908,-5.0831,-5.1067,-5.1462,-5.1717,-5.2151,-5.2621,-5.2692,-5.2751,-5.2717,0.0,0.0,0.0,0.0,0.0,0.0,-2.6191,-2.6527,-2.6961,-2.8184,-2.8291,-2.8291,-2.8291,-2.8408,-2.8611,-2.9026,0.0,0.0,0.0,0.0,0.0,0.0,0.0,0.0,0.0,0.0,-3.3342,-3.3911,-3.6011,0.0,0.0,0.0,0.0,0.0,0.0,-4.2164,-4.4281,-4.5608,0.0,0.0,0.0,0.0,0.0,0.0,0.0,0.0,0.0,0.0,-5.2635,-5.2839,-5.3138,-5.346,-5.3811,-5.4629,-5.5476,-5.5557,-5.5838,-5.6151,-5.6265,-5.6306,-5.6329,-5.6377,-5.6422,-5.6437,-5.6464,-5.6349,-5.6232,-5.6207,-5.6007,-5.5846,-5.5885,-5.5766,-5.566,-5.5737,-5.5899,-5.6035,-5.6053,-5.6302,-5.6478,-5.6484,-5.6543,-5.6601,-5.6601,-5.6597,-5.6593,-5.6599,-5.5781,-5.5033,-5.4451,-5.3562,-5.264,-5.1715,-5.1215,-5.0948,-5.0897,-5.1029,-5.1087,-5.1051,-5.1183,-5.1272,-5.1304,-5.1294,-5.13,-5.1289,-5.1192,-5.1092,-5.0999,-5.0683,-5.0924,-5.152,-5.1612,-5.2052,-5.2642,-5.2779,-5.2608,-5.2203,0.0,0.0,0.0,0.0,0.0,-2.4753,-2.6744,-2.707,-2.7295,-2.8184,-2.8291,-2.8291,-2.8291,-2.8601,-2.8804,-2.892,-2.9237,0.0,0.0,0.0,0.0,0.0,0.0,0.0,0.0,0.0,-3.3836,-3.4412,-3.6508,-3.7611,0.0,0.0,-3.8984,-4.0887,0.0,0.0,0.0,0.0,0.0,0.0,0.0,0.0,0.0,0.0,0.0,0.0,0.0,0.0,0.0,0.0,0.0,-5.3302,-5.3491,-5.4161,-5.4909,-5.5221,-5.5635,-5.6036,-5.6165,-5.6246,-5.6317,-5.6359,-5.6378,-5.6368,-5.6425,-5.6319,-5.6239,-5.6233,-5.604,-5.5885,-5.5885,-5.5766,-5.564,-5.5618,-5.5737,-5.5843,-5.584,-5.6131,-5.6352,-5.6362,-5.6483,-5.6581,-5.6601,-5.661,-5.6497,-5.6235,-5.5419,-5.4512,-5.3584,-5.2655,-5.1843,-5.1161,-5.099,-5.0929,-5.0929,-5.105,-5.1102,-5.1087,-5.1239,-5.1339,-5.1336,-5.1336,-5.1314,-5.1291,-5.1179,-5.1111,-5.1061,-5.0856,-5.114,-5.1745,-5.1831,-5.2268,-5.2864,-5.2681,-5.2361,-5.1897,0.0,0.0,0.0,0.0,0.0,0.0,-2.8067,-2.8291,-2.8291,-2.8291,-2.8291,-2.8291,-2.8291,-2.9207,-2.9523,-2.8727,-2.893,0.0,0.0,0.0,0.0,0.0,0.0,0.0,0.0,0.0,-3.424,-3.5522,-3.6815,-3.7611,-3.79,-3.79,-3.8984,-4.0887,0.0,0.0,0.0,0.0,0.0,0.0,0.0,0.0,0.0,0.0,0.0,0.0,0.0,0.0,0.0,0.0,0.0,0.0,0.0,-5.3545,-5.4345,-5.5088,-5.5631,-5.6001,-5.6001,-5.6151,-5.6291,-5.6291,-5.6302,-5.6297,-5.6297,-5.6302,-5.6297,-5.6304,-5.6199,-5.6056,-5.5921,-5.5847,-5.5724,-5.5456,-5.5566,-5.5692,-5.5711,-5.5998,-5.623,-5.628,-5.6429,-5.6534,-5.6593,-5.6593,-5.6236,-5.538,-5.4517,-5.3627,-5.2765,-5.1829,-5.1228,-5.0999,-5.1001,-5.1006,-5.099,-5.1066,-5.1161,-5.1308,-5.1362,-5.1402,-5.1406,-5.1405,-5.1366,-5.1299,-5.1231,-5.112,-5.1029,-5.1432,-5.1858,-5.2305,-5.2596,-5.3033,-5.3381,-5.2509,-5.2137,-5.1928,0.0,0.0,0.0,0.0,0.0,0.0,0.0,-2.8291,-2.8291,-2.8291,-2.89,-2.9418,-2.9418,-3.0338,-3.0959,-3.066,-3.0959,0.0,0.0,0.0,0.0,0.0,0.0,0.0,0.0,-3.3883,-3.4751,-3.5534,-3.6615,-3.7743,-3.8792,-3.8792,-3.9972,-4.2068,-4.2643,-4.3899,0.0,0.0,0.0,0.0,0.0,0.0,-5.0045,0.0,0.0,0.0,0.0,0.0,0.0,0.0,0.0,0.0,0.0,0.0,0.0,-5.4697,-5.5167,-5.5568,-5.5806,-5.5985,-5.6132,-5.6271,-5.6302,-5.629,-5.6294,-5.6302,-5.6297,-5.6291,-5.6151,-5.6036,-5.604,-5.5865,-5.5724,-5.5682,-5.5728,-5.5768,-5.5767,-5.602,-5.6207,-5.6232,-5.6338,-5.6484,-5.6595,-5.6558,-5.6202,-5.5357,-5.4498,-5.3623,-5.2749,-5.1854,-5.1273,-5.1073,-5.1024,-5.0986,-5.0923,-5.1035,-5.1132,-5.123,-5.1342,-5.1405,-5.1391,-5.1341,-5.1323,-5.1295,-5.1134,-5.1296,-5.1672,-5.1519,-5.2075,-5.3029,-5.2794,-5.3051,-5.34,-5.2617,-5.191,-5.1276,0.0,0.0,0.0,0.0,0.0,0.0,0.0,-2.8291,-2.8495,-2.9006,-2.9608,-3.0224,-3.0732,-3.1858,-3.2376,-3.1858,-3.2678,0.0,0.0,0.0,0.0,0.0,0.0,0.0,-3.3784,-3.4581,-3.5355,-3.6118,-3.7256,-3.8264,-3.921,-3.9549,-4.0873,-4.3006,-4.3497,-4.4716,0.0,0.0,0.0,0.0,0.0,0.0,-5.0349,0.0,0.0,0.0,0.0,0.0,0.0,0.0,0.0,0.0,0.0,0.0,0.0,0.0,-5.5099,-5.5427,-5.5631,-5.588,-5.6106,-5.6233,-5.6272,-5.6265,-5.6265,-5.6253,-5.6259,-5.6259,-5.6185,-5.6102,-5.6067,-5.5919,-5.5808,-5.5808,-5.5808,-5.5808,-5.5808,-5.5988,-5.616,-5.6232,-5.6328,-5.643,-5.6511,-5.6212,-5.5666,-5.4836,-5.3957,-5.3103,-5.2253,-5.1698,-5.133,-5.1144,-5.1093,-5.1054,-5.1016,-5.1102,-5.1189,-5.1284,-5.1363,-5.1406,-5.1394,-5.1361,-5.1295,-5.1217,-5.103,-5.1347,0.0,-5.1844,-5.2444,-5.3445,-5.3297,-5.3216,-5.3138,-5.2472,-5.1611,-5.0697,0.0,0.0,0.0,0.0,0.0,0.0,0.0,-2.8388,-2.89,-3.0317,-3.0618,-3.1111,-3.242,-3.354,-3.3848,-3.281,0.0,0.0,0.0,0.0,0.0,0.0,0.0,0.0,-3.4872,-3.5174,-3.5953,-3.7201,-3.8368,-3.906,-3.9373,-4.0246,-4.1778,-4.3791,-4.3868,-4.5419,0.0,0.0,0.0,0.0,-5.022,-5.0697,0.0,0.0,0.0,0.0,0.0,0.0,0.0,0.0,0.0,0.0,0.0,0.0,0.0,0.0,0.0,0.0,0.0,-5.5827,-5.6184,-5.6199,-5.6199,-5.6199,-5.6199,-5.6209,0.0,-5.6199,-5.6246,-5.6232,-5.6052,-5.602,-5.5952,-5.5827,-5.5808,-5.5808,-5.5808,-5.5935,-5.6093,-5.6278,-5.6349,-5.6377,-5.6405,-5.5677,-5.484,-5.3962,-5.3091,-5.2244,-5.1449,-5.1386,-5.1342,-5.122,-5.121,-5.1209,-5.1195,-5.1195,-5.1278,-5.1394,-5.1402,-5.1406,-5.1406,-5.1391,-5.1287,-5.1117,-5.1037,-5.1428,-5.2106,-5.2392,-5.293,-5.3588,-5.4048,-5.3586,-5.2634,-5.2162,-5.1289,-5.0237,0.0,0.0,0.0,0.0,0.0,0.0,0.0,0.0,0.0,0.0,-3.3162,-3.4328,-3.4631,-3.6251,-3.7298,0.0,0.0,0.0,0.0,0.0,0.0,0.0,0.0,0.0,-3.6238,-3.6534,-3.7268,-3.8459,-3.8729,-3.9766,-4.138,-4.1561,-4.2812,-4.484,-4.5368,-4.6783,0.0,0.0,0.0,0.0,-5.022,-5.0697,0.0,0.0,0.0,0.0,-5.2779,-5.2912,0.0,0.0,0.0,0.0,0.0,0.0,0.0,0.0,-5.5384,-5.5583,-5.5585,0.0,-5.6012,-5.6149,-5.6199,-5.6199,0.0,-5.6199,-5.6194,-5.6194,-5.6204,-5.6218,-5.616,-5.6078,-5.5993,-5.5958,-5.5958,-5.5956,-5.5952,-5.6102,-5.6253,-5.6278,-5.6306,-5.6336,-5.6405,-5.5628,-5.4781,-5.3958,-5.3089,-5.2239,-5.1369,-5.1316,-5.1308,-5.1284,-5.1284,-5.1239,-5.1131,-5.1172,-5.1273,-5.1405,-5.1396,-5.1391,-5.1405,-5.1343,-5.1293,-5.1292,-5.1862,-5.2399,-5.2897,-5.3582,-5.3987,-5.419,-5.4315,-5.3682,-5.2634,-5.2123,-5.1274,-5.0349,0.0,0.0,0.0,0.0,0.0,0.0,0.0,0.0,0.0,0.0,0.0,-3.5968,-3.7009,-3.8145,0.0,0.0,0.0,0.0,0.0,0.0,0.0,0.0,0.0,-3.803,-3.803,-3.8302,-3.8841,-3.9475,-4.0014,-4.1099,-4.2489,-4.3066,-4.4281,-4.6134,-4.7104,-4.808,-4.9001,-4.9001,-4.9168,-4.9496,-5.0331,0.0,0.0,0.0,0.0,0.0,-5.3091,-5.3281,0.0,-5.3943,-5.4274,-5.4609,0.0,0.0,0.0,0.0,-5.567,-5.5769,-5.5769,-5.5846,-5.5975,-5.6082,-5.6098,-5.6098,-5.6098,-5.6133,-5.6149,-5.6149,-5.618,-5.6209,-5.6233,-5.6185,-5.6146,-5.6191,-5.6187,-5.6166,-5.6136,-5.6193,-5.6246,-5.6239,-5.6253,-5.6129,-5.5783,-5.5005,-5.4159,-5.3312,-5.2455,-5.1771,-5.132,-5.1265,-5.1248,-5.1248,-5.1248,-5.1239,-5.1181,-5.123,-5.1284,-5.1349,-5.1342,-5.1374,-5.1406,-5.1361,-5.1518,-5.183,-5.2242,-5.287,-5.3665,-5.4024,-5.4253,-5.4458,-5.4472,-5.3664,-5.2481,-5.217,-5.1343,-5.0289,0.0,0.0,0.0,0.0,0.0,0.0,0.0,0.0,0.0,0.0,0.0,0.0,0.0,0.0,0.0,0.0,0.0,0.0,0.0,0.0,0.0,0.0,-3.9697,-3.9596,-3.9596,-4.0031,-4.0362,-4.0604,-4.167,-4.2636,-4.3527,-4.4464,-4.5778,-4.7357,-4.8497,-4.9001,-4.9001,-4.9107,-4.9436,-4.993,-5.0607,0.0,0.0,0.0,0.0,0.0,0.0,0.0,0.0,-5.427,-5.4609,-5.4998,-5.5455,0.0,0.0,0.0,0.0,0.0,-5.6012,-5.6012,-5.6031,-5.6012,-5.6012,-5.6012,-5.6012,-5.6065,-5.6101,-5.6082,-5.6153,-5.6218,-5.6262,-5.6294,-5.6308,-5.6368,-5.6368,-5.6361,-5.6309,-5.6263,-5.6226,-5.6232,-5.611,-5.5754,-5.5087,-5.4144,-5.3272,-5.2543,-5.1687,-5.122,-5.1276,-5.122,-5.1201,-5.1201,-5.1201,-5.124,-5.1276,-5.1284,-5.1273,-5.1273,-5.1301,-5.1342,-5.14,-5.1525,-5.1876,-5.2407,-5.2616,-5.3313,-5.4268,-5.4235,-5.4332,-5.4505,-5.4552,-5.3665,-5.2391,-5.229,-5.1444,-5.0211,0.0,0.0,0.0,0.0,0.0,0.0,0.0,0.0,0.0,0.0,0.0,0.0,0.0,0.0,0.0,0.0,0.0,0.0,0.0,0.0,0.0,-4.3175,-4.107,-3.9812,-3.9812,-4.0332,-4.121,-4.2628,-4.2817,-4.3775,-4.53,-4.5463,-4.615,-4.7357,-4.8497,-4.9001,-4.9063,-4.9555,-4.9832,-4.9988,-5.107,0.0,0.0,0.0,0.0,0.0,0.0,0.0,0.0,-5.4616,-5.5061,-5.55,-5.5566,0.0,0.0,0.0,0.0,0.0,-5.6012,-5.6089,-5.6147,-5.6031,-5.6012,-5.6012,-5.6012,-5.6089,-5.6164,-5.6031,-5.6106,-5.6211,-5.6214,-5.6228,-5.6241,-5.6299,-5.6318,-5.6305,-5.6308,-5.6328,-5.6371,-5.6375,-5.5725,-5.522,-5.51,-5.3584,-5.2554,-5.2418,-5.1661,-5.1194,-5.1206,-5.1206,-5.1194,-5.1194,-5.1194,-5.1194,-5.1225,-5.122,-5.122,-5.122,-5.1258,-5.1336,-5.1418,-5.2108,-5.2411,-5.2485,-5.3891,-5.4359,-5.4177,-5.4886,-5.4884,-5.4424,-5.4424,-5.3758,-5.2802,-5.2678,-5.1856,-5.0678,0.0,0.0,0.0,0.0,0.0,0.0,0.0,0.0,0.0,0.0,0.0,0.0,0.0,0.0,0.0,0.0,0.0,0.0,0.0,0.0,-4.3989,-4.419,-4.318,-4.2526,-4.2526,-4.3071,-4.3698,-4.4478,-4.4478,-4.5106,-4.6324,-4.6949,-4.7489,-4.7967,-4.8889,-4.9229,-4.9152,-4.9815,-5.0387,-5.0947,0.0,0.0,0.0,0.0,0.0,0.0,0.0,0.0,0.0,0.0,-5.5408,-5.5628,-5.5769,0.0,0.0,0.0,0.0,0.0,-5.6089,-5.6147,-5.6186,-5.6128,-5.6147,-5.6167,-5.6167,-5.6203,-5.6239,-5.6168,-5.6214,-5.6278,-5.63,-5.632,-5.6333,-5.6454,-5.6395,-5.6191,-5.5718,-5.5652,-5.5477,-5.5005,-5.4587,-5.4178,-5.375,-5.2916,-5.2207,-5.1785,-5.1416,-5.1202,-5.1202,-5.1202,-5.1202,-5.1202,-5.1202,-5.1202,-5.1202,-5.1191,-5.1189,-5.1189,-5.1271,-5.1558,-5.2069,-5.2476,-5.3089,-5.3847,-5.4585,-5.4909,-5.4943,-5.5259,-5.5053,-5.4552,-5.4458,-5.3944,-5.3203,-5.2626,-5.1679,-5.0607,0.0,0.0,0.0,0.0,0.0,0.0,0.0,0.0,0.0,0.0,0.0,0.0,0.0,0.0,0.0,0.0,0.0,0.0,0.0,-4.4706,-4.4974,-4.5311,-4.5545,-4.5431,-4.4946,-4.5405,-4.5769,-4.5985,-4.5985,-4.634,-4.7118,-4.8,-4.8483,-4.861,-4.9168,-4.9394,-4.9419,-5.022,-5.0999,-5.1759,0.0,0.0,0.0,0.0,0.0,0.0,0.0,0.0,0.0,0.0,0.0,0.0,0.0,0.0,0.0,-5.6167,-5.6126,-5.6082,-5.6203,-5.6244,-5.6263,-5.6263,-5.6291,-5.6315,-5.6315,-5.6323,-5.6336,-5.6308,-5.632,-5.6328,-5.6393,-5.6243,-5.6152,-5.6236,-5.5996,-5.557,-5.4903,-5.4786,-5.4518,-5.3805,-5.3535,-5.3175,-5.2552,-5.2255,-5.1845,-5.126,-5.1202,-5.1202,-5.1202,-5.1202,-5.1202,-5.1202,-5.1202,-5.1202,-5.1202,-5.1191,-5.1203,-5.1203,-5.146,-5.1945,-5.2617,-5.3087,-5.3897,-5.4936,-5.5065,-5.5249,-5.5474,-5.5356,-5.5072,-5.4661,-5.4472,-5.4072,-5.3465,-5.2626,-5.1714,-5.0769,0.0,0.0,0.0,0.0,0.0,0.0,0.0,0.0,0.0,0.0,0.0,0.0,0.0,0.0,0.0,0.0,0.0,0.0,0.0,-4.7204,-4.7655,-4.7835,-4.8158,-4.7407,-4.5342,-4.5536,-4.6056,-4.6742,-4.6742,-4.7118,-4.7935,-4.8098,-4.8483,-4.9001,-4.9135,-4.9436,-4.9907,-5.0947,-5.1544,-5.1808,-5.2802,0.0,0.0,0.0,0.0,0.0,0.0,0.0,0.0,0.0,0.0,0.0,0.0,0.0,-5.6175,-5.613,-5.6191,-5.629,-5.6295,-5.6379,-5.6476,-5.6476,-5.6395,-5.6309,-5.6309,-5.6408,-5.6447,-5.6324,-5.6356,-5.6385,-5.6406,-5.5794,-5.528,-5.5215,-5.457,-5.4059,-5.3994,-5.4043,-5.4003,-5.3826,-5.3072,-5.2565,-5.2511,-5.1715,-5.1205,-5.1202,-5.1202,-5.1202,-5.1202,-5.1202,-5.1202,-5.1202,-5.1202,-5.1202,-5.1202,-5.1191,-5.1203,-5.1203,-5.2094,-5.2539,-5.2656,-5.4271,-5.4916,-5.476,-5.5439,-5.5516,-5.5149,-5.5066,-5.4844,-5.4597,-5.4439,-5.4018,-5.344,-5.2889,-5.2353,-5.175,0.0,0.0,0.0,0.0,0.0,0.0,0.0,0.0,0.0,0.0,0.0,0.0,0.0,0.0,0.0,0.0,0.0,0.0,0.0,-4.7754,-4.8063,-4.8383,-4.8509,-4.8349,-4.785,-4.7932,-4.8158,-4.843,-4.843,-4.8589,-4.8872,-4.9029,-4.9152,-4.9256,-4.975,-5.0176,-5.057,-5.1447,-5.2112,-5.2685,-5.3244,-5.3699,0.0,0.0,0.0,0.0,0.0,0.0,0.0,0.0,-5.569,-5.5993,-5.6114,-5.6156,-5.6199,-5.6271,-5.6298,-5.6321,-5.6391,-5.6457,-5.6495,-5.6495,-5.6096,-5.5821,-5.6367,-5.6538,-5.6397,-5.5799,-5.5695,-5.5558,-5.5009,-5.4663,-5.4453,-5.4427,-5.4138,-5.3711,-5.3179,-5.3105,-5.2929,-5.2373,-5.1941,-5.1718,-5.1746,-5.1366,-5.1127,-5.1202,-5.1202,-5.1202,-5.1202,-5.1202,-5.1202,-5.1202,-5.1202,-5.1197,-5.121,-5.1785,-5.2069,-5.2072,-5.2439,-5.3181,-5.4303,-5.4923,-5.5314,-5.553,-5.5714,-5.5593,-5.5203,-5.5057,-5.4941,-5.4833,-5.4524,-5.4,-5.3404,-5.3281,-5.2688,-5.1946,0.0,0.0,0.0,0.0,0.0,0.0,0.0,0.0,0.0,0.0,0.0,0.0,0.0,0.0,0.0,0.0,0.0,0.0,-4.8208,-4.8463,-4.8776,-4.9144,-4.9188,-4.9445,-4.9832,-5.0028,-4.9855,-4.9402,-4.9402,-4.9402,-4.9402,-4.9555,-4.9615,-4.9639,-5.0289,-5.0768,-5.1191,-5.2006,-5.2696,-5.323,-5.3584,-5.3944,0.0,0.0,0.0,0.0,0.0,0.0,0.0,0.0,-5.5768,-5.6031,-5.6106,-5.6179,-5.6246,-5.6372,-5.6397,-5.6402,-5.6518,-5.6542,-5.6479,-5.6178,-5.5704,-5.5371,-5.5703,-5.5781,-5.5605,-5.5006,-5.4886,-5.4694,-5.408,-5.3769,-5.3573,-5.357,-5.3316,-5.2908,-5.2304,-5.2226,-5.2011,-5.1442,-5.1273,-5.1219,-5.1255,-5.1172,-5.1127,-5.1202,-5.1202,-5.1202,-5.1202,-5.1202,-5.1202,-5.1202,-5.1202,-5.1336,-5.1612,-5.2274,-5.2878,-5.3418,-5.3435,-5.4091,-5.5298,-5.5457,-5.5687,-5.5996,-5.5764,-5.5506,-5.5229,-5.5057,-5.4912,-5.4791,-5.4439,-5.3907,-5.3326,-5.3422,-5.2944,-5.2155,0.0,0.0,0.0,0.0,0.0,0.0,0.0,0.0,0.0,0.0,0.0,0.0,0.0,0.0,0.0,0.0,0.0,0.0,-4.8883,-4.9732,-5.0302,-5.0397,-5.0547,-5.0729,-5.0891,-5.1383,-5.0893,-4.9402,-4.9402,-4.9402,-4.9402,-4.9402,-4.9698,-5.0159,-5.0661,-5.1191,-5.1701,-5.267,-5.3143,-5.323,-5.3775,-5.4037,-5.4091,0.0,0.0,0.0,0.0,0.0,0.0,0.0,-5.5724,-5.5998,-5.5988,-5.6135,-5.6317,-5.6375,-5.6508,-5.6595,-5.6601,-5.6582,-5.6373,-5.5511,-5.5295,-5.5058,-5.418,-5.3984,-5.4004,-5.3984,-5.3984,-5.3945,-5.3898,-5.3214,-5.2675,-5.2605,-5.1912,-5.1408,-5.1406,-5.1406,-5.1365,-5.1301,-5.1232,-5.1198,-5.1203,-5.1131,-5.1127,-5.1202,-5.1202,-5.1202,-5.1202,-5.1202,-5.1202,-5.1202,-5.1202,-5.1638,-5.2485,-5.2587,-5.3486,-5.5195,-5.5277,-5.5318,-5.5337,-5.5929,-5.6122,-5.599,-5.557,-5.5301,-5.5094,-5.4941,-5.4717,-5.439,-5.4163,-5.368,-5.3138,-5.3381,-5.3133,-5.2545,0.0,0.0,0.0,0.0,0.0,0.0,0.0,0.0,0.0,0.0,0.0,0.0,0.0,0.0,0.0,0.0,0.0,0.0,-4.9791,-5.0512,-5.0946,-5.1105,-5.1465,-5.1746,-5.1892,-5.2036,-5.1856,-5.1408,-5.1121,-5.0947,-5.0947,-5.1292,-5.1361,-5.1174,-5.1679,-5.2159,-5.267,-5.295,-5.3304,-5.3641,-5.3813,-5.3926,-5.4019,0.0,0.0,0.0,0.0,0.0,0.0,0.0,0.0,0.0,-5.6135,-5.6247,-5.6396,-5.6503,-5.6567,-5.6602,-5.66,-5.6152,-5.5624,-5.5357,-5.4381,-5.3398,-5.3134,-5.3551,-5.3828,-5.3203,-5.2598,-5.2167,-5.215,-5.1945,-5.1776,-5.1752,-5.1484,-5.1289,-5.1394,-5.1316,-5.1293,-5.1365,-5.1273,-5.1218,-5.1269,-5.121,-5.1171,-5.1202,-5.1202,-5.1202,-5.1202,-5.1202,-5.1202,-5.1202,-5.1746,-5.2213,-5.2567,-5.3756,-5.4663,-5.5277,-5.5907,-5.6192,-5.6143,-5.6182,-5.609,-5.5904,-5.5549,-5.5301,-5.5066,-5.4784,-5.4648,-5.4519,-5.4125,-5.37,-5.3285,-5.2932,-5.2795,-5.2654,0.0,0.0,0.0,0.0,0.0,0.0,0.0,0.0,0.0,0.0,-4.8144,-4.8319,0.0,0.0,0.0,0.0,0.0,0.0,0.0,-5.1312,-5.1615,-5.1647,-5.2018,-5.2299,-5.2589,-5.2391,-5.2481,-5.2914,-5.2224,-5.1861,-5.1861,-5.2159,-5.2159,-5.191,-5.2409,-5.2784,-5.3096,-5.3322,-5.3542,-5.3813,-5.3813,-5.3851,-5.3907,0.0,0.0,0.0,0.0,0.0,0.0,0.0,0.0,0.0,-5.6197,-5.632,-5.6359,-5.6153,-5.6071,-5.6019,-5.5663,-5.5176,-5.4707,-5.4352,-5.3472,-5.2611,-5.2267,-5.2587,-5.2827,-5.2283,-5.1777,-5.1406,-5.1398,-5.1398,-5.14,-5.1396,-5.1326,-5.1308,-5.1384,-5.1335,-5.131,-5.1385,-5.1291,-5.1232,-5.1293,-5.1228,-5.1202,-5.1202,-5.1202,-5.1202,-5.1202,-5.1202,-5.1358,-5.1668,-5.2158,-5.2805,-5.3591,-5.4626,-5.5351,-5.5775,-5.6304,-5.6542,-5.6485,-5.6281,-5.609,-5.5872,-5.5458,-5.5145,-5.4874,-5.4648,-5.4486,-5.4368,-5.3963,-5.3602,-5.3203,-5.2696,-5.2644,-5.2717,0.0,0.0,-4.0916,-4.1601,0.0,0.0,0.0,0.0,0.0,0.0,-4.8635,-4.9067,0.0,0.0,0.0,0.0,0.0,0.0,0.0,-5.218,-5.2263,-5.2235,-5.2391,-5.2678,-5.3138,-5.2678,-5.2895,-5.3813,-5.2852,-5.2391,-5.2391,-5.2436,-5.2436,-5.2391,-5.2932,-5.318,-5.318,-5.3621,-5.3775,-5.3701,-5.3701,-5.3645,-5.3609,-5.3609,0.0,0.0,0.0,0.0,0.0,0.0,0.0,0.0,-5.6008,-5.611,-5.6049,-5.5388,-5.5187,-5.5015,-5.4218,-5.3945,-5.3689,-5.2908,-5.2644,-5.2378,-5.1589,-5.1405,-5.1398,-5.1394,-5.1403,-5.1406,-5.1406,-5.1396,-5.1408,-5.1405,-5.1381,-5.1381,-5.1402,-5.1384,-5.1386,-5.1398,-5.1291,-5.1232,-5.1293,-5.1228,-5.1202,-5.1202,-5.1202,-5.1202,-5.1202,-5.1202,-5.1571,-5.2368,-5.2552,-5.3427,-5.5087,-5.5241,-5.5722,-5.6504,-5.6509,-5.6491,-5.6488,-5.6281,-5.6065,-5.5818,-5.5287,-5.4874,-5.4597,-5.4439,-5.4252,-5.4055,-5.3811,-5.3459,-5.3096,-5.267,-5.2599,-5.2654,0.0,0.0,-4.1942,-4.2614,0.0,0.0,0.0,0.0,0.0,0.0,0.0,0.0,0.0,-5.0893,0.0,0.0,0.0,0.0,0.0,-5.3291,-5.3497,-5.3299,-5.341,-5.3524,-5.3639,-5.3524,-5.3563,-5.3813,-5.3203,-5.2932,-5.295,-5.3285,-5.3285,-5.2932,-5.3444,-5.3639,-5.3678,-5.3756,-5.3441,-5.2865,-5.2865,-5.2621,-5.2214,-5.2214,-5.2567,0.0,0.0,0.0,0.0,0.0,0.0,0.0,-5.4323,-5.4424,-5.4489,-5.4326,-5.4288,-5.4238,-5.4043,-5.3491,-5.2928,-5.2745,-5.2195,-5.1629,-5.1437,-5.1398,-5.1394,-5.1398,-5.1405,-5.1405,-5.1405,-5.1391,-5.1394,-5.1408,-5.1302,-5.1285,-5.1381,-5.131,-5.1273,-5.1385,-5.1291,-5.1232,-5.1293,-5.1228,-5.1202,-5.1202,-5.1202,-5.1202,-5.1202,-5.1202,-5.1571,-5.2368,-5.3125,-5.4031,-5.5087,-5.5846,-5.6308,-5.6504,-5.6509,-5.6491,-5.6488,-5.628,-5.5951,-5.5484,-5.499,-5.4723,-5.4565,-5.4284,-5.4091,-5.3926,-5.3639,-5.344,-5.3217,-5.2617,-5.2371,-5.2242,0.0,0.0,0.0,0.0,0.0,0.0,0.0,0.0,0.0,0.0,0.0,0.0,0.0,-5.1736,0.0,0.0,0.0,0.0,0.0,0.0,-5.4062,-5.3941,-5.387,-5.387,-5.4017,-5.387,-5.3813,-5.3813,-5.3542,-5.3444,-5.3444,-5.3678,-5.3678,-5.3444,-5.3678,-5.3813,-5.3775,-5.3385,-5.307,-5.2748,-5.2375,-5.2132,-5.1989,-5.1989,-5.2295,-5.2704,-5.2704,0.0,0.0,0.0,0.0,0.0,0.0,0.0,-5.3912,-5.3502,-5.338,-5.3294,-5.2871,-5.2414,-5.2078,-5.2078,-5.1746,-5.1394,-5.1394,-5.1394,-5.1394,-5.1394,-5.1394,-5.1394,-5.1394,-5.1402,-5.1405,-5.1394,-5.1347,-5.1324,-5.1385,-5.134,-5.1304,-5.1347,-5.1264,-5.1218,-5.1258,-5.122,-5.1202,-5.1202,-5.1202,-5.1202,-5.1202,-5.1202,-5.1766,-5.297,-5.3565,-5.4448,-5.5704,-5.6241,-5.65,-5.651,-5.642,-5.6387,-5.6349,-5.6219,-5.5857,-5.5327,-5.4998,-5.4654,-5.4334,-5.4089,-5.3944,-5.3774,-5.3521,-5.3359,-5.3217,-5.2527,-5.2371,-5.2463,0.0,0.0,0.0,0.0,0.0,0.0,0.0,0.0,0.0,0.0,0.0,0.0,0.0,0.0,0.0,0.0,0.0,0.0,0.0,0.0,0.0,-5.4463,-5.4142,-5.4089,-5.4364,-5.4106,-5.3963,-5.3963,-5.3963,-5.3963,-5.3963,-5.387,-5.3813,-5.3813,-5.3813,-5.3758,-5.3609,-5.2958,-5.2653,-5.2597,-5.1939,-5.1749,-5.184,-5.184,-5.2049,-5.2356,-5.2356,-5.2626,-5.3004,-5.3107,0.0,0.0,0.0,0.0,-5.3405,-5.2683,-5.2487,-5.2319,-5.1598,-5.1403,-5.1402,-5.1394,-5.1394,-5.1394,-5.1394,-5.1394,-5.1394,-5.1394,-5.1394,-5.1394,-5.1394,-5.1394,-5.1394,-5.1394,-5.1402,-5.1396,-5.1405,-5.1386,-5.1364,-5.133,-5.1258,-5.1211,-5.1218,-5.1201,-5.1202,-5.1202,-5.1202,-5.1202,-5.1202,-5.1338,-5.2115,-5.3674,-5.3964,-5.4855,-5.6402,-5.6461,-5.6493,-5.6471,-5.6355,-5.6244,-5.6168,-5.6117,-5.5843,-5.5378,-5.5122,-5.4678,-5.4144,-5.3999,-5.3813,-5.3616,-5.3378,-5.3277,-5.3193,-5.2572,-5.2545,-5.2743,0.0,0.0,0.0,0.0,0.0,0.0,0.0,0.0,0.0,0.0,-5.1449,-5.1952,0.0,0.0,0.0,0.0,0.0,0.0,0.0,0.0,0.0,-5.5164,-5.4836,-5.4685,-5.4746,-5.4685,-5.4654,-5.4654,-5.4654,-5.4654,-5.4654,-5.4054,-5.3813,-5.3813,-5.3813,-5.3553,-5.3087,-5.2994,-5.229,-5.1254,-5.114,-5.0833,-5.046,-5.046,-5.068,-5.097,-5.097,-5.1114,-5.1334,-5.1346,-5.151,0.0,0.0,0.0,-5.1726,-5.1609,-5.157,-5.155,-5.1421,-5.1402,-5.1404,-5.1402,-5.1394,-5.1394,-5.1394,-5.1394,-5.1394,-5.1394,-5.1394,-5.1394,-5.1394,-5.1394,-5.1394,-5.1394,-5.1398,-5.1406,-5.1406,-5.1359,-5.1333,-5.1386,-5.1279,-5.1225,-5.1284,-5.1228,-5.1202,-5.1202,-5.1202,-5.1202,-5.1202,-5.1863,-5.2722,-5.3749,-5.4547,-5.5436,-5.6478,-5.6503,-5.6471,-5.6415,-5.6281,-5.6168,-5.6117,-5.611,-5.5975,-5.5711,-5.5268,-5.4809,-5.4345,-5.4156,-5.3777,-5.3359,-5.33,-5.3254,-5.3206,-5.2999,-5.2545,-5.2155,0.0,0.0,0.0,0.0,0.0,0.0,0.0,0.0,0.0,0.0,0.0,-5.2913,0.0,0.0,0.0,-5.437,0.0,0.0,0.0,0.0,0.0,-5.5288,-5.4981,-5.4895,-5.5083,-5.4895,-5.4806,-5.4806,-5.4806,-5.4806,-5.4806,-5.4495,-5.4364,-5.4345,-5.3875,-5.3508,-5.3201,-5.2277,-5.1642,-5.1249,-5.0736,-5.0581,-5.0568,-5.0506,-5.0625,-5.081,-5.074,-5.0835,-5.1008,-5.1008,-5.1187,-5.1394,-5.1394,0.0,0.0,0.0,-5.1394,-5.1398,-5.1408,-5.1402,-5.1406,-5.1402,-5.1408,-5.1394,-5.1394,-5.1394,-5.1394,-5.1394,-5.1394,-5.1394,-5.1394,-5.1394,-5.1394,-5.1394,-5.1408,-5.1402,-5.1405,-5.1333,-5.1301,-5.1333,-5.1264,-5.1237,-5.1279,-5.1245,-5.1229,-5.1259,-5.1259,-5.1259,-5.1259,-5.2057,-5.2923,-5.3818,-5.4707,-5.5594,-5.6491,-5.6465,-5.6366,-5.6222,-5.6175,-5.6121,-5.6048,-5.6051,-5.5769,-5.526,-5.4996,-5.4566,-5.4,-5.3758,-5.3505,-5.33,-5.3193,-5.3127,-5.306,-5.2798,-5.2554,-5.2257,0.0,0.0,0.0,0.0,0.0,0.0,0.0,0.0,0.0,0.0,0.0,0.0,0.0,0.0,0.0,0.0,-5.3977,0.0,0.0,0.0,0.0,-5.4814,-5.4791,-5.4861,-5.5121,-5.5038,-5.5037,-5.5037,-5.5037,-5.5037,-5.5018,-5.4827,-5.4732,-5.4694,-5.386,-5.3319,-5.2902,-5.1649,-5.118,-5.1232,-5.0632,-5.0587,-5.0887,-5.0808,-5.0839,-5.0913,-5.0805,-5.0889,-5.1053,-5.1053,-5.1203,-5.1394,-5.1394,-5.1394,0.0,0.0,0.0,-5.1372,-5.1371,-5.1379,-5.1367,-5.1367,-5.1382,-5.1402,-5.1394,-5.1394,-5.1394,-5.1394,-5.1394,-5.1394,-5.139,-5.139,-5.141,-5.1406,-5.1406,-5.1389,-5.1384,-5.1335,-5.1304,-5.1327,-5.1265,-5.1258,-5.1318,-5.125,-5.1248,-5.13,-5.1292,-5.1312,-5.1312,-5.2333,-5.3237,-5.3872,-5.4956,-5.5828,-5.6465,-5.6393,-5.627,-5.6102,-5.6091,-5.6065,-5.5999,-5.5962,-5.5583,-5.4977,-5.4969,-5.4579,-5.3963,-5.3719,-5.3524,-5.3363,-5.3109,-5.2999,-5.2955,-5.2618,-5.2498,-5.2434,0.0,0.0,0.0,0.0,0.0,0.0,0.0,0.0,0.0,0.0,0.0,0.0,-5.2265,-5.2665,-5.2818,-5.2761,-5.3053,-5.326,-5.324,-5.3397,0.0,-5.3503,-5.4278,0.0,-5.4626,-5.5285,-5.5662,-5.5662,-5.5662,-5.5662,-5.5621,-5.4852,-5.4507,-5.4485,-5.3807,-5.2805,-5.161,-5.1514,-5.1201,-5.0741,-5.0844,-5.0871,-5.0902,-5.0966,-5.0984,-5.0996,-5.0984,-5.1063,-5.1195,-5.1195,-5.1291,-5.1394,-5.1394,-5.1394,-5.1394,0.0,0.0,0.0,-5.1298,-5.1299,-5.1308,-5.132,-5.1347,-5.1394,-5.1398,-5.1394,-5.1394,-5.1394,-5.1394,-5.139,-5.1401,-5.1401,-5.1396,-5.14,-5.1394,-5.139,-5.1308,-5.1307,-5.1322,-5.1398,-5.1343,-5.1323,-5.139,-5.1323,-5.13,-5.13,-5.1295,-5.1297,-5.1297,-5.2909,-5.3841,-5.39,-5.5556,-5.6421,-5.6417,-5.6277,-5.6168,-5.6102,-5.6031,-5.5999,-5.5999,-5.5806,-5.5535,-5.5193,-5.5512,-5.535,-5.4817,-5.4458,-5.4086,-5.3643,-5.3175,-5.2999,-5.2955,-5.2618,-5.2498,-5.234,0.0,0.0,0.0,0.0,0.0,0.0,0.0,0.0,0.0,0.0,0.0,0.0,0.0,-5.282,-5.2807,-5.225,-5.2377,-5.2539,-5.2616,-5.318,0.0,-5.3538,-5.3739,-5.3848,-5.3829,-5.3995,-5.4107,-5.4107,-5.4107,-5.4107,-5.4087,-5.3799,-5.3376,-5.2817,-5.2567,-5.2219,-5.1732,-5.1214,-5.0872,-5.0702,-5.0841,-5.0928,-5.0966,-5.0984,-5.1053,-5.1123,-5.103,-5.11,-5.1195,-5.1198,-5.1297,-5.1394,-5.1394,-5.1394,-5.139,-5.1347,-5.1328,-5.1298,-5.1247,-5.1238,-5.123,-5.1244,-5.1291,-5.1346,-5.1386,-5.1396,-5.1394,-5.1394,-5.1394,-5.141,-5.1405,-5.1391,-5.1391,-5.1394,-5.1394,-5.1391,-5.1374,-5.1328,-5.1289,-5.1274,-5.1297,-5.1302,-5.134,-5.1288,-5.1257,-5.1305,-5.1269,-5.1484,-5.205,-5.3142,-5.402,-5.4586,-5.5718,-5.6255,-5.6145,-5.6097,-5.6033,-5.5959,-5.5904,-5.5846,-5.5806,-5.5703,-5.5531,-5.5345,-5.5461,-5.5153,-5.4554,-5.4121,-5.398,-5.3944,-5.3157,-5.2962,-5.2987,-5.2462,-5.2198,-5.2005,0.0,0.0,0.0,0.0,0.0,0.0,0.0,0.0,0.0,-5.0617,0.0,0.0,0.0,0.0,-5.2145,-5.1606,-5.1653,-5.1741,-5.187,-5.2449,-5.2783,-5.2783,-5.2951,-5.3019,-5.3019,-5.3147,-5.3203,-5.3203,-5.3203,-5.3203,-5.3203,-5.2895,-5.2452,-5.1895,-5.1625,-5.151,-5.1471,-5.0933,-5.0702,-5.0721,-5.0867,-5.0972,-5.1008,-5.1094,-5.1195,-5.1271,-5.1172,-5.118,-5.1278,-5.1264,-5.1336,-5.1394,-5.1394,-5.1386,-5.1366,-5.1315,-5.1267,-5.1229,-5.1179,-5.117,-5.1164,-5.1178,-5.1224,-5.1301,-5.1355,-5.1367,-5.1364,-5.1364,-5.1381,-5.1396,-5.1363,-5.1382,-5.139,-5.1369,-5.1375,-5.1369,-5.1367,-5.1342,-5.1304,-5.123,-5.1281,-5.1316,-5.1269,-5.1249,-5.1242,-5.1261,-5.1219,-5.1569,-5.2411,-5.3273,-5.4256,-5.5364,-5.5908,-5.611,-5.6001,-5.5962,-5.5923,-5.5865,-5.5785,-5.5724,-5.5662,-5.5573,-5.548,-5.5408,-5.5358,-5.5064,-5.4635,-5.4067,-5.3997,-5.4142,-5.3115,-5.2806,-5.2944,-5.2257,-5.1956,-5.174,0.0,0.0,0.0,0.0,0.0,0.0,0.0,0.0,-4.9006,-4.973,0.0,0.0,0.0,0.0,0.0,-5.0887,-5.0902,-5.0937,-5.1008,-5.1132,-5.1203,-5.1203,0.0,0.0,-5.2271,-5.2833,-5.3126,-5.3126,-5.3126,-5.3126,-5.3106,-5.226,-5.1875,-5.1837,-5.1048,-5.0702,-5.0702,-5.0702,-5.0702,-5.0721,-5.0912,-5.1008,-5.1031,-5.1297,-5.1394,-5.1394,-5.1394,-5.1394,-5.1394,-5.1394,-5.1394,-5.1394,-5.139,-5.1352,-5.13,-5.128,-5.1196,-5.1099,0.0,0.0,0.0,-5.1092,-5.1206,-5.1291,-5.1308,-5.1297,-5.1297,-5.1297,-5.1349,-5.1381,-5.1307,-5.1348,-5.1374,-5.131,-5.13,-5.1303,-5.1294,-5.1366,-5.1374,-5.1316,-5.1367,-5.1344,-5.1205,-5.1255,-5.126,-5.1193,-5.1195,-5.1561,-5.2383,-5.3344,-5.4571,-5.6136,-5.6116,-5.6059,-5.598,-5.5844,-5.5787,-5.5787,-5.566,-5.5596,-5.5596,-5.5456,-5.5408,-5.5383,-5.5236,-5.5183,-5.513,-5.4406,-5.419,-5.4193,-5.2987,-5.2599,-5.2717,-5.2132,-5.1907,-5.1672,0.0,0.0,0.0,0.0,0.0,-4.841,-4.8915,-4.9283,-4.9636,0.0,0.0,0.0,-5.0625,-5.0736,-5.0887,-5.0966,-5.1061,-5.117,-5.1284,-5.1327,-5.1333,-5.1333,-5.1445,-5.1492,-5.1492,-5.1518,-5.1537,-5.1537,-5.1433,-5.1395,-5.1395,-5.1144,-5.1029,-5.101,-5.0798,-5.0702,-5.0702,-5.0702,-5.0702,-5.0721,-5.0912,-5.1008,-5.1031,-5.1297,-5.1394,-5.1394,-5.1394,-5.1394,-5.1394,-5.1394,-5.1394,-5.1381,-5.1284,-5.1284,-5.1281,-5.1121,-5.1087,-5.108,-5.0983,0.0,0.0,0.0,0.0,0.0,-5.1225,-5.1269,-5.1297,-5.1297,-5.1349,-5.1381,-5.1307,-5.1348,-5.1382,-5.1385,-5.1323,-5.1277,-5.1232,-5.1323,-5.1352,-5.124,-5.134,-5.1347,-5.121,-5.1212,-5.1205,-5.1121,-5.1048,-5.1605,-5.3046,-5.4512,-5.5499,-5.5884,-5.5844,-5.5784,-5.572,-5.5615,-5.5573,-5.5573,-5.5504,-5.5456,-5.5456,-5.5333,-5.5255,-5.5236,-5.5157,-5.5019,-5.4795,-5.443,-5.4397,-5.4463,-5.3222,-5.2813,-5.2871,-5.2144,-5.1708,-5.1263,0.0,0.0,-4.7212,-4.7697,-4.8271,-4.8763,-4.9121,-4.9617,-5.0087,0.0,0.0,0.0,-5.0835,-5.0932,-5.1047,-5.1074,-5.115,-5.1252,-5.139,-5.1394,-5.1394,-5.1394,-5.1265,-5.1203,-5.1203,-5.1035,-5.0951,-5.0951,-5.0848,-5.0819,-5.0819,-5.0819,-5.0819,-5.0819,-5.0827,-5.0829,-5.0829,-5.0829,-5.0776,-5.072,-5.0985,-5.1061,-5.1072,-5.1316,-5.1402,-5.1391,-5.1391,-5.1394,-5.1396,-5.1396,-5.1391,-5.1375,-5.1288,-5.1249,-5.1229,-5.1072,-5.1029,-5.1003,-5.096,-5.0855,-5.0803,-5.099,0.0,0.0,-5.107,-5.1142,-5.1195,-5.1258,-5.1308,-5.1351,-5.1346,-5.1379,-5.1404,-5.1406,-5.1363,-5.132,-5.1206,-5.1296,-5.1297,-5.114,-5.1235,-5.1242,-5.1087,-5.1106,-5.107,-5.0974,-5.123,-5.2121,-5.3763,-5.5094,-5.5785,-5.5724,-5.5682,-5.5618,-5.5551,-5.5504,-5.5456,-5.5456,-5.5262,-5.521,-5.5307,-5.5083,-5.5019,-5.5066,-5.4962,-5.4716,-5.4359,-5.4104,-5.4088,-5.4104,-5.2907,-5.2527,-5.2589,-5.1902,-5.1487,-5.1123,0.0,0.0,-4.8038,-4.8364,-4.8956,-4.9499,-4.9803,-5.0062,-5.0317,0.0,-5.0825,-5.0937,-5.1008,-5.1132,-5.1203,-5.1203,-5.1211,-5.1265,-5.139,-5.1394,-5.1394,-5.1394,-5.1291,-5.1218,-5.1218,-5.1084,-5.102,-5.102,-5.1008,-5.1008,-5.1008,-5.1008,-5.1008,-5.0996,-5.1004,-5.1,-5.1,-5.1009,-5.0917,-5.0769,-5.1089,-5.1162,-5.1123,-5.1322,-5.1391,-5.1404,-5.1403,-5.1405,-5.1406,-5.1406,-5.1404,-5.1391,-5.13,-5.1236,-5.1179,-5.1091,-5.0987,-5.089,-5.0956,-5.0786,-5.0642,-5.0822,-5.0698,0.0,-5.0906,-5.0971,-5.0995,-5.1128,-5.1201,-5.1265,-5.1323,-5.1361,-5.1362,-5.1386,-5.1379,-5.1344,-5.1235,-5.1259,-5.1224,-5.1029,-5.1122,-5.1128,-5.0929,-5.096,-5.0964,-5.0947,-5.1816,-5.2974,-5.4398,-5.5241,-5.564,-5.5596,-5.5573,-5.5551,-5.548,-5.5408,-5.5358,-5.5314,-5.4952,-5.4866,-5.5037,-5.4727,-5.4623,-5.4742,-5.461,-5.4274,-5.3795,-5.3586,-5.3505,-5.3407,-5.2361,-5.2,-5.2108,-5.1521,-5.1228,-5.1052,-4.7638,-4.7919,-4.8327,-4.9057,-4.9302,-4.9558,-5.0062,-5.0159,-5.0363,-5.0805,-5.0918,-5.1039,-5.115,-5.1176,-5.1203,-5.1203,-5.1297,-5.1367,-5.1394,-5.1394,-5.1394,-5.1394,-5.1367,-5.1362,-5.1362,-5.1238,-5.1159,-5.1159,-5.1053,-5.1008,-5.1008,-5.1008,-5.1008,-5.0996,-5.1004,-5.1,-5.1015,-5.1111,-5.1113,-5.1033,-5.115,-5.1187,-5.1195,-5.1333,-5.1391,-5.1404,-5.1391,-5.1398,-5.1406,-5.1394,-5.1398,-5.1364,-5.118,-5.1178,-5.1172,-5.0981,-5.0877,-5.0808,-5.0839,-5.0717,-5.0625,-5.072,-5.07,0.0,-5.0733,-5.0767,-5.0767,-5.0797,-5.0889,-5.0992,-5.1005,-5.1039,-5.1103,-5.1218,-5.1238,-5.1247,-5.1288,-5.1291,-5.127,-5.1184,-5.1145,-5.1076,-5.0979,-5.0928,-5.118,-5.1796,-5.3148,-5.4047,-5.4322,-5.5109,-5.5527,-5.5527,-5.548,-5.5432,-5.5432,-5.5307,-5.5064,-5.476,-5.4628,-5.4369,-5.399,-5.3885,-5.3776,-5.3702,-5.3608,-5.3434,-5.3152,-5.2852,-5.2852,-5.3065,-5.2417,-5.2042,-5.1848,-5.147,-5.1017,-5.0453,-4.6945,-4.7205,-4.7522,-4.8065,-4.8372,-4.865,-4.8919,-4.912,-4.9489,-5.0155,-5.0751,-5.1161,-5.1284,-5.131,-5.131,-5.131,-5.1361,-5.1401,-5.1394,-5.1394,-5.1394,-5.1394,-5.1394,-5.1394,-5.1394,-5.1333,-5.1297,-5.1297,-5.1218,-5.1203,-5.1203,-5.1203,-5.1203,-5.1203,-5.1209,-5.12,-5.1206,-5.1278,-5.1291,-5.1239,-5.1291,-5.1284,-5.1264,-5.1357,-5.1381,-5.1343,-5.1347,-5.1346,-5.1363,-5.1385,-5.1381,-5.1328,-5.1187,-5.1148,-5.1105,-5.0917,-5.0822,-5.0789,-5.0754,-5.0469,-5.021,-5.0344,-5.0126,0.0,0.0,-5.0099,-5.0125,-5.0237,-5.0298,-5.0355,-5.041,-5.06,-5.0765,-5.0845,-5.1044,-5.1201,-5.125,-5.1258,-5.1214,-5.1103,-5.1054,-5.0962,-5.0852,-5.122,-5.1953,-5.3166,-5.393,-5.4495,-5.4824,-5.5227,-5.5432,-5.5339,-5.5333,-5.5262,-5.5255,-5.5176,-5.5019,-5.4746,-5.4509,-5.4292,-5.4083,-5.3851,-5.374,-5.3758,-5.3528,-5.3267,-5.2864,-5.2335,-5.2149,-5.2101,-5.1866,-5.1586,-5.1296,-5.1088,-5.0585,-4.993,-4.6043,-4.6434,-4.6681,-4.6928,-4.7397,-4.7723,-4.7767,-4.8047,-4.8535,-4.9272,-5.0315,-5.1031,-5.1146,-5.1294,-5.1401,-5.1401,-5.1401,-5.141,-5.1405,-5.1402,-5.1402,-5.1402,-5.1398,-5.1394,-5.1394,-5.1394,-5.1394,-5.1394,-5.1394,-5.1394,-5.1394,-5.1394,-5.1394,-5.1394,-5.1402,-5.1408,-5.1408,-5.1405,-5.1389,-5.1372,-5.1398,-5.1377,-5.1316,-5.1359,-5.1348,-5.1297,-5.1294,-5.1294,-5.1293,-5.1365,-5.1341,-5.126,-5.1218,-5.1152,-5.1067,-5.0871,-5.0803,-5.0752,-5.0587,-5.0187,-4.9811,-4.9841,-4.9504,-4.9209,0.0,0.0,0.0,-4.9689,-4.9744,-4.9792,-4.9828,-5.0162,-5.0405,-5.0252,-5.0733,-5.1108,-5.0994,-5.1093,-5.1161,-5.1064,-5.0955,-5.0863,-5.0758,-5.1645,-5.2838,-5.4268,-5.4472,-5.4786,-5.5364,-5.5383,-5.5307,-5.5183,-5.5203,-5.5149,-5.5094,-5.5066,-5.4903,-5.4661,-5.4262,-5.4069,-5.398,-5.3624,-5.3468,-5.3565,-5.3208,-5.2802,-5.2361,-5.1848,-5.1434,-5.1123,-5.1176,-5.0928,-5.0567,-5.0567,-5.0085,-4.9351,-4.5959,-4.648,-4.6802,-4.7197,-4.75,-4.7788,-4.801,-4.8086,-4.8229,-4.8515,-4.9523,-5.0237,-5.0243,-5.0949,-5.1405,-5.1405,-5.1405,-5.1406,-5.1406,-5.1403,-5.1398,-5.1403,-5.1408,-5.1394,-5.1394,-5.1394,-5.1394,-5.1394,-5.1394,-5.1394,-5.1394,-5.1394,-5.1394,-5.1394,-5.1402,-5.14,-5.1398,-5.1402,-5.1367,-5.1324,-5.1374,-5.139,-5.1375,-5.1328,-5.1318,-5.1304,-5.1297,-5.1269,-5.1239,-5.1361,-5.1328,-5.1203,-5.1201,-5.1156,-5.1081,-5.0928,-5.0789,-5.0625,-5.0199,-4.993,-4.973,-4.9464,-4.9314,-4.9302,-4.9314,0.0,-4.9326,-4.9367,0.0,-4.9627,-4.9608,0.0,0.0,-4.9356,-5.0195,-5.0752,-5.0217,-5.0742,-5.1225,-5.1257,-5.1053,-5.0906,-5.0891,-5.2184,-5.3411,-5.4261,-5.4967,-5.538,-5.5409,-5.5275,-5.5229,-5.5183,-5.5149,-5.5094,-5.5094,-5.4874,-5.4425,-5.3758,-5.3452,-5.2914,-5.2191,-5.1884,-5.1736,-5.1604,-5.1244,-5.1087,-5.0999,-5.0946,-5.0766,-5.0526,-5.0766,-5.0384,-4.9705,-4.9705,-4.9231,-4.8463,-4.4935,-4.5348,-4.5663,-4.6031,-4.6294,-4.655,-4.6741,-4.7287,-4.7734,-4.7853,-4.8736,-4.9328,-4.9283,-5.0069,-5.0582,-5.0582,-5.1049,-5.1367,-5.1406,-5.1405,-5.1402,-5.1402,-5.1405,-5.1394,-5.1394,-5.1394,-5.1394,-5.1394,-5.1394,-5.1394,-5.1394,-5.1394,-5.1394,-5.1394,-5.1402,-5.1403,-5.1398,-5.1405,-5.1386,-5.1364,-5.1343,-5.1342,-5.134,-5.131,-5.1255,-5.1183,-5.1225,-5.1219,-5.123,-5.1349,-5.1302,-5.1203,-5.1297,-5.1228,-5.1074,-5.0893,-5.0778,-5.0625,-5.0275,-5.0012,-4.9803,-4.9491,-4.924,-4.9048,-4.89,-4.8869,-4.8834,-4.8885,0.0,0.0,0.0,0.0,0.0,0.0,-5.0122,-5.0642,-5.0534,-5.1339,-5.1965,-5.1982,-5.1862,-5.2115,-5.2966,-5.361,-5.4222,-5.4882,-5.5343,-5.5554,-5.5403,-5.5275,-5.5083,-5.4798,-5.4628,-5.4554,-5.4476,-5.4259,-5.396,-5.3606,-5.3508,-5.3078,-5.2397,-5.209,-5.191,-5.1879,-5.1347,-5.1158,-5.1087,-5.0422,-5.0028,-4.993,-4.9563,-4.9385,-4.9325,-4.9248,-4.8697,-4.8,-4.4374,-4.4599,-4.4825,-4.514,-4.5419,-4.5654,-4.5786,-4.6513,-4.7047,-4.7086,-4.7899,-4.845,-4.8386,-4.9352,-5.0038,-5.0038,-5.0818,-5.1346,-5.1403,-5.1406,-5.1404,-5.1406,-5.1408,-5.1394,-5.1405,-5.1398,-5.1394,-5.1394,-5.1394,-5.1394,-5.1394,-5.1394,-5.1394,-5.1394,-5.1385,-5.1387,-5.1405,-5.1365,-5.134,-5.134,-5.1336,-5.1322,-5.1303,-5.1278,-5.1206,-5.1109,-5.1205,-5.1206,-5.1209,-5.1345,-5.1307,-5.1222,-5.1359,-5.1263,-5.1092,-5.0914,-5.0821,-5.069,-5.032,-5.0087,-4.9846,-4.9431,-4.9099,-4.8847,-4.8569,-4.8513,-4.8494,-4.8569,-4.8605,0.0,0.0,0.0,-4.9307,-4.9343,0.0,-5.0603,-5.0885,-5.1812,-5.2458,-5.2526,-5.2687,-5.3273,-5.4568,-5.4639,-5.4862,-5.5435,-5.5628,-5.5605,-5.5365,-5.5248,-5.5,-5.4666,-5.4322,-5.4153,-5.4139,-5.387,-5.3644,-5.3447,-5.3385,-5.3011,-5.2379,-5.2054,-5.1874,-5.1777,-5.1226,-5.0999,-5.0946,-5.0085,-4.9622,-4.9428,-4.8714,-4.8543,-4.8748,-4.8589,-4.8113,-4.7488,-4.4726,-4.4776,-4.4872,-4.514,-4.5419,-4.5654,-4.5786,-4.5978,-4.6118,-4.6059,-4.6973,-4.7617,-4.7558,-4.9072,-5.011,-5.011,-5.0891,-5.1394,-5.1401,-5.1406,-5.1406,-5.1398,-5.1394,-5.1406,-5.1404,-5.1408,-5.1394,-5.1394,-5.1394,-5.1394,-5.1394,-5.1394,-5.1394,-5.1398,-5.1324,-5.134,-5.1386,-5.1269,-5.12,-5.1226,-5.1349,-5.1352,-5.1297,-5.1217,-5.1146,-5.1113,-5.125,-5.1205,-5.1139,-5.1335,-5.1308,-5.122,-5.1367,-5.131,-5.116,-5.1035,-5.0984,-5.0849,-5.0189,-5.0064,-4.9898,-4.9029,-4.8847,-4.8813,-4.8402,-4.8401,-4.8513,-4.8513,-4.8642,-4.8822,-4.8874,-4.922,-4.9315,-4.8815,-4.972,0.0,0.0,-5.1744,-5.2372,-5.2577,-5.328,-5.4061,-5.4828,-5.4893,-5.5109,-5.5654,-5.5712,-5.5568,-5.521,-5.5149,-5.5066,-5.5,-5.4392,-5.4259,-5.4597,-5.3944,-5.3388,-5.3004,-5.2882,-5.2286,-5.1333,-5.0982,-5.0712,-5.0453,-5.0149,-5.0051,-5.0051,-4.9993,-4.9666,-4.9178,-4.8606,-4.8113,-4.777,-4.777,-4.7354,-4.6961,-4.4938,-4.503,-4.5159,-4.5419,-4.5584,-4.5731,-4.5917,-4.6065,-4.617,-4.6131,-4.646,-4.6658,-4.6647,-4.7676,-4.8609,-4.9195,-5.0035,-5.0781,-5.1371,-5.1366,-5.1348,-5.1394,-5.1359,-5.1347,-5.14,-5.1394,-5.1396,-5.1394,-5.1394,-5.1394,-5.1394,-5.1394,-5.1394,-5.1398,-5.1386,-5.1386,-5.1403,-5.1341,-5.1328,-5.1328,-5.1335,-5.1258,-5.1175,-5.1132,-5.1132,-5.1105,-5.1186,-5.1186,-5.1128,-5.1328,-5.1313,-5.1213,-5.1367,-5.134,-5.1222,-5.1044,-5.0994,-5.0918,-5.0546,-5.045,-5.0262,-4.9607,-4.9405,-4.9227,-4.875,-4.8679,-4.8715,-4.8751,-4.8892,-4.9015,-4.9098,-4.9211,-4.9302,-4.9287,-5.0285,-5.1143,0.0,-5.3019,-5.4302,-5.4911,-5.5174,-5.545,-5.5793,-5.5709,-5.5649,-5.5712,-5.5711,-5.5544,-5.521,-5.5149,-5.4884,-5.4425,-5.4067,-5.3796,-5.3545,-5.324,-5.2882,-5.2472,-5.2417,-5.203,-5.1298,-5.0928,-5.0657,-5.0415,-5.0109,-4.9801,-4.9453,-4.9453,-4.8951,-4.8194,-4.8,-4.7621,-4.715,-4.715,-4.7098,-4.6876,-4.5052,-4.5222,-4.5381,-4.5635,-4.5752,-4.5854,-4.5986,-4.6102,-4.619,-4.6206,-4.6197,-4.6191,-4.6192,-4.6992,-4.7886,-4.8726,-4.9606,-5.0469,-5.1336,-5.1364,-5.1347,-5.1408,-5.1352,-5.1355,-5.1406,-5.1402,-5.1401,-5.1405,-5.1382,-5.1379,-5.1394,-5.1405,-5.1408,-5.1391,-5.1386,-5.1361,-5.1366,-5.1349,-5.1343,-5.1359,-5.1317,-5.1249,-5.1161,-5.1139,-5.1139,-5.1139,-5.1181,-5.1171,-5.115,-5.1304,-5.1317,-5.1255,-5.1364,-5.1364,-5.1313,-5.1182,-5.1121,-5.1054,-5.0865,-5.0781,-5.0605,-5.0016,-4.9834,-4.9655,-4.9008,-4.8925,-4.8974,-4.9023,-4.9079,-4.9197,-4.9461,-4.9346,-4.9365,-4.9776,-5.062,-5.1585,0.0,-5.4177,-5.5502,-5.6122,-5.6236,-5.6282,-5.6348,-5.6252,-5.6057,-5.5788,-5.575,-5.5568,-5.5183,-5.5094,-5.4825,-5.4292,-5.396,-5.3606,-5.3217,-5.2937,-5.2608,-5.2185,-5.209,-5.1719,-5.1105,-5.082,-5.0509,-5.0263,-5.0051,-4.9666,-4.9178,-4.9178,-4.8639,-4.7704,-4.7704,-4.7354,-4.6876,-4.6876,-4.6876,-4.6876,-4.5118,-4.5362,-4.5565,-4.5752,-4.5906,-4.5998,-4.6007,-4.6102,-4.6183,-4.6181,-4.6206,-4.6209,-4.6207,-4.7008,-4.7865,-4.8665,-4.954,-5.0418,-5.1277,-5.1382,-5.1402,-5.1401,-5.1386,-5.1386,-5.1394,-5.1398,-5.1398,-5.1396,-5.133,-5.1324,-5.1394,-5.1398,-5.1404,-5.1404,-5.1338,-5.1297,-5.1299,-5.1234,-5.1248,-5.13,-5.13,-5.13,-5.1292,-5.123,-5.1211,-5.1201,-5.1201,-5.1181,-5.1201,-5.1279,-5.1288,-5.1304,-5.1382,-5.1405,-5.1391,-5.1398,-5.1344,-5.1245,-5.1072,-5.0998,-5.0828,-5.0202,-5.0134,-4.9997,-4.9209,-4.9132,-4.9259,-4.9333,-4.922,-4.9334,-4.9986,-4.9655,-4.9548,-5.0197,-5.0831,-5.1965,-5.4158,-5.5188,-5.5824,-5.6158,-5.6367,-5.6484,-5.6502,-5.6497,-5.6327,-5.5916,-5.5835,-5.5594,-5.5102,-5.5038,-5.4893,-5.4597,-5.4086,-5.372,-5.3545,-5.3048,-5.2608,-5.2155,-5.1897,-5.1449,-5.0803,-5.0509,-5.0246,-5.0011,-5.0011,-4.9666,-4.9178,-4.9178,-4.8639,-4.7704,-4.7704,-4.7354,-4.6876,-4.6876,-4.6876,-4.6876,-4.5007,-4.5398,-4.5713,-4.5718,-4.5841,-4.5944,-4.5997,-4.6027,-4.6065,-4.6123,-4.6125,-4.6142,-4.6198,-4.6422,-4.6914,-4.7823,-4.8669,-4.9501,-5.0379,-5.1031,-5.1403,-5.1394,-5.1294,-5.1303,-5.1405,-5.1302,-5.1289,-5.1323,-5.1297,-5.133,-5.1405,-5.1396,-5.139,-5.1405,-5.1377,-5.1367,-5.1372,-5.1359,-5.1327,-5.13,-5.13,-5.1256,-5.123,-5.1211,-5.1161,-5.1128,-5.1128,-5.1093,-5.1088,-5.1233,-5.1269,-5.1257,-5.1357,-5.1406,-5.1384,-5.133,-5.1277,-5.1205,-5.1161,-5.1037,-5.0855,-5.0586,-5.0406,-5.0183,-4.9759,-4.9686,-4.9736,-4.9743,-4.9789,-4.9853,-4.9872,-4.9811,-4.9929,-5.0505,-5.1916,-5.3495,-5.5061,-5.5536,-5.5806,-5.6151,-5.6296,-5.6386,-5.6484,-5.6324,-5.6096,-5.5843,-5.5803,-5.5566,-5.5038,-5.5053,-5.4895,-5.4472,-5.4179,-5.3719,-5.3005,-5.2893,-5.2472,-5.1822,-5.1571,-5.1193,-5.0803,-5.0509,-5.0246,-5.0011,-5.0011,-4.9666,-4.9178,-4.9178,-4.8639,-4.7704,-4.7704,-4.7354,-4.6876,-4.6876,-4.6876,-4.6876,-4.5118,-4.5454,-4.5692,-4.561,-4.5723,-4.5854,-4.5983,-4.5997,-4.6017,-4.6047,-4.6115,-4.6162,-4.6203,-4.6222,-4.66,-4.7518,-4.8354,-4.9204,-5.0048,-5.0925,-5.1394,-5.1394,-5.1328,-5.1322,-5.1406,-5.1324,-5.1318,-5.134,-5.1316,-5.1336,-5.1405,-5.1396,-5.1403,-5.1406,-5.1367,-5.1361,-5.1342,-5.1297,-5.1222,-5.1161,-5.112,-5.1089,0.0,-5.1081,-5.1069,-5.1056,-5.103,-5.1043,-5.1108,-5.1224,-5.1256,-5.1271,-5.1361,-5.1406,-5.1386,-5.1352,-5.1313,-5.1277,-5.1214,-5.1139,-5.1044,-5.087,-5.075,-5.0557,-5.02,-5.0125,-5.0107,-5.0134,-5.0111,-5.0134,-5.0325,-5.0403,-5.0732,-5.1744,-5.2755,-5.3907,-5.5284,-5.5458,-5.5611,-5.6046,-5.6161,-5.6225,-5.6395,-5.6289,-5.6131,-5.5996,-5.593,-5.5651,-5.508,-5.5031,-5.481,-5.4287,-5.4163,-5.368,-5.2806,-5.2662,-5.2203,-5.1538,-5.1105,-5.0784,-5.0602,-5.0359,-5.0149,-5.0011,-4.9725,-4.9333,-4.8855,-4.8623,-4.8065,-4.7354,-4.7354,-4.7167,-4.6876,-4.6876,-4.6876,-4.6876,-4.5302,-4.5495,-4.5568,-4.5513,-4.5601,-4.5727,-4.5899,-4.5953,-4.5975,-4.6011,-4.6104,-4.6177,-4.6196,-4.6242,-4.6597,-4.7363,-4.832,-4.9197,-4.9898,-5.0852,-5.1398,-5.1394,-5.1394,-5.1394,-5.1394,-5.1385,-5.1386,-5.1366,-5.1328,-5.1327,-5.1364,0.0,-5.1377,-5.1391,-5.1346,-5.1299,-5.1296,-5.1181,-5.1093,-5.103,-5.0898,-5.0932,-5.1024,-5.0961,-5.0976,-5.1017,-5.0947,-5.1037,-5.1163,-5.1172,-5.1236,-5.1297,-5.1382,-5.1406,-5.1406,-5.1406,-5.1387,-5.1357,-5.1241,-5.1244,-5.125,-5.1068,-5.1088,-5.1011,-5.061,-5.051,-5.0488,-5.047,-5.0329,-5.041,-5.1076,-5.135,-5.1923,-5.3218,-5.3453,-5.391,-5.5186,-5.5249,-5.5378,-5.5971,-5.6044,0.0,-5.6279,-5.6295,-5.626,-5.6173,-5.6102,-5.5767,-5.5123,-5.5026,-5.4733,-5.4108,-5.4091,-5.3699,-5.2893,-5.2472,-5.2006,-5.1384,-5.0729,-5.0415,-5.0415,-5.0092,-4.9935,-4.9877,-4.9394,-4.8917,-4.8353,-4.7869,-4.7354,-4.6876,-4.6876,-4.6876,-4.6876,-4.6876,-4.6876,-4.6876,-4.5216,-4.5438,-4.5513,-4.5495,-4.551,-4.5543,-4.5505,-4.5703,-4.5874,-4.5977,-4.6016,-4.608,-4.6189,-4.6215,-4.6305,-4.6503,-4.7988,-4.8965,-4.91,-5.0541,-5.1391,-5.1394,-5.1394,-5.1394,-5.1394,-5.1346,-5.1293,-5.1232,-5.1226,-5.1232,-5.1234,-5.125,-5.1284,-5.139,-5.139,-5.1382,-5.1385,-5.131,-5.1256,-5.1248,-5.1219,-5.1228,-5.1234,-5.1162,-5.1141,-5.1167,-5.1139,-5.1069,-5.097,-5.1089,-5.1162,-5.1234,-5.1365,-5.1406,-5.1406,-5.1406,-5.1367,-5.1305,-5.1291,-5.1247,-5.1218,-5.1248,-5.122,-5.116,-5.108,-5.1032,-5.0957,-5.0841,-5.0839,-5.1032,-5.1659,-5.2758,-5.3574,-5.3556,-5.423,-5.4989,-5.5631,-5.5608,-5.5711,-5.6197,-5.6257,-5.6259,-5.6301,-5.6305,-5.6224,-5.6051,-5.6221,-5.5952,-5.5052,-5.5077,-5.4789,-5.4108,-5.3944,-5.3639,-5.3235,-5.2607,-5.2083,-5.1701,-5.0803,-5.0415,-5.0415,-5.0092,-4.9742,-4.9316,-4.9256,-4.8917,-4.8353,-4.7869,-4.7354,-4.6876,-4.6876,-4.6876,-4.6876,-4.6876,-4.6876,-4.6876,-4.4739,-4.4962,-4.5118,-4.5052,-4.518,-4.5322,-4.5343,-4.5473,-4.5596,-4.5781,-4.5783,-4.5867,-4.603,-4.6083,-4.6123,-4.619,-4.7812,-4.8867,-4.8906,-5.0468,-5.1403,-5.1398,-5.1394,-5.1405,-5.1394,-5.1363,-5.1347,-5.1302,-5.1302,-5.1301,-5.1294,-5.1296,-5.1343,-5.1406,-5.134,-5.1288,-5.125,-5.1142,-5.1035,-5.0932,-5.0972,-5.0985,-5.0953,-5.0991,-5.1042,-5.1113,-5.118,-5.1139,-5.1066,-5.1122,-5.1218,-5.1328,-5.1381,-5.1402,-5.1404,-5.1404,-5.1386,-5.1344,-5.1277,-5.1275,-5.1302,-5.1258,-5.1222,-5.1186,-5.119,-5.1159,-5.1061,-5.0945,-5.1304,-5.2005,-5.305,-5.3781,-5.4303,-5.4585,-5.4912,-5.5336,-5.578,-5.5752,-5.5807,-5.6193,-5.6251,-5.628,-5.6348,-5.6358,-5.6305,-5.6166,-5.6315,-5.6,-5.5065,-5.5044,-5.4732,-5.3963,-5.3832,-5.3484,-5.2802,-5.2345,-5.1728,-5.1052,-5.0453,-5.0206,-5.0206,-5.0051,-4.9725,-4.9178,-4.8934,-4.848,-4.8,-4.7488,-4.715,-4.6876,-4.6876,-4.6876,-4.6876,-4.6876,-4.6876,-4.6876,-4.3923,-4.4215,-4.4471,-4.4336,-4.465,-4.4929,-4.5052,-4.5074,-4.522,-4.5587,-4.5674,-4.5745,-4.592,-4.6024,-4.6099,-4.6147,-4.777,-4.8848,-4.8906,-5.0469,-5.1406,-5.1406,-5.1404,-5.1398,-5.1405,-5.1394,-5.1362,-5.1352,-5.1351,-5.1346,-5.1318,-5.1355,-5.1366,-5.1357,-5.1237,-5.1139,-5.1081,-5.0959,-5.0828,-5.0699,-5.075,-5.075,-5.075,-5.084,-5.0945,-5.1081,-5.1191,-5.1217,-5.1195,-5.1238,-5.1285,-5.1366,-5.1362,-5.1394,-5.1394,-5.1394,-5.14,-5.1377,-5.1278,-5.1311,-5.1372,-5.1263,-5.1231,-5.1217,-5.1218,-5.1169,-5.1155,-5.1233,-5.2114,-5.3223,-5.4317,-5.463,-5.494,-5.5516,-5.5491,-5.5536,-5.5924,-5.5858,-5.5929,-5.6223,-5.6242,-5.6276,-5.6367,-5.6397,-5.6373,-5.6289,-5.6335,-5.5991,-5.5097,-5.514,-5.477,-5.3889,-5.3833,-5.3428,-5.2571,-5.2047,-5.1396,-5.0602,-5.0206,-5.0011,-5.0011,-4.9877,-4.953,-4.8995,-4.848,-4.7983,-4.7504,-4.7082,-4.6876,-4.6876,-4.6876,-4.6876,-4.6876,-4.6876,-4.6876,-4.6876,-4.2686,-4.314,-4.3495,-4.3361,-4.3844,-4.4279,-4.4289,-4.4345,-4.4723,-4.5666,-4.5882,-4.5988,-4.6065,-4.6212,-4.6277,-4.6293,-4.7879,-4.8887,-4.8906,-5.0469,-5.1406,-5.1406,-5.1406,-5.1406,-5.1406,-5.1351,-5.1284,-5.1209,-5.1221,-5.1151,-5.1034,-5.121,-5.1271,-5.1229,-5.1219,-5.1141,-5.1003,-5.1005,-5.099,-5.0976,-5.0976,-5.1037,-5.115,-5.1161,-5.1201,-5.1273,-5.1349,-5.1308,-5.1229,-5.1344,-5.1308,-5.1229,-5.1291,-5.1343,-5.1398,-5.1398,-5.1398,-5.141,-5.1374,-5.1344,-5.1321,-5.1372,-5.1346,-5.1297,-5.1288,-5.1297,-5.1482,-5.2202,-5.3682,-5.4789,-5.4624,-5.5462,-5.6069,-5.5672,-5.5881,-5.6122,-5.6183,-5.6154,-5.6223,-5.6454,-5.6415,-5.6352,-5.6307,-5.6415,-5.6403,-5.622,-5.6278,-5.5976,-5.5229,-5.5357,-5.5045,-5.4108,-5.3887,-5.3721,-5.3487,-5.2131,-5.1381,-5.1296,-5.0397,-5.0011,-4.9993,-4.953,-4.8995,-4.848,-4.8,-4.7488,-4.6945,-4.6945,-4.6876,-4.6876,-4.6876,-4.6876,-4.6876,-4.6876,-4.6876,-4.6876,-4.1706,-4.2121,-4.241,-4.2255,-4.2814,-4.3306,-4.3317,-4.3719,-4.4252,-4.4764,-4.5125,-4.5468,-4.581,-4.5916,-4.5969,-4.5996,-4.7582,-4.862,-4.8652,-5.0295,-5.1288,-5.1289,-5.1367,-5.1406,-5.1406,-5.1361,-5.1349,-5.1315,-5.1326,-5.1284,-5.1249,-5.1328,-5.1301,-5.1191,-5.1033,-5.094,-5.0865,-5.0928,-5.0906,-5.0827,-5.0921,-5.0917,-5.0921,-5.099,-5.1043,-5.1062,-5.1133,-5.1191,-5.1205,-5.126,-5.1299,-5.1325,-5.1355,-5.1382,-5.14,-5.1394,-5.1402,-5.1386,-5.1342,-5.1297,-5.1267,-5.1327,-5.1278,-5.1386,-5.1945,-5.2079,-5.2297,-5.2999,-5.4175,-5.5166,-5.5602,-5.6006,-5.6239,-5.609,-5.6178,-5.6281,-5.6363,-5.642,-5.6434,-5.644,-5.6424,-5.636,-5.6313,-5.6344,-5.6367,-5.6319,-5.6383,-5.6127,-5.5474,-5.5364,-5.5,-5.4296,-5.3607,-5.3051,-5.2597,-5.1611,-5.0911,-5.0547,-5.0206,-5.0011,-5.0011,-4.9453,-4.8748,-4.7934,-4.7421,-4.7082,-4.6876,-4.6876,-4.6876,-4.6876,-4.6876,-4.6738,-4.6512,-4.6512,-4.6372,-4.6246,-4.0391,-4.0643,-4.0892,-4.1138,-4.1629,-4.2063,-4.2276,-4.2938,-4.3486,-4.3713,-4.4214,-4.4815,-4.5437,-4.5577,-4.5679,-4.5755,-4.7434,-4.8535,-4.8612,-5.027,-5.1261,-5.1266,-5.1347,-5.1406,-5.1406,-5.1382,-5.1355,-5.1308,-5.1325,-5.1304,-5.1258,-5.1263,-5.1225,-5.1102,-5.0889,-5.0786,-5.0771,-5.0825,-5.0775,-5.0702,-5.0841,-5.0858,-5.0808,-5.0942,-5.1024,-5.1042,-5.1113,-5.1178,-5.1258,-5.1258,-5.1316,-5.1402,-5.1402,-5.1404,-5.1405,-5.1372,-5.1382,-5.139,-5.1341,-5.1297,-5.1263,-5.1284,-5.1459,-5.1811,-5.2451,-5.2811,-5.3215,-5.3952,-5.4797,-5.5638,-5.6336,-5.6377,-5.6339,-5.6357,-5.6375,-5.641,-5.6437,-5.6517,-5.6543,-5.644,-5.6421,-5.6387,-5.6241,-5.628,-5.6292,-5.6285,-5.6224,-5.6042,-5.566,-5.5384,-5.5,-5.4476,-5.3436,-5.2649,-5.2105,-5.1225,-5.0439,-4.9884,-4.9993,-4.9935,-4.9742,-4.9195,-4.8353,-4.7286,-4.6876,-4.6668,-4.6598,-4.6668,-4.6668,-4.6598,-4.6668,-4.6512,-4.6159,-4.6159,-4.6032,-4.5832,-3.8502,-3.8553,-3.8904,-4.0035,-4.0323,-4.0643,-4.1314,-4.189,-4.2322,-4.2577,-4.3317,-4.413,-4.4906,-4.5291,-4.5563,-4.5685,-4.754,-4.8759,-4.8887,-5.0472,-5.1405,-5.139,-5.1402,-5.1406,-5.1406,-5.1333,-5.1242,-5.1098,-5.1181,-5.1102,-5.0897,-5.0977,-5.0966,-5.0893,-5.0813,-5.0773,-5.0683,-5.0702,-5.0683,-5.0702,-5.0841,-5.0942,-5.1011,-5.1152,-5.1284,-5.1396,-5.1396,-5.1406,-5.1398,-5.1404,-5.1406,-5.1406,-5.1406,-5.1406,-5.1398,-5.1318,-5.1357,-5.1398,-5.1394,-5.1404,-5.1374,-5.1328,-5.2006,-5.2667,-5.2619,-5.3316,-5.4225,-5.5093,-5.5861,-5.6432,-5.6577,-5.6606,-5.6523,-5.6329,-5.6478,-5.6523,-5.6329,-5.643,-5.6503,-5.6501,-5.6494,-5.6395,-5.6125,-5.6231,-5.6216,-5.6026,-5.5708,-5.5566,-5.5689,-5.5519,-5.5141,-5.461,-5.3497,-5.2803,-5.2605,-5.1139,-5.0137,-4.9588,-4.9884,-4.9725,-4.9178,-4.8668,-4.7605,-4.6301,-4.6285,-4.6088,-4.5832,-4.6159,-4.6088,-4.5832,-4.6159,-4.6088,-4.5832,-4.5832,-4.5832,-4.5832,-3.6914,-3.7361,-3.7873,-3.823,-3.8879,-3.9426,-3.9665,-4.0909,-4.1824,-4.1896,-4.2607,-4.3226,-4.3472,-4.4398,-4.526,-4.5859,-4.7184,-4.8296,-4.8933,-5.0278,-5.1078,-5.1138,-5.1205,-5.1283,-5.1327,-5.1303,-5.1261,-5.1164,-5.0821,-5.0392,-4.9875,-4.981,-4.9698,-4.9596,-4.9478,-4.9409,-4.9438,-4.9841,-5.0021,-5.0068,-5.0567,-5.0775,-5.0808,-5.0839,-5.0942,-5.1062,-5.1062,-5.1152,-5.1258,-5.1263,-5.1269,-5.1269,-5.1269,-5.1333,-5.1405,-5.1372,-5.1379,-5.1398,-5.1396,-5.1796,-5.2218,-5.2239,-5.2889,-5.3685,-5.4296,-5.5097,-5.5806,-5.6115,-5.6308,-5.6438,-5.6517,-5.6523,-5.6504,-5.6442,-5.6484,-5.6504,-5.6442,-5.6426,-5.6417,-5.6377,-5.6327,-5.6238,-5.6054,-5.6108,-5.6144,-5.6065,-5.5921,-5.5748,-5.5578,-5.499,-5.4553,-5.434,-5.2941,-5.2144,-5.1982,-5.0768,-4.9884,-4.9342,-4.9436,-4.8872,-4.7754,-4.7572,-4.6965,-4.5961,-4.5961,-4.5905,-4.5832,-4.5905,-4.5905,-4.5832,-4.5905,-4.5744,-4.5395,-4.5395,-4.5247,-4.5024,-3.5809,-3.5839,-3.6136,-3.7235,-3.7467,-3.771,-3.8246,-3.9614,-4.0617,-4.0617,-4.1611,-4.2346,-4.2346,-4.3637,-4.4871,-4.5773,-4.716,-4.837,-4.9271,-5.0441,-5.1111,-5.1141,-5.123,-5.1285,-5.1296,-5.1298,-5.1247,-5.1169,-4.53,-4.2201,-4.1688,-3.6152,-3.6394,-4.1527,-4.1438,-4.4426,-4.9522,-4.9648,-4.9701,-4.9727,-4.9968,-5.0058,-5.0103,-5.0374,-5.0526,-5.0645,-5.0907,-5.1102,-5.1211,-5.1263,-5.1279,-5.1279,-5.1279,-5.1333,-5.1386,-5.1307,-5.1335,-5.1472,-5.1773,-5.2246,-5.2729,-5.3061,-5.3798,-5.4677,-5.5582,-5.6113,-5.6445,-5.6543,-5.6425,-5.6328,-5.6437,-5.6426,-5.6403,-5.6493,-5.6495,-5.6493,-5.6468,-5.6367,-5.6251,-5.6152,-5.6014,-5.5879,-5.5709,-5.5687,-5.5648,-5.5538,-5.5357,-5.5144,-5.4962,-5.443,-5.4062,-5.3831,-5.2309,-5.1494,-5.1411,-5.0474,-4.9607,-4.8917,-4.8606,-4.795,-4.7101,-4.6965,-4.6426,-4.5541,-4.5541,-4.5468,-4.5395,-4.5541,-4.5468,-4.5395,-4.5541,-4.5321,-4.4949,-4.4949,-4.4799,-4.4648,-3.4904,-3.4052,-3.3998,-3.6645,-3.6058,-3.5679,-3.698,-3.8044,-3.8696,-3.8712,-4.0163,-4.1226,-4.1288,-4.2787,-4.4199,-4.53,-4.7272,-4.8863,-4.9798,-5.0803,-5.1385,-5.1386,-5.0432,-4.9867,-4.9804,-4.8827,-4.8238,-4.8048,-3.4189,-2.7369,-2.7029,-1.3491,-1.4339,-2.7234,-2.7394,-3.5395,-4.8774,-4.8358,-4.8689,-4.9397,-4.9201,-4.9089,-4.9126,-4.9808,-5.0086,-5.0179,-5.0856,-5.1148,-5.1225,-5.1338,-5.1386,-5.1386,-5.1386,-5.1425,-5.1445,-5.1269,-5.1338,-5.1659,-5.2478,-5.2785,-5.3058,-5.3818,-5.4704,-5.5599,-5.6422,-5.6445,-5.6341,-5.6476,-5.6291,-5.6172,-5.6347,-5.6289,-5.6257,-5.6419,-5.6465,-5.6438,-5.6377,-5.6198,-5.6024,-5.5907,-5.5663,-5.539,-5.521,-5.5058,-5.488,-5.4633,-5.4274,-5.4015,-5.3943,-5.3842,-5.3571,-5.3145,-5.1651,-5.0858,-5.0858,-5.0268,-4.9411,-4.8336,-4.7505,-4.705,-4.6981,-4.6604,-4.5985,-4.5173,-4.5173,-4.4949,-4.4648,-4.5024,-4.4949,-4.4648,-4.5024,-4.4949,-4.4572,-4.4572,-4.4572,-4.4648,-3.2749,-3.3045,-3.3408,-3.4066,-3.4359,-3.4596,-3.4925,-3.5704,-3.644,-3.7042,-3.7269,-3.7552,-3.8155,-4.0363,-4.2168,-4.3072,-4.6237,-4.8556,-4.9393,-5.0467,-5.1138,-5.1249,-4.0712,-3.485,-3.489,-2.4177,-1.8202,-1.7535,-1.2152,-0.9241,-0.8647,-0.5242,-0.5376,-0.8656,-1.0386,-1.809,-2.9856,-3.227,-3.8465,-4.6874,-4.9314,-4.9988,-4.9554,-4.9733,-4.9866,-4.9965,-5.0144,-5.0646,-5.1211,-5.1245,-5.1252,-5.1252,-5.1252,-5.1687,-5.224,-5.2243,-5.2279,-5.25,-5.337,-5.4086,-5.4666,-5.49,-5.563,-5.6358,-5.6554,-5.6484,-5.6386,-5.6417,-5.6336,-5.6239,-5.617,-5.6141,-5.6104,-5.6038,-5.6038,-5.6038,-5.601,-5.5885,-5.5763,-5.5743,-5.5477,-5.5236,-5.5134,-5.5019,-5.4848,-5.4693,-5.4528,-5.4112,-5.3363,-5.2854,-5.2639,-5.2667,-5.1426,-5.0697,-5.0607,-5.008,-4.9195,-4.8015,-4.6965,-4.6214,-4.5656,-4.5583,-4.5231,-4.4723,-4.4723,-4.4723,-4.4572,-4.4723,-4.4663,-4.4572,-4.4723,-4.4648,-4.4572,-4.4572,-4.4572,-4.4572,-3.0904,-3.1288,-3.1656,-3.1866,-3.1897,-3.2157,-3.2765,-3.3493,-3.4303,-3.5213,-3.5567,-3.5922,-3.6438,-3.7767,-3.8851,-3.9322,-4.4499,-4.6446,-4.3287,-4.3736,-4.2484,-3.8877,-3.1221,-2.5485,-2.2162,-1.4428,-0.8452,-0.431,0.3742,0.7845,0.8352,1.5049,1.4671,0.8289,0.6037,-0.225,-1.4614,-1.7213,-2.5082,-3.5957,-3.7498,-4.1895,-4.7445,-4.7445,-4.8495,-4.9896,-4.9896,-5.0419,-5.1123,-5.1187,-5.1456,-5.1795,-5.1876,-5.2474,-5.3269,-5.3671,-5.3513,-5.335,-5.4156,-5.4767,-5.531,-5.579,-5.6204,-5.6519,-5.6581,-5.6465,-5.6358,-5.6358,-5.6257,-5.6145,-5.6101,-5.6026,-5.5971,-5.5985,-5.5932,-5.5898,-5.5863,-5.569,-5.5564,-5.5516,-5.516,-5.4905,-5.4806,-5.4623,-5.434,-5.3793,-5.3739,-5.3323,-5.2344,-5.1724,-5.1522,-5.1697,-5.0769,-5.005,-4.9612,-4.8709,-4.7917,-4.7272,-4.6269,-4.5599,-4.5173,-4.5024,-4.4799,-4.4572,-4.4572,-4.4572,-4.4572,-4.4572,-4.4572,-4.4572,-4.4572,-4.4572,-4.4572,-4.4572,-4.4572,-4.4572,-2.9257,-2.9139,-2.9294,-2.9847,-2.9158,-2.9028,-3.0312,-3.0863,-3.1523,-3.2528,-3.3225,-3.3682,-3.4024,-3.384,-3.3689,-3.3689,-3.9056,-4.0219,-3.505,-3.3289,-2.9364,-2.2423,-1.9019,-1.4341,-0.8049,-0.5786,-0.1334,0.5439,1.8338,2.46,2.4753,3.7407,3.6649,2.4617,2.2428,1.3597,0.0247,-0.2022,-0.9735,-2.064,-2.2676,-3.0785,-4.19,-4.4104,-4.6722,-4.9308,-4.9752,-5.037,-5.1039,-5.1306,-5.1893,-5.2565,-5.2826,-5.3483,-5.4326,-5.4991,-5.4757,-5.4417,-5.4972,-5.5264,-5.5589,-5.6405,-5.6504,-5.6469,-5.6567,-5.6453,-5.6309,-5.6309,-5.6153,-5.6038,-5.6075,-5.5937,-5.5865,-5.6026,-5.5917,-5.5827,-5.5788,-5.5538,-5.5306,-5.5191,-5.4776,-5.4416,-5.4233,-5.4055,-5.3584,-5.2696,-5.2607,-5.2206,-5.1207,-5.0751,-5.0477,-5.0439,-4.9907,-4.9299,-4.8539,-4.7172,-4.6448,-4.6378,-4.5583,-4.5173,-4.5098,-4.4723,-4.4572,-4.4572,-4.4572,-4.4572,-4.4572,-4.4572,-4.4572,-4.4572,-4.4572,-4.4572,-4.4572,-4.4572,-4.4572,-4.4572,-2.7279,-2.6827,-2.6642,-2.7933,-2.6712,-2.592,-2.6932,-2.6377,-2.6136,-2.6954,-2.6071,-2.5588,-2.6268,-2.5234,-2.446,-2.446,-2.1458,-2.2556,-2.9679,-2.1622,-1.5778,-1.3997,0.3546,1.3814,1.494,2.6968,3.3846,3.5064,3.9898,4.1992,4.1577,4.481,4.4693,4.1717,3.9919,3.2225,2.0263,1.5785,0.702,-0.4996,-1.9059,-2.5779,-2.8653,-4.0903,-4.5887,-4.6653,-4.9041,-5.037,-5.1117,-5.1996,-5.2454,-5.2791,-5.3561,-5.44,-5.5094,-5.5104,-5.5576,-5.6117,-5.6153,-5.6218,-5.6347,-5.6543,-5.6571,-5.6567,-5.6606,-5.6485,-5.6375,-5.6375,-5.6263,-5.6141,-5.6036,-5.5938,-5.5865,-5.5838,-5.5676,-5.5608,-5.57,-5.5396,-5.5028,-5.4678,-5.4326,-5.3925,-5.3431,-5.3281,-5.29,-5.2325,-5.2278,-5.1795,-5.0661,-5.057,-4.9993,-4.8821,-4.9073,-4.8934,-4.8158,-4.6932,-4.6182,-4.6008,-4.5421,-4.5024,-4.4723,-4.4648,-4.4572,-4.4572,-4.4572,-4.4572,-4.4572,-4.4572,-4.4572,-4.4572,-4.4572,-4.4572,-4.4572,-4.4572,-4.4572,-4.4572,-2.4999,-2.4956,-2.4935,-2.4724,-2.3649,-2.2997,-2.3846,-2.312,-2.2879,-2.3811,-2.3313,-2.238,-2.1025,-1.9761,-1.7612,-1.4263,-0.8068,-0.5236,-0.7601,-0.3168,0.1276,0.512,1.6884,2.5154,2.9064,3.9843,4.5414,4.5414,4.6875,4.7454,4.7196,4.7684,4.7679,4.7194,4.5483,4.1517,3.5913,3.2704,2.4445,1.2811,0.5112,-0.7062,-2.1237,-2.7627,-3.6808,-4.6415,-4.7296,-4.9101,-5.1136,-5.2085,-5.2792,-5.3454,-5.4359,-5.5247,-5.5927,-5.5868,-5.6079,-5.6362,-5.6427,-5.6453,-5.6468,-5.6562,-5.6599,-5.6585,-5.6504,-5.6439,-5.6381,-5.6309,-5.6232,-5.6185,-5.6117,-5.5993,-5.5885,-5.5862,-5.5527,-5.5288,-5.5317,-5.4874,-5.449,-5.4259,-5.4015,-5.3683,-5.323,-5.3143,-5.2714,-5.1831,-5.1799,-5.1209,-5.0062,-4.9605,-4.8989,-4.8144,-4.7655,-4.7172,-4.6625,-4.5681,-4.5126,-4.4887,-4.4783,-4.4663,-4.4435,-4.4435,-4.4511,-4.4587,-4.4358,-4.4358,-4.4435,-4.4358,-4.4281,-4.4281,-4.4435,-4.4358,-4.4281,-4.4435,-4.4358,-4.4281,-2.2435,-2.2853,-2.3008,-2.164,-2.0729,-2.0245,-2.0526,-1.9954,-1.9535,-2.0138,-1.9681,-1.8279,-1.5922,-1.3098,-0.9393,-0.4642,0.3791,1.0164,1.3392,1.572,1.8881,2.3221,2.8098,3.3276,3.8579,4.4979,4.8247,4.8196,4.8652,4.8808,4.8677,4.8874,4.8861,4.8608,4.7372,4.6629,4.6187,4.4364,3.8268,2.9599,2.6294,1.1576,-0.9003,-1.4669,-2.7156,-4.2105,-4.4937,-4.8108,-5.1146,-5.2267,-5.3157,-5.4001,-5.5163,-5.5976,-5.6504,-5.6504,-5.6356,-5.6247,-5.6406,-5.6439,-5.643,-5.6541,-5.6582,-5.6556,-5.6425,-5.6394,-5.6352,-5.6239,-5.6207,-5.6207,-5.6199,-5.6046,-5.5885,-5.5904,-5.5442,-5.5072,-5.5057,-5.4528,-5.4086,-5.3906,-5.3739,-5.341,-5.2999,-5.2956,-5.2499,-5.1347,-5.1174,-5.0587,-4.9333,-4.8748,-4.8225,-4.7688,-4.6502,-4.5737,-4.5405,-4.4708,-4.4205,-4.3988,-4.4127,-4.4205,-4.4205,-4.4205,-4.4281,-4.4435,-4.4127,-4.4065,-4.4205,-4.4065,-4.3988,-4.3988,-4.4205,-4.4143,-4.3988,-4.4205,-4.4127,-4.3988,-1.9555,-2.0051,-2.0421,-1.9694,-1.864,-1.7647,-1.6893,-1.5994,-1.5063,-1.4153,-1.1763,-0.9959,-0.964,-0.2314,0.2864,0.3436,1.4838,2.2247,2.2704,3.1628,3.5706,3.3121,4.0459,4.4489,4.4113,4.623,4.7207,4.7011,4.8384,4.8784,4.8273,4.9324,4.9335,4.8546,4.8839,4.8794,4.8313,4.5956,4.4619,4.2941,2.9875,2.2248,1.6057,-0.8213,-2.1237,-2.8369,-4.1887,-4.8536,-5.1194,-5.3069,-5.3736,-5.413,-5.5933,-5.6495,-5.6504,-5.6504,-5.6366,-5.6211,-5.6288,-5.6356,-5.643,-5.6482,-5.6543,-5.6556,-5.6426,-5.6407,-5.6356,-5.6232,-5.6247,-5.6275,-5.6213,-5.6036,-5.5902,-5.5901,-5.5402,-5.5057,-5.5182,-5.467,-5.4104,-5.3587,-5.3407,-5.3048,-5.2257,-5.218,-5.1804,-5.091,-5.0439,-4.9681,-4.8526,-4.8623,-4.8096,-4.6949,-4.6111,-4.5624,-4.5405,-4.4708,-4.4205,-4.3988,-4.3988,-4.3988,-4.3988,-4.3988,-4.4065,-4.405,-4.3988,-4.3988,-4.3988,-4.3988,-4.3988,-4.3988,-4.3988,-4.3988,-4.3988,-4.3988,-4.3988,-4.3988,-1.811,-1.7717,-1.7524,-1.7639,-1.5321,-1.3486,-1.3778,-1.2646,-1.0997,-0.9182,-0.8687,-0.6564,-0.1833,0.1641,0.6022,1.1926,1.9033,2.4617,2.8074,3.422,3.8687,4.0798,4.3339,4.5096,4.5985,4.6656,4.6999,4.7124,4.7722,4.7798,4.7396,4.8071,4.8203,4.7914,4.8651,4.8774,4.8404,4.7832,4.7536,4.6996,4.1636,3.3809,2.3676,0.8535,-0.4854,-1.698,-2.7693,-3.6784,-4.3897,-4.5117,-4.9168,-5.395,-5.5496,-5.5958,-5.601,-5.6348,-5.639,-5.6317,-5.6243,-5.6266,-5.6307,-5.6465,-5.6523,-5.6503,-5.6422,-5.6395,-5.636,-5.6233,-5.6259,-5.6286,-5.6207,-5.6036,-5.5901,-5.5844,-5.5231,-5.4758,-5.4755,-5.4198,-5.3641,-5.3222,-5.3091,-5.2806,-5.2246,-5.1822,-5.1262,-5.0659,-4.9705,-4.8944,-4.8513,-4.7638,-4.6673,-4.5494,-4.5067,-4.4708,-4.4556,-4.4266,-4.3895,-4.3581,-4.3754,-4.3832,-4.3832,-4.3832,-4.391,-4.3988,-4.366,-4.366,-4.3832,-4.366,-4.3581,-4.3581,-4.3754,-4.3754,-4.3581,-4.3754,-4.3754,-4.3581,-1.6055,-1.5341,-1.4652,-1.4417,-1.2052,-1.0184,-0.9989,-0.8935,-0.7257,-0.4757,-0.4552,-0.2499,0.3109,0.5786,0.9903,1.6463,2.1872,2.6558,3.0278,3.4523,3.8788,4.3107,4.3188,4.363,4.4677,4.5233,4.5588,4.5807,4.6471,4.671,4.6442,4.7133,4.7302,4.7097,4.7657,4.7657,4.7247,4.7958,4.8105,4.7895,4.8293,4.2272,3.2065,2.2625,0.9326,-0.5504,-1.4982,-2.7366,-3.936,-4.0221,-4.6308,-5.3756,-5.4997,-5.5414,-5.5514,-5.5864,-5.6091,-5.618,-5.6104,-5.614,-5.6226,-5.6362,-5.6444,-5.6465,-5.6367,-5.6386,-5.6379,-5.6173,-5.6211,-5.6232,-5.6075,-5.5898,-5.5712,-5.5558,-5.4971,-5.449,-5.4411,-5.3907,-5.3359,-5.2857,-5.2831,-5.2563,-5.1804,-5.1467,-5.0982,-5.031,-4.9274,-4.8509,-4.8065,-4.655,-4.5437,-4.4858,-4.4419,-4.4127,-4.391,-4.391,-4.366,-4.3329,-4.3503,-4.3596,-4.3596,-4.3596,-4.3675,-4.3738,-4.3409,-4.3423,-4.3596,-4.3344,-4.3329,-4.3329,-4.3518,-4.3423,-4.3329,-4.3518,-4.3423,-4.3329,-1.3011,-1.2833,-1.191,-0.9943,-0.9323,-0.8115,-0.5176,-0.4781,-0.3684,-0.0796,0.1495,0.3237,0.4402,1.1171,1.5796,1.6149,2.4256,2.9272,2.9364,3.3936,3.7486,3.9337,4.0737,4.106,4.0216,4.1853,4.2643,4.2492,4.4732,4.5635,4.5453,4.6692,4.6855,4.6187,4.6024,4.5558,4.4852,4.5923,4.6341,4.6364,4.7586,4.6853,4.3786,3.1923,1.9288,0.6324,-0.5605,-2.2398,-3.9091,-4.0056,-4.6121,-5.3491,-5.4533,-5.4978,-5.5083,-5.502,-5.5389,-5.5799,-5.5799,-5.6001,-5.6203,-5.6196,-5.6351,-5.6445,-5.6243,-5.6365,-5.6399,-5.607,-5.6097,-5.6097,-5.5744,-5.5588,-5.5378,-5.4971,-5.4629,-5.4321,-5.4127,-5.3869,-5.3359,-5.2391,-5.2707,-5.2325,-5.0661,-5.1052,-5.0911,-4.975,-4.9161,-4.8383,-4.7169,-4.5348,-4.4632,-4.5332,-4.448,-4.391,-4.369,-4.369,-4.3596,-4.3329,-4.3329,-4.3329,-4.3329,-4.3329,-4.3329,-4.3329,-4.3329,-4.3329,-4.3329,-4.3329,-4.3329,-4.3329,-4.3329,-4.3329,-4.3329,-4.3329,-4.3329,-4.3329,-1.0942,-0.9947,-0.8939,-0.754,-0.537,-0.3589,-0.2687,-0.1395,0.0299,0.2701,0.4557,0.7183,1.0782,1.5109,1.9025,2.2158,2.6576,3.0543,3.3604,3.6263,3.7994,3.8501,3.9899,4.0702,4.0861,4.2356,4.3287,4.3481,4.463,4.5005,4.4753,4.4885,4.4816,4.4585,4.4677,4.459,4.4412,4.494,4.4886,4.4572,4.4616,4.3666,4.118,3.1797,2.298,1.4336,0.5031,-1.0636,-2.6907,-2.7186,-3.5222,-4.5728,-4.9277,-5.2608,-5.519,-5.5335,-5.5467,-5.5583,-5.5524,-5.5752,-5.603,-5.6222,-5.6278,-5.6318,-5.6384,-5.6424,-5.6352,-5.6054,-5.604,-5.597,-5.5612,-5.5327,-5.5084,-5.4943,-5.4514,-5.4163,-5.4127,-5.341,-5.2747,-5.2345,-5.2253,-5.1692,-5.039,-5.0352,-4.9998,-4.8989,-4.7933,-4.6742,-4.5421,-4.4933,-4.4723,-4.4632,-4.405,-4.3769,-4.369,-4.369,-4.3596,-4.3329,-4.3329,-4.3329,-4.3329,-4.3329,-4.3329,-4.3329,-4.3329,-4.3329,-4.3329,-4.3329,-4.3329,-4.3329,-4.3329,-4.3329,-4.3329,-4.3329,-4.3329,-4.3329,-0.9178,-0.7093,-0.5295,-0.4579,-0.22,-0.01,0.0699,0.1699,0.3598,0.6778,0.8105,1.0538,1.5221,1.8103,2.1188,2.4736,2.8223,3.1659,3.5006,3.6136,3.6858,3.7169,3.834,3.9425,4.0436,4.1351,4.1901,4.2109,4.3005,4.3337,4.307,4.328,4.3214,4.289,4.297,4.2802,4.2517,4.3115,4.319,4.3013,4.2923,4.2277,4.0783,3.5437,2.8755,2.1231,1.4051,-0.0193,-1.6246,-2.0357,-3.0555,-4.2372,-4.6788,-5.009,-5.2711,-5.4429,-5.5107,-5.5233,-5.5215,-5.5446,-5.5747,-5.5884,-5.6116,-5.6291,-5.6367,-5.6406,-5.6358,-5.6059,-5.5982,-5.5855,-5.5523,-5.5218,-5.4969,-5.4746,-5.4296,-5.3944,-5.3851,-5.3226,-5.2526,-5.1886,-5.1772,-5.1136,-4.967,-4.9536,-4.9103,-4.8094,-4.6864,-4.5713,-4.4858,-4.4648,-4.4435,-4.405,-4.366,-4.3423,-4.3423,-4.3344,-4.3265,-4.3329,-4.325,-4.325,-4.325,-4.317,-4.309,-4.317,-4.317,-4.317,-4.317,-4.317,-4.325,-4.325,-4.309,-4.317,-4.325,-4.325,-4.325,-4.3329,-0.7412,-0.4305,-0.1506,-0.1305,0.0402,0.2416,0.4221,0.462,0.6396,1.0895,1.1676,1.3545,1.7933,2.0458,2.2762,2.5185,2.9489,3.2759,3.4301,3.4481,3.4868,3.5736,3.6503,3.7677,3.9265,3.9409,3.9481,3.9481,4.0733,4.122,4.0966,4.1869,4.1869,4.1119,4.097,4.0461,3.9788,4.0763,4.1259,4.1533,4.1816,4.1542,4.0864,4.0112,3.4196,2.5679,2.0436,0.8004,-0.765,-1.8285,-3.0384,-4.1721,-4.5595,-4.7204,-4.8522,-5.2367,-5.4018,-5.4624,-5.4624,-5.5007,-5.537,-5.5361,-5.5852,-5.6329,-5.6191,-5.6327,-5.638,-5.6068,-5.5924,-5.5767,-5.5437,-5.521,-5.4903,-5.4458,-5.4071,-5.3701,-5.3462,-5.3091,-5.2353,-5.1138,-5.1136,-5.0466,-4.8639,-4.8509,-4.8125,-4.7033,-4.5969,-4.5258,-4.5036,-4.4343,-4.391,-4.369,-4.325,-4.2981,-4.2996,-4.2769,-4.285,-4.325,-4.3076,-4.3076,-4.325,-4.285,-4.2769,-4.2996,-4.2996,-4.2996,-4.2996,-4.2996,-4.3076,-4.317,-4.285,-4.293,-4.325,-4.3076,-4.3076,-4.325,-0.4722,-0.2813,-0.1105,0.0604,0.2514,0.4223,0.5434,0.6731,0.8499,1.1196,1.3397,1.6245,2.0297,2.327,2.6253,2.924,3.2179,3.4024,3.4397,3.5032,3.5816,3.6582,3.6802,3.7372,3.8427,3.9636,4.0285,4.0285,4.1028,4.1428,4.1362,4.0878,4.0201,3.9212,3.9011,3.8736,3.8429,3.8996,3.9298,3.9286,3.8429,3.6284,3.3454,3.2599,2.6854,1.9102,1.7531,0.7839,-0.6114,-1.8526,-2.9096,-3.7375,-3.905,-4.2559,-4.6363,-4.8122,-5.0477,-5.2535,-5.2535,-5.3758,-5.5012,-5.5017,-5.5549,-5.6058,-5.5916,-5.6046,-5.6141,-5.6025,-5.5827,-5.558,-5.5301,-5.4962,-5.4647,-5.4439,-5.3926,-5.3385,-5.2877,-5.2076,-5.1241,-5.0482,-5.0038,-4.93,-4.8227,-4.7304,-4.6534,-4.5656,-4.5231,-4.4858,-4.448,-4.405,-4.3675,-4.3409,-4.3155,-4.2915,-4.2769,-4.2688,-4.2769,-4.285,-4.2769,-4.2769,-4.285,-4.2769,-4.2688,-4.2769,-4.2769,-4.2769,-4.2769,-4.2769,-4.2769,-4.285,-4.2769,-4.2769,-4.285,-4.2769,-4.2769,-4.285,-0.2914,-0.1207,0.0603,0.2615,0.4123,0.5632,0.6936,0.7836,0.9587,1.3019,1.4829,1.7759,2.3,2.5018,2.751,3.1192,3.3237,3.4397,3.4397,3.4799,3.5413,3.6281,3.636,3.6752,3.7539,3.8399,3.8752,3.8752,3.9561,3.9688,3.9272,3.916,3.8561,3.7591,3.7377,3.7147,3.7007,3.7056,3.6726,3.6147,3.4848,3.2554,2.9765,2.8765,2.5346,2.0708,1.7544,0.6679,-0.7598,-1.7447,-2.5803,-3.2622,-3.5073,-3.8482,-4.2252,-4.5501,-4.7992,-4.9937,-5.1465,-5.2674,-5.3665,-5.4444,-5.5204,-5.5747,-5.5699,-5.5915,-5.6056,-5.5878,-5.5653,-5.5352,-5.5111,-5.4817,-5.4509,-5.4303,-5.3757,-5.3143,-5.2535,-5.1759,-5.0894,-4.9884,-4.9359,-4.8601,-4.7337,-4.6528,-4.5656,-4.4768,-4.4648,-4.4266,-4.3394,-4.3329,-4.317,-4.2659,-4.2496,-4.2348,-4.2184,-4.2117,-4.2049,-4.2034,-4.2377,-4.2541,-4.2541,-4.2363,-4.2281,-4.2363,-4.2266,-4.2184,-4.2199,-4.2363,-4.2459,-4.2541,-4.2474,-4.2541,-4.2688,-4.2622,-4.2622,-4.2769,-0.1508,0.0503,0.2618,0.4119,0.5529,0.6839,0.8233,0.8817,1.0738,1.5119,1.606,1.8783,2.5319,2.6657,2.8488,3.2054,3.3615,3.4397,3.4397,3.4397,3.4799,3.5669,3.5588,3.5883,3.666,3.6582,3.6568,3.688,3.7615,3.763,3.688,3.7462,3.7246,3.6373,3.5976,3.5722,3.5467,3.5047,3.4219,3.3071,3.17,2.9765,2.7505,2.6286,2.5054,2.3377,1.8551,0.6273,-0.8768,-1.5576,-2.2066,-2.8035,-3.2322,-3.5047,-3.7626,-4.302,-4.5489,-4.7198,-5.0199,-5.1427,-5.2218,-5.3684,-5.4731,-5.5492,-5.5583,-5.5874,-5.6052,-5.58,-5.5538,-5.525,-5.4962,-5.4746,-5.4482,-5.4144,-5.3586,-5.292,-5.2263,-5.1629,-5.0697,-4.9351,-4.8709,-4.7802,-4.6269,-4.5817,-4.5157,-4.4143,-4.4097,-4.3551,-4.2333,-4.2659,-4.2578,-4.2005,-4.1771,-4.1604,-4.1535,-4.1481,-4.1383,-4.1383,-4.2074,-4.2349,-4.2228,-4.18,-4.1702,-4.1883,-4.1702,-4.1619,-4.1702,-4.1868,-4.2049,-4.231,-4.2175,-4.2325,-4.2541,-4.2392,-4.2474,-4.2688,-0.0403,0.2111,0.4119,0.432,0.6423,0.8134,0.8333,1.0644,1.3222,1.5402,1.7465,2.0503,2.546,2.9224,3.1794,3.2599,3.3725,3.4397,3.4397,3.4397,3.4799,3.5669,3.495,3.495,3.5816,3.5101,3.5494,3.688,3.7049,3.7049,3.688,3.6972,3.6503,3.5467,3.5237,3.4528,3.3559,3.3318,3.2621,3.1513,2.9993,2.7241,2.3879,2.2417,2.0202,1.7996,1.8669,0.9482,-0.4301,-1.2974,-1.921,-2.4224,-2.958,-3.2392,-3.4542,-3.8472,-4.1789,-4.4734,-4.6814,-4.9587,-5.197,-5.2375,-5.3905,-5.5303,-5.5557,-5.5901,-5.6134,-5.5994,-5.575,-5.5417,-5.4981,-5.4739,-5.4471,-5.4144,-5.3545,-5.2747,-5.1669,-5.0876,-4.9959,-4.8765,-4.7539,-4.6502,-4.5624,-4.5067,-4.4404,-4.3521,-4.3299,-4.29,-4.2333,-4.217,-4.199,-4.1771,-4.1688,-4.1451,-4.0859,-4.128,-4.146,-4.1313,-4.2111,-4.2164,-4.1564,-4.148,-4.148,-4.148,-4.148,-4.148,-4.148,-4.1619,-4.1785,-4.1785,-4.1995,-4.2092,-4.2175,-4.2175,-4.2242,-4.2474,0.2412,0.3718,0.5022,0.6423,0.7627,0.8916,1.056,1.1996,1.3891,1.7001,1.8226,2.0437,2.4735,2.8712,3.1412,3.2413,3.3458,3.4147,3.4397,3.4397,3.4551,3.495,3.4634,3.4551,3.495,3.4634,3.4868,3.591,3.6122,3.6122,3.591,3.6122,3.5896,3.5114,3.4262,3.3395,3.2685,3.2079,3.0761,2.9045,2.7617,2.5526,2.2854,2.0672,1.8977,1.751,1.4884,0.6596,-0.4359,-1.2619,-1.9307,-2.4676,-2.7473,-2.9943,-3.2574,-3.6307,-3.9137,-4.1967,-4.5931,-4.8804,-5.0952,-5.2108,-5.3865,-5.5369,-5.5595,-5.5964,-5.6167,-5.583,-5.5493,-5.5189,-5.4914,-5.4572,-5.4137,-5.3628,-5.3311,-5.2382,-5.0415,-4.9972,-4.9197,-4.7339,-4.6394,-4.5608,-4.4993,-4.4526,-4.3834,-4.2805,-4.2659,-4.2252,-4.1437,-4.1604,-4.1353,-4.056,-4.0659,-4.0583,-4.0241,-4.055,-4.0852,-4.1132,-4.1485,-4.1708,-4.1739,-4.1739,-4.154,-4.1198,-4.1043,-4.1043,-4.1043,-4.1269,-4.1339,-4.1353,-4.1717,-4.1995,-4.2092,-4.2092,-4.2175,-4.2301]}]]